[[{"header":{"parameterUnit":"m.s-1","parameterCategory":1,"la1":30.6,"la2":28.766,"lo1":-90.7593,"lo2":-88.6598,"dy":0.0162,"dx":0.0183,"nx":116,"ny":114,"refTime":"2024-07-08T18:00:00:Z","depth":0,"parameterNumber":2,"parameterNumberName":"U-component_of_WINDS"},"data":[0.0,0.0,0.0,0.0,0.0,0.0,0.0,0.0,0.0,0.0,0.0,0.0,0.0,0.0,0.0,0.0,0.0,0.0,0.0,0.0,0.0,0.0,0.0,0.0,0.0,0.0,0.0,0.0,0.0,0.0,0.0,0.0,0.0,0.0,0.0,0.0,0.0,0.0,0.0,0.0,0.0,0.0,0.0,0.0,0.0,0.0,0.0,0.0,0.0,0.0,0.0,0.0,0.0,0.0,0.0,0.0,0.0,0.0,0.0,0.0,0.0,0.0,0.0,0.0,0.0,0.0,0.0,0.0,0.0,0.0,0.0,0.0,0.0,0.0,0.0,0.0,0.0,0.0,0.0,0.0,0.0,0.0,0.0,0.0,0.0,0.0,0.0,0.0,0.0,0.0,0.0,0.0,0.0,0.0,0.0,0.0,0.0,0.0,0.0,0.0,0.0,0.0,0.0,0.0,0.0,0.0,0.0,0.0,0.0,0.0,0.0,0.0,0.0,0.0,0.0,0.0,0.0,0.0,0.0,0.0,0.0,0.0,0.0,0.0,0.0,0.0,0.0,0.0,0.0,0.0,0.0,0.0,0.0,0.0,0.0,0.0,0.0,0.0,0.0,0.0,0.0,0.0,0.0,0.0,0.0,0.0,0.0,0.0,0.0,0.0,0.0,0.0,0.0,0.0,0.0,0.0,0.0,0.0,0.0,0.0,0.0,0.0,0.0,0.0,0.0,0.0,0.0,0.0,0.0,0.0,0.0,0.0,0.0,0.0,0.0,0.0,0.0,0.0,0.0,0.0,0.0,0.0,0.0,0.0,0.0,0.0,0.0,0.0,0.0,0.0,0.0,0.0,0.0,0.0,0.0,0.0,0.0,0.0,0.0,0.0,0.0,0.0,0.0,0.0,0.0,0.0,0.0,0.0,0.0,0.0,0.0,0.0,0.0,0.0,0.0,0.0,0.0,0.0,0.0,0.0,0.0,0.0,0.0,0.0,0.0,0.0,0.0,0.0,0.0,0.0,0.0,0.0,0.0,0.0,0.0,0.0,0.0,0.0,0.0,0.0,0.0,0.0,0.0,0.0,0.0,0.0,0.0,0.0,0.0,0.0,0.0,0.0,0.0,0.0,0.0,0.0,0.0,0.0,0.0,0.0,0.0,0.0,0.0,0.0,0.0,0.0,0.0,0.0,0.0,0.0,0.0,0.0,0.0,0.0,0.0,0.0,0.0,0.0,0.0,0.0,0.0,0.0,0.0,0.0,0.0,0.0,0.0,0.0,0.0,0.0,0.0,0.0,0.0,0.0,0.0,0.0,0.0,0.0,0.0,0.0,0.0,0.0,0.0,0.0,0.0,0.0,0.0,0.0,0.0,0.0,0.0,0.0,0.0,0.0,0.0,0.0,0.0,0.0,0.0,0.0,0.0,0.0,0.0,0.0,0.0,0.0,0.0,0.0,0.0,0.0,0.0,0.0,0.0,0.0,0.0,0.0,0.0,0.0,0.0,0.0,0.0,0.0,0.0,0.0,0.0,0.0,0.0,0.0,0.0,0.0,0.0,0.0,0.0,0.0,0.0,0.0,0.0,0.0,0.0,0.0,0.0,0.0,0.0,0.0,0.0,0.0,0.0,0.0,0.0,0.0,0.0,0.0,0.0,0.0,0.0,0.0,0.0,0.0,0.0,0.0,0.0,0.0,0.0,0.0,0.0,0.0,0.0,0.0,0.0,0.0,0.0,0.0,0.0,0.0,0.0,0.0,0.0,0.0,0.0,0.0,0.0,0.0,0.0,0.0,0.0,0.0,0.0,0.0,0.0,0.0,0.0,0.0,0.0,0.0,0.0,0.0,0.0,0.0,0.0,0.0,0.0,0.0,0.0,0.0,0.0,0.0,0.0,0.0,0.0,0.0,0.0,0.0,0.0,0.0,0.0,0.0,0.0,0.0,0.0,0.0,0.0,0.0,0.0,0.0,0.0,0.0,0.0,0.0,0.0,0.0,0.0,0.0,0.0,0.0,0.0,0.0,0.0,0.0,0.0,0.0,0.0,0.0,0.0,0.0,0.0,0.0,0.0,0.0,0.0,0.0,0.0,0.0,0.0,0.0,0.0,0.0,0.0,0.0,0.0,0.0,0.0,0.0,0.0,0.0,0.0,0.0,0.0,0.0,0.0,0.0,0.0,0.0,0.0,0.0,0.0,0.0,0.0,0.0,0.0,0.0,0.0,0.0,0.0,0.0,0.0,0.0,0.0,0.0,0.0,0.0,0.0,0.0,0.0,0.0,0.0,0.0,0.0,0.0,0.0,0.0,0.0,0.0,0.0,0.0,0.0,0.0,0.0,0.0,0.0,0.0,0.0,0.0,0.0,0.0,0.0,0.0,0.0,0.0,0.0,0.0,0.0,0.0,0.0,0.0,0.0,0.0,0.0,0.0,0.0,0.0,0.0,0.0,0.0,0.0,0.0,0.0,0.0,0.0,0.0,0.0,0.0,0.0,0.0,0.0,0.0,0.0,0.0,0.0,0.0,0.0,0.0,0.0,0.0,0.0,0.0,0.0,0.0,0.0,0.0,0.0,0.0,0.0,0.0,0.0,0.0,0.0,0.0,0.0,0.0,0.0,0.0,0.0,0.0,0.0,0.0,0.0,0.0,0.0,0.0,0.0,0.0,0.0,0.0,0.0,0.0,0.0,0.0,0.0,0.0,0.0,0.0,0.0,0.0,0.0,0.0,0.0,0.0,0.0,0.0,0.0,0.0,0.0,0.0,0.0,0.0,0.0,0.0,0.0,0.0,0.0,0.0,0.0,0.0,0.0,0.0,0.0,0.0,0.0,0.0,0.0,0.0,0.0,0.0,0.0,0.0,0.0,0.0,0.0,0.0,0.0,0.0,0.0,0.0,0.0,0.0,0.0,0.0,0.0,0.0,0.0,0.0,0.0,0.0,0.0,0.0,0.0,0.0,0.0,0.0,0.0,0.0,0.0,0.0,0.0,0.0,0.0,0.0,0.0,0.0,0.0,0.0,0.0,0.0,0.0,0.0,0.0,0.0,0.0,0.0,0.0,0.0,0.0,0.0,0.0,0.0,0.0,0.0,0.0,0.0,0.0,0.0,0.0,0.0,0.0,0.0,0.0,0.0,0.0,0.0,0.0,0.0,0.0,0.0,0.0,0.0,0.0,0.0,0.0,0.0,0.0,0.0,0.0,0.0,0.0,0.0,0.0,0.0,0.0,0.0,0.0,0.0,0.0,0.0,0.0,0.0,0.0,0.0,0.0,0.0,0.0,0.0,0.0,0.0,0.0,0.0,0.0,0.0,0.0,0.0,0.0,0.0,0.0,0.0,0.0,0.0,0.0,0.0,0.0,0.0,0.0,0.0,0.0,0.0,0.0,0.0,0.0,0.0,0.0,0.0,0.0,0.0,0.0,0.0,0.0,0.0,0.0,0.0,0.0,0.0,0.0,0.0,0.0,0.0,0.0,0.0,0.0,0.0,0.0,0.0,0.0,0.0,0.0,0.0,0.0,0.0,0.0,0.0,0.0,0.0,0.0,0.0,0.0,0.0,0.0,0.0,0.0,0.0,0.0,0.0,0.0,0.0,0.0,0.0,0.0,0.0,0.0,0.0,0.0,0.0,0.0,0.0,0.0,0.0,0.0,0.0,0.0,0.0,0.0,0.0,0.0,0.0,0.0,0.0,0.0,0.0,0.0,0.0,0.0,0.0,0.0,0.0,0.0,0.0,0.0,0.0,0.0,0.0,0.0,0.0,0.0,0.0,0.0,0.0,0.0,0.0,0.0,0.0,0.0,0.0,0.0,0.0,0.0,0.0,0.0,0.0,0.0,0.0,0.0,0.0,0.0,0.0,0.0,0.0,0.0,0.0,0.0,0.0,0.0,0.0,0.0,0.0,0.0,0.0,0.0,0.0,0.0,0.0,0.0,0.0,0.0,0.0,0.0,0.0,0.0,0.0,0.0,0.0,0.0,0.0,0.0,0.0,0.0,0.0,0.0,0.0,0.0,0.0,0.0,0.0,0.0,0.0,0.0,0.0,0.0,0.0,0.0,0.0,0.0,0.0,0.0,0.0,0.0,0.0,0.0,0.0,0.0,0.0,0.0,0.0,0.0,0.0,0.0,0.0,0.0,0.0,0.0,0.0,0.0,0.0,0.0,0.0,0.0,0.0,0.0,0.0,0.0,0.0,0.0,0.0,0.0,0.0,0.0,0.0,0.0,0.0,0.0,0.0,0.0,0.0,0.0,0.0,0.0,0.0,0.0,0.0,0.0,0.0,0.0,0.0,0.0,0.0,0.0,0.0,0.0,0.0,0.0,0.0,0.0,0.0,0.0,0.0,0.0,0.0,0.0,0.0,0.0,0.0,0.0,0.0,0.0,0.0,0.0,0.0,0.0,0.0,0.0,0.0,0.0,0.0,0.0,0.0,0.0,0.0,0.0,0.0,0.0,0.0,0.0,0.0,0.0,0.0,0.0,0.0,0.0,0.0,0.0,0.0,0.0,0.0,0.0,0.0,0.0,0.0,0.0,0.0,0.0,0.0,0.0,0.0,0.0,0.0,0.0,0.0,0.0,0.0,0.0,0.0,0.0,0.0,0.0,0.0,0.0,0.0,0.0,0.0,0.0,0.0,0.0,0.0,0.0,0.0,0.0,0.0,0.0,0.0,0.0,0.0,0.0,0.0,0.0,0.0,0.0,0.0,0.0,0.0,0.0,0.0,0.0,0.0,0.0,0.0,0.0,0.0,0.0,0.0,0.0,0.0,0.0,0.0,0.0,0.0,0.0,0.0,0.0,0.0,0.0,0.0,0.0,0.0,0.0,0.0,0.0,0.0,0.0,0.0,0.0,0.0,0.0,0.0,0.0,0.0,0.0,0.0,0.0,0.0,0.0,0.0,0.0,0.0,0.0,0.0,0.0,0.0,0.0,0.0,0.0,0.0,0.0,0.0,0.0,0.0,0.0,0.0,0.0,0.0,0.0,0.0,0.0,0.0,0.0,0.0,0.0,0.0,0.0,0.0,0.0,0.0,0.0,0.0,0.0,0.0,0.0,0.0,0.0,0.0,0.0,0.0,0.0,0.0,0.0,0.0,0.0,0.0,0.0,0.0,0.0,0.0,0.0,0.0,0.0,0.0,0.0,0.0,0.0,0.0,0.0,0.0,0.0,0.0,0.0,0.0,0.0,0.0,0.0,0.0,0.0,0.0,0.0,0.0,0.0,0.0,0.0,0.0,0.0,0.0,0.0,0.0,0.0,0.0,0.0,0.0,0.0,0.0,0.0,0.0,0.0,0.0,0.0,0.0,0.0,0.0,0.0,0.0,0.0,0.0,0.0,0.0,0.0,0.0,0.0,0.0,0.0,0.0,0.0,0.0,0.0,0.0,0.0,0.0,0.0,0.0,0.0,0.0,0.0,0.0,0.0,0.0,0.0,0.0,0.0,0.0,0.0,0.0,0.0,0.0,0.0,0.0,0.0,0.0,0.0,0.0,0.0,0.0,0.0,0.0,0.0,0.0,0.0,0.0,0.0,0.0,0.0,0.0,0.0,0.0,0.0,0.0,0.0,0.0,0.0,0.0,0.0,0.0,0.0,0.0,0.0,0.0,0.0,0.0,0.0,0.0,0.0,0.0,0.0,0.0,0.0,0.0,0.0,0.0,0.0,0.0,0.0,0.0,0.0,0.0,0.0,0.0,0.0,0.0,0.0,0.0,0.0,0.0,0.0,0.0,0.0,0.0,0.0,0.0,0.0,0.0,0.0,0.0,0.0,0.0,0.0,0.0,0.0,0.0,0.0,0.0,0.0,0.0,0.0,0.0,0.0,0.0,0.0,0.0,0.0,0.0,0.0,0.0,0.0,0.0,0.0,0.0,0.0,0.0,0.0,0.0,0.0,0.0,0.0,0.0,0.0,0.0,0.0,0.0,0.0,0.0,0.0,0.0,0.0,0.0,0.0,0.0,0.0,0.0,0.0,0.0,0.0,0.0,0.0,0.0,0.0,0.0,0.0,0.0,0.0,0.0,0.0,0.0,0.0,0.0,0.0,0.0,0.0,0.0,0.0,0.0,0.0,0.0,0.0,0.0,0.0,0.0,0.0,0.0,0.0,-0.1214,0.0,0.0,0.0,0.0,0.0,0.0,0.0,0.0,0.0,0.0,0.0,0.0,0.0,0.0,0.0,0.0,0.0,0.0,0.0,0.0,0.0,0.0,0.0,0.0,0.3591,0.345,0.3281,0.3105,0.2912,0.2664,0.0,0.0,0.0,0.0,0.0,0.2102,0.1997,0.1913,0.1803,0.1803,0.1754,0.1684,0.1587,0.1251,0.069,0.0,0.0,0.0,0.0,0.0,0.0,0.0,0.0,0.0,0.0,0.0,0.0,0.0,0.0,0.0,0.0,0.0,0.0,0.0,0.0,0.0,0.0,0.0,0.0,0.0,0.0,0.0,0.0,0.0,0.0,0.0,0.0,0.0,0.0,0.0,0.0,0.0,0.0,0.0,0.0,0.0,0.0,0.0,0.0,0.0,0.0,0.0,0.0,0.0,0.0,0.0,0.0,0.0,0.0,0.0,0.0,0.0,0.0,0.0,0.0,0.0,0.0,0.0,0.0,0.0,0.0,0.0,0.0,0.0,0.0,0.0,-0.0759,0.0,0.0,0.0,0.0,0.0,0.0,0.0,0.0,0.0,0.0,0.0,0.0,0.0,0.0,0.0,0.0,0.0,0.0,0.0,0.0,0.0,0.3339,0.3382,0.3266,0.3159,0.3041,0.2896,0.2707,0.2517,0.0,0.0,0.0,0.0,0.204,0.204,0.1891,0.1803,0.1803,0.183,0.1899,0.2023,0.1817,0.141,0.0,0.0655,0.0,0.0,0.0,0.0,0.0,0.0,0.0,0.0,0.0,0.0,0.0,0.0,0.0,0.0,0.0,0.0,0.0,0.0,0.0,0.0,0.0,0.0,0.0,0.0,0.0,0.0,0.0,0.0,0.0,0.0,0.0,0.0,0.0,0.0,0.0,0.0,0.0,0.0,0.0,0.0,0.0,0.0,0.0,0.0,0.0,0.0,0.0,0.0,0.0,0.0,0.0,0.0,0.0,0.0,0.0,0.0,0.0,0.0,0.0,0.0,0.0,0.0,0.0,-0.1366,-0.1374,-0.1481,-0.1481,-0.1552,-0.1547,-0.0937,-0.0569,-0.0451,0.0045,0.0,0.0,0.0,0.0,0.0,0.0,0.0,0.0,0.0,0.0,0.0,0.0,0.0,0.0,0.0,0.0,0.0,0.0,0.0,0.3116,0.329,0.3251,0.3187,0.3181,0.2945,0.2707,0.2517,0.0,0.0,0.0,0.1847,0.1847,0.1847,0.1803,0.1803,0.1803,0.1916,0.2033,0.2181,0.0,0.0,0.0,0.1305,0.1196,0.0,0.0,0.0,0.0,0.0,0.0,0.0,0.0,0.0,0.0,0.0,0.0,0.0,0.0,0.0,0.0,0.0,0.0,0.0,0.0,0.0,0.0,0.0,0.0,0.0,0.0,0.0,0.0,0.0,0.0,0.0,0.0,0.0,0.0,0.0,0.0,0.0,0.0,0.0,0.0,0.0,0.0,0.0061,0.0098,0.0,0.0,0.0,0.0,0.0,0.0,0.0,0.0,0.0,0.0,0.0,0.0,0.0,-0.1522,-0.1542,-0.1585,-0.1689,-0.1749,-0.1798,-0.185,-0.1902,-0.1909,-0.1913,-0.1853,-0.0949,0.0,-0.0705,-0.0099,0.0,0.0,0.0,0.0,0.0,0.0,0.0,0.0,0.0,0.0,0.0,0.0,0.0,0.0,0.0,0.0,0.0,0.0,0.0,0.0,0.0,0.3245,0.3159,0.3041,0.2896,0.2659,0.0,0.0,0.0,0.1803,0.1803,0.1803,0.1803,0.1865,0.1954,0.2013,0.208,0.2119,0.0,0.0,0.0,0.0,0.1575,0.1245,0.0,0.0,0.0,0.0,0.0,0.0,0.0,0.0,0.0,0.0,0.0,0.0,0.0,0.0,0.0,0.0,0.0,0.0,0.0,0.0,0.0,0.0,0.0,0.0,0.0,0.0,0.0,0.0,0.0,0.0,0.0,0.0,0.0,0.0,0.0,0.0,0.0,0.0,0.0,0.0,0.0,0.0245,0.0167,-0.0146,-0.0404,-0.052,0.0,0.0,0.0,0.0,0.0,0.0,0.0,0.0,0.0,-0.1623,-0.1659,-0.1706,-0.1764,-0.1826,-0.1869,-0.1895,-0.192,-0.1946,-0.1971,-0.1971,-0.1971,-0.191,-0.1544,-0.1377,-0.1246,-0.0,0.0636,0.083,0.0,0.0,0.0,0.0,0.0844,0.087,0.0,0.0,0.0,0.0,0.0,0.0,0.0,0.0,0.0,0.0,0.0,0.0,0.3319,0.3245,0.3138,0.3019,0.0,0.0,0.0,0.0,0.0,0.1891,0.1825,0.1803,0.1803,0.193,0.2097,0.2321,0.2321,0.0,0.0,0.0,0.0,0.0,0.0,0.0,0.0,0.0,0.0,0.0,0.0,0.0,0.0,0.0,0.0,0.0,0.0,0.0,0.0,0.0,0.0,0.0,0.0,0.0,0.0,0.0,0.0,0.0,0.0,0.0,0.0,0.0,0.0,0.0,0.0,0.0,0.0,0.0,0.0,0.0,0.0,0.0,0.0,0.0,0.0,0.0,0.0,0.0412,0.0149,-0.0556,-0.1104,-0.1197,0.0,0.0,0.0,0.0,0.0,0.0,-0.154,-0.1693,-0.1753,-0.1771,-0.1817,-0.1862,-0.1905,-0.195,-0.198,-0.1995,-0.1995,-0.2004,-0.2019,-0.2019,-0.1956,-0.1956,-0.1642,-0.151,-0.1368,0.0236,0.0907,0.0885,0.0862,0.0853,0.0803,0.0824,0.0872,0.0913,0.0,0.0,0.0,0.0,0.0,0.0,0.0,0.0,0.0,0.0,0.0,0.3515,0.0,0.0,0.0,0.0,0.0,0.0,0.0,0.0,0.0,0.2102,0.1913,0.1803,0.1803,0.193,0.0,0.0,0.0,0.0,0.0,0.0,0.0,0.0,0.0,0.0,0.0,0.0,0.0,0.0,0.0,0.0,0.0,0.0,0.0,0.0,0.0,0.0,0.0,0.0,0.0,0.0,0.0,0.0,0.0,0.0,0.0,0.0,0.0,0.0,0.0,0.0,0.0,0.0,0.0,0.0,0.0,0.0,0.0,0.0,0.0,0.0,0.0,0.0,0.0,0.0,0.0,0.0,0.0,-0.1224,-0.1398,0.0,0.0,0.0,0.0,-0.142,-0.1523,-0.1606,-0.1777,-0.1783,-0.1837,-0.1955,-0.1962,-0.1965,-0.1967,-0.1909,-0.1939,-0.1993,-0.1993,-0.2089,-0.2211,-0.2211,-0.2211,-0.2078,-0.0736,-0.0263,-0.0513,0.0498,0.0922,0.092,0.1041,0.1102,0.1102,0.1042,0.0981,0.098,0.0,0.0,0.0,0.4773,0.4793,0.4773,0.4673,0.4483,0.4211,0.3841,0.3675,0.0,0.0,0.0,0.0,0.0,0.0,0.0,0.0,0.0,0.2435,0.2298,0.2069,0.2018,0.2235,0.2393,0.2571,0.0,0.0,0.0,0.0,0.0,0.0,0.0,0.0,0.0,0.0,0.0,0.0,0.0,0.0,0.0,0.0,0.0,0.0,0.0,0.0,0.0,0.0,0.0,0.0,0.0,0.0,0.0,0.0,0.0,0.0,0.0,0.0,0.0,0.0,0.0,0.0,0.0,0.0,0.0,0.0,0.0,0.0,0.0,0.0,0.0,0.0,0.0,0.0,0.0,0.0,0.0,0.0,-0.1466,-0.1654,0.0,-0.1747,-0.1707,-0.171,-0.1698,-0.1753,-0.1823,-0.1906,-0.191,-0.1929,-0.197,-0.2072,-0.2031,-0.203,-0.207,-0.21,-0.2121,-0.2121,-0.2132,-0.2221,-0.2221,-0.2221,-0.2087,-0.0134,0.0668,0.0529,0.0917,0.1022,0.105,0.1112,0.1112,0.1112,0.105,0.0988,0.0988,0.4552,0.4483,0.0,0.4544,0.4564,0.4544,0.4504,0.4313,0.4068,0.382,0.3661,0.3472,0.0,0.0,0.0,0.0,0.0,0.0,0.0,0.0,0.2507,0.2543,0.2332,0.2307,0.2555,0.2712,0.0,0.0,0.0,0.0,0.0,0.0,0.0,0.0,0.0,0.0,0.0,0.0,0.0,0.0,0.0,0.0,0.0924,0.0,0.0,0.0,0.0,0.0,0.0,0.0,0.0,0.0,0.0,0.0,0.0,0.0,0.0,0.0,0.0,0.0,0.0,0.0,0.0,0.0,0.0,0.0,0.0,0.0,0.0,0.0,0.0,0.0,0.0,0.0,0.0,0.0,0.0,0.0,0.0339,-0.0753,-0.0886,-0.0955,-0.1154,-0.1148,-0.1303,-0.162,-0.1654,-0.1696,-0.1749,-0.194,-0.1948,-0.1714,-0.1961,-0.2114,-0.2094,-0.2154,-0.2174,-0.2221,-0.2221,-0.2221,-0.2154,-0.1412,-0.1076,-0.1008,0.047,0.1076,0.1076,0.1076,0.1119,0.1081,0.1081,0.1081,0.1081,0.1081,0.1018,0.1018,0.4207,0.4207,0.4166,0.4109,0.4089,0.4048,0.3931,0.389,0.3828,0.3612,0.3541,0.0,0.0,0.0,0.0,0.0,0.0,0.0,0.0,0.2756,0.2587,0.2772,0.2681,0.2627,0.2712,0.0,0.0,0.0,0.0,0.0,0.0,0.0,0.0,0.0,0.0,0.0,0.0,0.0,0.0,0.0,0.0,0.0,0.1949,0.0,0.0,0.0,0.0,0.0,0.0,0.0,0.0,0.0,0.0,0.0,0.0,0.0,0.0,0.0,0.0,0.0,0.0,0.0,0.0,0.0,0.0,0.0,0.0,0.0,0.0,0.0,0.0,0.0,0.0,0.0,0.0,0.0,0.0728,0.0799,0.0896,0.0916,0.0945,0.0758,0.0169,0.0119,-0.0247,-0.111,-0.1171,-0.125,-0.1289,-0.1744,-0.1768,-0.1145,-0.18,-0.215,-0.2228,-0.2218,-0.2149,-0.2092,-0.2092,-0.2091,-0.2021,0.0135,0.1077,0.1077,0.1076,0.1076,0.1077,0.1076,0.1076,0.1077,0.1076,0.1076,0.1076,0.1076,0.1076,0.1076,0.4313,0.415,0.3945,0.4068,0.406,0.3999,0.3911,0.3731,0.3584,0.3541,0.0,0.0,0.0,0.0,0.0,0.0,0.0,0.0,0.3208,0.0,0.2466,0.2362,0.2661,0.0,0.0,0.0,0.0,0.0,0.0,0.0,0.0,0.0,0.0,0.0,0.0,0.0,0.0,0.0,0.0,0.0,0.0,0.0,0.2055,0.0,0.0,0.0,0.0,0.0,0.0,0.0,0.0,0.0,0.0,0.0,0.0,0.0,0.0,0.0,0.0,0.0,0.0,0.0,0.0,0.0,0.0,0.0,0.0,0.0,0.0,0.0,0.0,0.0,0.0,0.0,0.0914,0.098,0.0868,0.0909,0.0946,0.096,0.0592,0.0304,0.0121,-0.0122,-0.0374,-0.0571,-0.0891,-0.1106,-0.1162,-0.0754,-0.0902,-0.1855,-0.1509,-0.1582,-0.2214,-0.2229,-0.1365,0.0214,0.0214,0.0212,0.0208,0.0831,0.1178,0.1246,0.1153,0.1088,0.1107,0.1084,0.1089,0.1106,0.1084,0.1076,0.1076,0.1076,0.1076,0.1076,0.4027,0.3862,0.3696,0.3758,0.373,0.3688,0.3619,0.3478,0.3379,0.3406,0.3294,0.0,0.0,0.0,0.0,0.0,0.0,0.0,0.3031,0.2884,0.2745,0.0,0.0,0.0,0.0,0.0,0.0,0.0,0.0,0.0,0.0,0.0,0.0,0.0,0.0,0.0,0.0,0.0,0.0,0.0,0.0,0.0,0.2506,0.2116,0.2012,0.2068,0.1765,0.1451,0.1181,0.1116,0.0,0.0,0.0,0.0,0.0,0.0,0.0,0.0,0.0,0.0,0.0,0.0,0.0,0.0,0.0,0.0,0.0,0.0,0.0,0.0,0.0,0.0,0.0,0.0,0.105,0.1007,0.0964,0.0982,0.1001,0.102,0.068,0.0503,0.0503,0.0321,0.0131,-0.0067,-0.0405,-0.0551,-0.0569,-0.0285,-0.0359,-0.0801,-0.1252,-0.1253,-0.0729,-0.0737,-0.0074,0.1166,0.1166,0.1157,0.1211,0.1211,0.1211,0.1281,0.1191,0.1124,0.1139,0.1121,0.1124,0.0,0.0,0.0,0.0,0.0,0.1076,0.1076,0.3563,0.3506,0.3436,0.3317,0.3296,0.3281,0.3208,0.3208,0.3229,0.3278,0.0,0.0,0.0,0.0,0.0,0.0,0.0,0.0,0.0,0.0,0.0,0.3286,0.0,0.0,0.0,0.0,0.0,0.0,0.0,0.0,0.0,0.0,0.0,0.0,0.0,0.0,0.0,0.0,0.0,0.0,0.0,0.0,0.3143,0.2523,0.2387,0.2501,0.199,0.1713,0.1564,0.1321,0.0,0.0,0.0,0.0,0.0,0.0,0.0,0.0,0.0,0.0,0.0,0.0,0.0,0.0,0.0,0.0,0.0,0.0,0.0,0.0,0.0,0.0,0.0,0.0,0.1025,0.1023,0.099,0.0996,0.0997,0.0994,0.102,0.1039,0.1043,0.1091,0.0912,0.0422,0.0288,0.0219,0.0219,0.0,0.0,0.0,0.0,-0.0828,0.1251,0.1279,0.1279,0.1323,0.1323,0.1322,0.1318,0.1318,0.1245,0.1244,0.1168,0.1168,0.1171,0.1168,0.1168,0.1168,0.1134,0.1121,0.1117,0.1087,0.1076,0.1076,0.3738,0.352,0.3323,0.3315,0.33,0.3272,0.3208,0.3208,0.3208,0.3208,0.3208,0.0,0.0,0.0,0.0,0.0,0.0,0.0,0.0,0.0,0.0,0.0,0.0,0.0,0.0,0.0,0.0,0.0,0.0,0.0,0.0,0.0,0.0,0.0,0.0,0.0,0.0,0.0,0.0,0.0,0.0,0.0,0.3152,0.2914,0.2873,0.2879,0.2668,0.2371,0.2075,0.2251,0.1815,0.1265,0.1384,0.0,0.0,0.0,0.0,0.0,0.0,0.0,0.0,0.0,0.0,0.0,0.0,0.0,0.0,0.0,0.0,0.0,0.0,0.0,0.0,0.0772,0.096,0.1082,0.1088,0.1109,0.105,0.1028,0.105,0.1077,0.1102,0.1114,0.106,0.1012,0.1018,0.0957,0.0976,0.0978,0.1062,0.1239,0.0856,0.0856,0.1317,0.1323,0.1323,0.1317,0.0,0.0,0.1278,0.1278,0.1278,0.1277,0.1251,0.1181,0.1201,0.1176,0.1181,0.1198,0.1142,0.1121,0.1117,0.1087,0.1076,0.1076,0.3555,0.3415,0.3302,0.33,0.33,0.3278,0.3208,0.3208,0.3187,0.3159,0.3181,0.0,0.0,0.0,0.0,0.0,0.0,0.0,0.0,0.0,0.0,0.0,0.0,0.0,0.0,0.0,0.0,0.0,0.0,0.0,0.0,0.0,0.0,0.0,0.0,0.0,0.0,0.0,0.0,0.0,0.0,0.0,0.3034,0.2974,0.295,0.2942,0.2878,0.2686,0.247,0.247,0.2116,0.1717,0.1717,0.1227,0.0655,0.0,0.0,0.0,0.0,0.0,0.0,0.0,0.0,0.0,0.0,0.0,0.0,0.0,0.0,0.0291,0.0308,0.0,0.057,0.0359,0.0753,0.1104,0.112,0.1069,0.1072,0.1057,0.1067,0.1087,0.1118,0.1134,0.1156,0.1187,0.1203,0.1219,0.1234,0.1312,0.1319,0.1335,0.1335,0.1335,0.1335,0.1335,0.1335,0.1335,0.1335,0.1327,0.1312,0.1234,0.1234,0.1311,0.1295,0.1221,0.1234,0.1218,0.1221,0.123,0.1184,0.1166,0.1163,0.1132,0.1121,0.1121,0.3278,0.3287,0.3281,0.3278,0.3278,0.3257,0.3208,0.3187,0.3159,0.3111,0.3138,0.3117,0.3019,0.3041,0.3,0.0,0.0,0.0,0.0,0.0,0.0,0.0,0.0,0.0,0.0,0.0,0.0,0.0,0.0,0.0,0.0,0.0,0.0,0.0,0.0,0.0,0.0,0.0,0.0,0.0,0.0,0.0,0.2903,0.2903,0.2934,0.2912,0.2912,0.2849,0.2718,0.2505,0.2364,0.2214,0.1992,0.1623,0.1203,0.0778,0.0344,0.0,0.0,0.0,0.0,0.0,0.0,0.0,0.0,0.0,0.0287,0.04,0.031,0.0214,0.0057,0.0294,0.0427,0.0064,0.0519,0.092,0.1076,0.1012,0.1011,0.1009,0.1076,0.109,0.1126,0.1152,0.1181,0.1217,0.1243,0.1335,0.1335,0.1335,0.1335,0.1335,0.1335,0.1335,0.1335,0.1335,0.1335,0.1335,0.1335,0.1335,0.1335,0.1335,0.1335,0.1335,0.1335,0.1335,0.1335,0.1335,0.1257,0.1176,0.1153,0.1144,0.1064,0.1106,0.1093,0.1093,0.3208,0.3208,0.3208,0.3208,0.3208,0.3208,0.3208,0.3159,0.3111,0.3089,0.3068,0.3019,0.2998,0.2998,0.3039,0.0,0.0,0.0,0.0,0.0,0.0,0.0,0.0,0.0,0.0,0.0,0.0,0.0,0.0,0.0,0.0,0.0,0.0,0.0,0.0,0.0,0.0,0.0,0.0,0.0,0.0,0.0,0.2981,0.2981,0.296,0.2912,0.2912,0.2904,0.289,0.2846,0.2838,0.2811,0.2786,0.2741,0.2588,0.2069,0.0,-0.0,-0.0,-0.0,0.0047,0.0047,0.0049,0.0051,0.0,0.0,0.0056,0.0059,0.006,-0.0,-0.0,0.0063,0.0064,-0.0,0.0066,0.0336,0.1011,0.0809,0.0539,0.0539,0.0876,0.11,0.1156,0.1164,0.119,0.1248,0.1333,0.1335,0.1335,0.1335,0.1335,0.1335,0.1335,0.1335,0.1335,0.1335,0.1335,0.1335,0.1335,0.1335,0.1335,0.1335,0.1335,0.1335,0.1335,0.1335,0.1335,0.1335,0.1021,0.0707,0.0705,0.0704,0.07,0.1039,0.0948,0.0656,0.3208,0.3208,0.3208,0.3208,0.3208,0.3208,0.3208,0.3138,0.3089,0.3041,0.3019,0.2934,0.2724,0.2544,0.2443,0.2497,0.0,0.0,0.0,0.0,0.0,0.0,0.0,0.0,0.0,0.0,0.0,0.0,0.0,0.0,0.0,0.0,0.0,0.0,0.0,0.0,0.0,0.0,0.0,0.0,0.0,0.0,0.3099,0.3099,0.3074,0.2963,0.2892,0.2912,0.0,0.0,0.2912,0.2904,0.2895,0.2777,0.2639,0.2576,0.1672,0.0,0.0094,-0.0,-0.0,0.0,-0.0,-0.0,-0.0,-0.0,-0.0,-0.0,-0.0,-0.0,-0.0,-0.0,-0.0,0.0,-0.0,0.0135,0.0404,0.0472,0.0472,0.0472,0.0888,0.112,0.1162,0.1166,0.1191,0.1331,0.1335,0.1335,0.1335,0.1335,0.1335,0.1335,0.1335,0.1335,0.1335,0.1335,0.1335,0.1335,0.1335,0.1335,0.1257,0.1021,0.0864,0.0864,0.0864,0.0864,0.0943,0.1178,0.1178,0.0943,0.0707,0.0628,0.0627,0.1075,0.099,0.0533,0.3208,0.3208,0.3208,0.3208,0.3187,0.3159,0.3159,0.3095,0.3031,0.2982,0.2918,0.2745,0.242,0.2157,0.2003,0.2018,0.264,0.3069,0.0,0.0,0.0,0.0,0.0,0.0,0.0,0.0,0.0,0.0,0.0,0.0,0.0,0.0,0.0,0.0,0.0,0.0,0.0,0.0,0.0,0.0,0.0,0.0,0.327,0.327,0.3128,0.2992,0.2949,0.2895,0.0,0.0,0.2912,0.2912,0.2912,0.2788,0.2645,0.2865,0.207,0.1088,0.0604,0.0518,0.0,0.0114,-0.0,-0.0,-0.0,-0.0,-0.0,-0.0,-0.0,-0.0,-0.0,-0.0,-0.0,-0.0,-0.0,-0.0,-0.0,0.0202,0.0337,0.0337,0.0617,0.0843,0.0944,0.11,0.12,0.1332,0.1335,0.1335,0.1335,0.1335,0.1335,0.1335,0.1335,0.1335,0.1335,0.1335,0.1335,0.1335,0.1178,0.1178,0.1257,0.0707,0.0471,0.0471,0.0471,0.0471,0.0471,0.0786,0.0943,0.0943,0.055,0.0471,0.0471,0.0786,0.0707,0.0393,0.3208,0.3208,0.3208,0.3208,0.3138,0.3111,0.3111,0.2988,0.2907,0.2907,0.2669,0.242,0.215,0.2035,0.2018,0.2078,0.2367,0.2703,0.3155,0.3793,0.0,0.0,0.0,0.0,0.0,0.0,0.0,0.0,0.0,0.0,0.0,0.0,0.0,0.0,0.0,0.0,0.0,0.0,0.0,0.0,0.0,0.0,0.3395,0.3395,0.3251,0.3002,0.2997,0.0,0.0,0.0,0.2912,0.2912,0.2912,0.2907,0.0,0.2913,0.219,0.0,0.0,0.0,0.1732,0.0336,-0.0,-0.0,-0.0,-0.0,-0.0,-0.0,-0.0,-0.0,-0.0,-0.0,-0.0,-0.0,-0.0,-0.0,-0.0,-0.0,-0.0,-0.0,-0.0,0.0138,0.0508,0.0895,0.1224,0.1333,0.1335,0.1335,0.1335,0.1335,0.1335,0.1335,0.1335,0.1335,0.1335,0.1335,0.1335,0.1257,0.0864,0.0864,0.1257,0.0393,-0.0,-0.0,-0.0,-0.0,-0.0,-0.0,0.0079,-0.0,-0.0,-0.0,-0.0,-0.0,-0.0,-0.0,0.3208,0.3208,0.3208,0.3208,0.3138,0.3046,0.2853,0.2767,0.2697,0.2697,0.2307,0.0,0.0,0.0,0.0,0.0,0.2337,0.269,0.2841,0.3651,0.0,0.0,0.0,0.0,0.0,0.0,0.0,0.0,0.0,0.0,0.0,0.0,0.0,0.0,0.0,0.0,0.0,0.0,0.0,0.0,0.0,0.0,0.3523,0.3523,0.3371,0.3112,0.0,0.0,0.0,0.0,0.2912,0.0,0.2912,0.0,0.0,0.299,0.0,0.2863,0.2988,0.0,0.3222,0.293,0.1435,-0.0,-0.0,-0.0,-0.0,-0.0,-0.0,-0.0,-0.0,-0.0,-0.0,-0.0,-0.0,-0.0,-0.0,-0.0,-0.0,-0.0,-0.0,0.0,0.0149,0.0297,0.0,0.0783,0.11,0.1335,0.1335,0.1335,0.1335,0.1335,0.1335,0.1178,0.0864,0.0864,0.1021,0.1257,0.055,0.0314,0.0393,0.0157,-0.0,-0.0,-0.0,-0.0,-0.0,-0.0,-0.0,-0.0,-0.0,-0.0,-0.0,-0.0,-0.0,-0.0,0.3208,0.3208,0.3208,0.3208,0.3074,0.0,0.0,0.0,0.0,0.0,0.0,0.0,0.0,0.0,0.0,0.0,0.0,0.255,0.2679,0.0,0.0,0.0,0.0,0.0,0.0,0.0,0.0,0.0,0.0,0.0,0.0,0.0,0.0,0.0,0.0,0.0,0.0,0.0,0.0,0.0,0.0,0.0,0.3413,0.3413,0.3296,0.0,0.0,0.0,0.0,0.0,0.0,0.0,0.0,0.0,0.0,0.0,0.3299,0.3626,0.3589,0.3773,0.3945,0.4083,0.2851,0.1507,0.1538,0.0739,-0.0,-0.0,-0.0,-0.0,-0.0,-0.0,-0.0,-0.0,-0.0,-0.0,-0.0,-0.0,-0.0,-0.0,-0.0,-0.0,0.0,0.0,0.0,0.0392,0.0629,0.0864,0.1021,0.1178,0.1257,0.1021,0.1189,0.1189,0.0864,0.0559,0.0564,0.0806,0.0242,-0.0,-0.0,-0.0,-0.0,-0.0,-0.0,-0.0,-0.0,-0.0,-0.0,-0.0,-0.0,-0.0,-0.0,-0.0,-0.0,-0.0,0.3208,0.3208,0.3208,0.0,0.0,0.0,0.0,0.0,0.0,0.0,0.0,0.0,0.0,0.0,0.0,0.0,0.0,0.0,0.2646,0.0,0.0,0.0,0.0,0.0,0.4937,0.4969,0.0,0.0,0.0,0.0,0.0,0.0,0.0,0.0,0.0,0.0,0.0,0.0,0.0,0.0,0.0,0.0,0.3067,0.3072,0.0,0.0,0.0,0.0,0.0,0.0,0.0,0.0,0.0,0.0,0.0,0.0,0.0,0.3596,0.3607,0.3778,0.392,0.3913,0.4088,0.4303,0.4306,0.2146,0.02,0.0129,0.0064,-0.0,-0.0,0.0,-0.0,-0.0,-0.0,-0.0,-0.0,-0.0,-0.0,0.0,0.0,0.0,0.0,0.0,0.0,-0.0,0.0,0.0157,0.0552,0.1024,0.1103,0.0631,0.1048,0.121,0.1262,0.0412,-0.0,-0.0,-0.0,-0.0,-0.0,-0.0,-0.0,-0.0,-0.0,-0.0,-0.0,-0.0,-0.0,-0.0,-0.0,-0.0,-0.0,-0.0,-0.0,-0.0,0.0,0.0,0.0,0.0,0.0,0.0,0.0,0.0,0.0,0.0,0.0,0.0,0.0,0.0,0.0,0.0,0.0,0.0,0.0,0.0,0.0,0.0,0.0,0.0,0.0,0.0,0.0,0.0,0.0,0.0,0.0,0.0,0.0,0.0,0.0,0.0,0.0,0.0,0.0,0.0,0.0,0.0,0.3021,0.0,0.0,0.0,0.0,0.0,0.0,0.0,0.0,0.0,0.0,0.0,0.3248,0.0,0.0,0.3809,0.3933,0.4094,0.4213,0.4183,0.4278,0.4278,0.4064,0.3322,0.2454,0.1505,0.0611,-0.0,-0.0,-0.0,0.0,-0.0,-0.0,0.0,-0.0,-0.0,0.0,-0.0,0.0,-0.0,-0.0,-0.0,0.0,0.0,-0.0,0.0081,0.0165,0.0896,0.122,0.1158,0.0583,0.0333,0.0331,0.0084,-0.0,-0.0,-0.0,-0.0,-0.0,-0.0,-0.0,-0.0,-0.0,-0.0,-0.0,-0.0,-0.0,-0.0,-0.0,-0.0,-0.0,-0.0,-0.0,-0.0,0.0,0.0,0.0,0.0,0.0,0.0,0.0,0.0,0.0,0.0,0.0,0.0,0.0,0.0,0.0,0.0,0.0,0.0,0.0,0.0,0.0,0.0,0.0,0.0,0.0,0.0,0.0,0.0,0.0,0.0,0.0,0.0,0.0,0.0,0.0,0.0,0.0,0.0,0.0,0.0,0.0,0.0,0.0,0.0,0.0,0.0,0.0,0.0,0.0,0.0,0.0,0.3227,0.3281,0.3335,0.3414,0.3604,0.0,0.3941,0.408,0.4208,0.43,0.43,0.4259,0.4137,0.3813,0.37,0.3384,0.2734,0.2024,0.1403,0.0864,0.0818,0.0603,0.0,0.0,0.0,0.2062,0.0897,-0.0,0.0,-0.0,0.0,-0.0,0.1487,0.2514,0.0,0.0926,-0.0,-0.0,0.0499,0.0748,0.0758,0.0255,-0.0,-0.0,-0.0,-0.0,-0.0,-0.0,-0.0,-0.0,-0.0,-0.0,-0.0,0.0,-0.0,-0.0,-0.0,-0.0,-0.0,-0.0,-0.0,-0.0,-0.0,-0.0,-0.0,0.0,0.0,0.0,0.0,0.0,0.0,0.0,0.0,0.0,0.1433,0.1501,0.1642,0.0,0.0,0.0,0.0,0.0,0.0,0.0,0.0,0.0,0.0,0.0,0.0,0.0,0.0,0.0,0.0,0.0,0.0,0.0,0.0,0.0,0.0,0.0,0.0,0.0,0.0,0.0,0.0,0.0,0.0,0.0,0.0,0.0,0.0,0.0,0.0,0.0,0.0,0.3247,0.3289,0.3409,0.352,0.3632,0.382,0.3952,0.4121,0.4137,0.4219,0.43,0.43,0.4208,0.4049,0.3707,0.3626,0.3583,0.3589,0.0,0.3251,0.225,0.2021,0.1684,0.0698,0.0,0.3044,0.4734,0.2465,0.0546,0.0391,0.0314,0.032,0.0419,0.337,0.5424,0.5665,0.2606,0.051,-0.0,-0.0,-0.0,-0.0,-0.0,-0.0,-0.0,-0.0,-0.0,-0.0,-0.0,-0.0,-0.0,-0.0,-0.0,-0.0,-0.0,-0.0,-0.0,-0.0,-0.0,-0.0,-0.0,-0.0,-0.0,-0.0,-0.0,-0.0,0.0,0.0,0.0,0.0,0.0,0.0,0.0,0.0,0.0,0.0,0.1452,0.1523,0.0,0.0,0.0,0.0,0.0,0.0,0.0,0.0,0.0,0.0,0.0,0.0,0.0,0.0,0.0,0.0,0.0,0.0,0.0,0.0,0.0,0.0,0.0,0.0,0.0,0.0,0.0,0.0,0.0,0.0,0.0,0.0,0.0,0.0,0.0,0.0,0.0,0.0,0.3427,0.3542,0.3713,0.3765,0.3826,0.399,0.4083,0.414,0.424,0.4284,0.43,0.43,0.4276,0.4157,0.3864,0.369,0.0,0.0,0.3615,0.3554,0.3307,0.3268,0.329,0.3253,0.2637,0.2835,0.4734,0.4495,0.3609,0.0,0.2035,0.2154,0.2341,0.3023,0.0,0.0,0.5099,0.329,0.0177,-0.0,-0.0,-0.0,-0.0,-0.0,-0.0,-0.0,-0.0,-0.0,-0.0,-0.0,-0.0,-0.0,-0.0,-0.0,-0.0,0.0,-0.0,-0.0,-0.0,-0.0,-0.0,-0.0,-0.0,-0.0,-0.0,-0.0,0.0,0.0,0.0,0.0,0.0,0.0,0.0,0.1825,0.1718,0.1524,0.148,0.1549,0.1786,0.1814,0.0,0.0,0.0,0.0,0.0,0.0,0.0,0.0,0.0,0.0,0.0,0.0,0.0,0.0,0.0,0.0,0.0,0.0,0.0,0.0,0.0,0.0,0.0,0.0,0.0,0.0,0.0,0.0,0.0,0.0,0.0,0.0,0.0,0.0,0.0,0.0,0.3419,0.3604,0.3776,0.3812,0.3859,0.4045,0.4118,0.4145,0.4268,0.43,0.43,0.43,0.4226,0.4134,0.3763,0.0,0.0,0.0,0.3585,0.3585,0.3585,0.3578,0.0,0.3727,0.3339,0.3443,0.4613,0.5001,0.0,0.4053,0.3955,0.4041,0.0,0.4276,0.4769,0.5649,0.5673,0.4043,0.0179,-0.0,-0.0,-0.0,-0.0,-0.0,-0.0,-0.0,-0.0,-0.0,-0.0,-0.0,-0.0,-0.0,-0.0,-0.0,-0.0,-0.0,-0.0,-0.0,-0.0,-0.0,-0.0,-0.0,-0.0,-0.0,-0.0,-0.0,0.0,0.0,0.0,0.0,0.0,0.0,0.0,0.185,0.1714,0.1566,0.1521,0.1561,0.175,0.1797,0.1873,0.0,0.0,0.0,0.0,0.0,0.0,0.0,0.0,0.0,0.0,0.0,0.0,0.0,0.0,0.0,0.0,0.0,0.0,0.0,0.0,0.0,0.0,0.0,0.0,0.0,0.0,0.0,0.0,0.0,0.0,0.0,0.0,0.0,0.0,0.0,0.3355,0.3564,0.3738,0.3793,0.3856,0.4015,0.4096,0.414,0.4235,0.4281,0.4295,0.4268,0.4226,0.4053,0.3716,0.3616,0.0,0.0,0.3585,0.3585,0.3585,0.0,0.3623,0.0,0.38,0.4064,0.4428,0.4913,0.5245,0.0,0.5311,0.0,0.5386,0.5567,0.0,0.5735,0.5481,0.3769,0.0179,0.0808,0.1258,0.1258,0.0449,-0.0,-0.0,-0.0,-0.0,-0.0,-0.0,-0.0,-0.0,-0.0,-0.0,-0.0,-0.0,-0.0,-0.0,-0.0,-0.0,-0.0,-0.0,-0.0,-0.0,-0.0,-0.0,-0.0,0.0,0.0,0.0,0.0,0.0,0.0,0.0,0.1894,0.1894,0.1714,0.1585,0.155,0.1706,0.1774,0.1866,0.0,0.0,0.0,0.0,0.0,0.0,0.0,0.0,0.0,0.0,0.0,0.0,0.0,0.0,0.0,0.0,0.0,0.0,0.0,0.0,0.0,0.0,0.0,0.0,0.0,0.0,0.0,0.0,0.0,0.0,0.0,0.0,0.0,0.0,0.0,0.0,0.3439,0.3561,0.3727,0.384,0.3912,0.0,0.0,0.4132,0.4216,0.4273,0.4294,0.429,0.4215,0.3915,0.0,0.3585,0.3585,0.3585,0.3585,0.3585,0.3585,0.3623,0.0,0.0,0.4061,0.442,0.4681,0.4923,0.5159,0.0,0.0,0.5454,0.5464,0.5602,0.5725,0.4656,0.2777,0.018,0.3328,0.5138,0.5138,0.1795,-0.0,-0.0,-0.0,-0.0,-0.0,-0.0,-0.0,-0.0,-0.0,-0.0,-0.0,-0.0,-0.0,0.0,-0.0,-0.0,-0.0,-0.0,-0.0,-0.0,-0.0,-0.0,-0.0,0.0,0.0,0.0,0.0,0.0,0.0,0.1825,0.185,0.1828,0.1714,0.161,0.1593,0.1692,0.1678,0.1729,0.0,0.0,0.0,0.0,0.0,0.0,0.0,0.0,0.0,0.0,0.0,0.0,0.0,0.0,0.0,0.0,0.0,0.0,0.0,0.0,0.0,0.0,0.0,0.0,0.0,0.0,0.0,0.0,0.0,0.0,0.0,0.0,0.0,0.0,0.0,0.0,0.0,0.3267,0.339,0.0,0.0,0.3912,0.4023,0.4099,0.4208,0.427,0.428,0.4153,0.3964,0.3781,0.0,0.3585,0.3585,0.3585,0.3585,0.3585,0.3585,0.3599,0.0,0.3691,0.3822,0.4107,0.4357,0.4654,0.504,0.5252,0.0,0.0,0.0,0.5684,0.5738,0.5201,0.4484,0.3502,0.3773,0.4495,0.5676,0.4222,0.2332,-0.0,-0.0,-0.0,-0.0,-0.0,-0.0,-0.0,-0.0,-0.0,-0.0,-0.0,-0.0,0.0,-0.0,-0.0,-0.0,-0.0,-0.0,-0.0,-0.0,-0.0,-0.0,0.0,0.0,0.0,0.0,0.0,0.1953,0.1825,0.1803,0.1781,0.1736,0.1673,0.1647,0.1667,0.1609,0.1593,0.1674,0.0,0.0,0.0,0.0,0.0,0.0,0.0,0.0,0.0,0.0,0.0,0.0,0.0,0.0,0.0,0.0,0.0,0.0,0.0,0.0,0.0,0.0,0.0,0.0,0.0,0.0,0.0,0.0,0.0,0.0,0.0,0.0,0.0,0.0,0.0,0.0,0.0,0.0,0.0,0.0,0.3759,0.3901,0.3985,0.4099,0.4229,0.4233,0.4008,0.3727,0.0,0.3583,0.3585,0.3585,0.3585,0.3585,0.3585,0.3585,0.3585,0.0,0.3613,0.3719,0.3955,0.4197,0.4504,0.0,0.0,0.536,0.0,0.5692,0.5735,0.5744,0.5744,0.5657,0.5662,0.4482,0.4304,0.5668,0.5668,0.4399,0.1702,0.1165,0.0538,-0.0,-0.0,-0.0,-0.0,-0.0,-0.0,-0.0,-0.0,-0.0,0.0,-0.0,-0.0,-0.0,-0.0,-0.0,-0.0,-0.0,-0.0,-0.0,0.0,0.0,0.0,0.0,0.0,0.0,0.1803,0.1803,0.1803,0.1803,0.1736,0.1673,0.1616,0.1549,0.1483,0.1416,0.0,0.0,0.0,0.0,0.0,0.0,0.0,0.0,0.0,0.0,0.0,0.0,0.0,0.0,0.0,0.0,0.0,0.0,0.0,0.0,0.0,0.0,0.0,0.0,0.0,0.0,0.0,0.0,0.0,0.0,0.0,0.0,0.0,0.0,0.0,0.0,0.0,0.0,0.0,0.0,0.3572,0.3815,0.3815,0.3966,0.4096,0.4086,0.3873,0.3606,0.3613,0.3585,0.3585,0.3585,0.3585,0.3585,0.3585,0.3585,0.3585,0.3585,0.3735,0.3898,0.408,0.4319,0.4558,0.0,0.0,0.5113,0.5349,0.5591,0.5733,0.5733,0.5733,0.0,0.5733,0.5644,0.5649,0.5657,0.5657,0.5657,0.5657,0.3765,0.1881,-0.0,-0.0,-0.0,-0.0,-0.0,-0.0,-0.0,-0.0,-0.0,0.0,-0.0,-0.0,-0.0,-0.0,-0.0,-0.0,-0.0,-0.0,-0.0,0.0,0.0,0.0,0.0,0.0,0.0,0.0,0.1803,0.1803,0.1803,0.1736,0.1692,0.1673,0.1566,0.1502,0.148,0.0,0.0,0.0,0.0,0.0,0.0,0.0,0.0,0.0,0.0,0.0,0.0,0.0,0.0,0.0,0.0,0.0,0.0,0.0,0.0,0.0,0.0,0.0,0.0,0.0,0.0,0.0,0.0,0.0,0.0,0.0,0.0,0.0,0.0,0.0,0.0,0.0,0.0,0.0,0.2017,0.2808,0.3645,0.3524,0.3669,0.3895,0.3923,0.3812,0.3724,0.361,0.3585,0.3585,0.3585,0.3585,0.3585,0.3585,0.3585,0.361,0.3743,0.0,0.0,0.0,0.0,0.0,0.4795,0.5233,0.5534,0.0,0.0,0.5733,0.5733,0.5733,0.5733,0.5733,0.5733,0.5735,0.5738,0.5738,0.5741,0.5657,0.5114,0.4486,0.386,0.1255,-0.0,-0.0,-0.0,-0.0,-0.0,-0.0,-0.0,-0.0,-0.0,-0.0,-0.0,-0.0,-0.0,-0.0,-0.0,-0.0,-0.0,0.0,0.0,0.0,0.0,0.0,0.0,0.0,0.1803,0.1803,0.1803,0.1759,0.1736,0.1711,0.161,0.1524,0.1502,0.0,0.0,0.0,0.0,0.0,0.0,0.0,0.0,0.0,0.0,0.0,0.0,0.0,0.0,0.0,0.0,0.0,0.0,0.0,0.0,0.0,0.0,0.0,0.0,0.0,0.0,0.2357,0.0,0.0,0.0,0.0,0.0,0.0,0.0,0.0,0.0,0.0,0.0,0.0,0.0,0.2111,0.2872,0.0,0.3113,0.3594,0.3715,0.3683,0.3613,0.3591,0.3585,0.3585,0.3585,0.3585,0.3585,0.3585,0.3585,0.3607,0.3735,0.3746,0.0,0.0,0.0,0.0,0.4724,0.0,0.0,0.0,0.5586,0.5646,0.56,0.5681,0.5714,0.5667,0.5708,0.5733,0.5733,0.5733,0.5735,0.5741,0.5741,0.5657,0.5665,0.3317,0.1792,0.1075,0.0359,-0.0,-0.0,-0.0,-0.0,0.0,-0.0,-0.0,-0.0,-0.0,-0.0,-0.0,-0.0,-0.0,-0.0,0.0,0.0,0.0,0.0,0.0,0.0,0.0,0.0,0.1803,0.1803,0.1803,0.1781,0.1714,0.1632,0.1569,0.1524,0.0,0.0,0.0,0.0,0.0,0.0,0.0,0.0,0.0,0.0,0.0,0.2027,0.2027,0.2032,0.2037,0.0,0.0,0.0,0.0,0.0,0.0,0.0,0.0,0.0,0.1255,0.1321,0.0,0.0,0.0,0.0,0.0,0.0,0.0,0.0,0.0,0.0,0.0,0.0,0.0,0.0,0.0,0.0,0.0,0.2257,0.3001,0.3417,0.3442,0.3311,0.3534,0.3566,0.0,0.3572,0.3577,0.3585,0.3585,0.3585,0.3588,0.3596,0.3604,0.0,0.0,0.4075,0.0,0.0,0.4991,0.0,0.5053,0.5344,0.5491,0.5377,0.5581,0.5657,0.5456,0.5646,0.5711,0.5722,0.5722,0.5725,0.5733,0.5733,0.5738,0.5657,0.5657,0.4755,0.3047,0.1255,0.0359,0.0,0.009,-0.0,-0.0,-0.0,-0.0,-0.0,-0.0,-0.0,-0.0,-0.0,-0.0,-0.0,0.0,0.0,0.0,0.0,0.0,0.0,0.0,0.0,0.0,0.0,0.1803,0.1803,0.1781,0.1677,0.1616,0.0,0.0,0.0,0.0,0.0,0.0,0.0,0.0,0.0,0.0,0.0,0.0,0.1346,0.1346,0.1339,0.1318,0.1408,0.0,0.0,0.0,0.0,0.0,0.0,0.0,0.0,0.0737,0.0348,0.0,0.0,0.0,0.0,0.0159,-0.0,0.0,0.0,0.0,0.0,0.0,0.0,0.0,0.0,0.0365,0.0411,0.0415,0.0,0.1103,0.2663,0.2602,0.2401,0.0,0.3489,0.3554,0.3444,0.0,0.0,0.3585,0.3585,0.3613,0.3757,0.0,0.3903,0.4053,0.0,0.0,0.5029,0.5216,0.5317,0.529,0.5363,0.5401,0.5371,0.5423,0.5442,0.5415,0.5439,0.5499,0.5502,0.5507,0.564,0.5733,0.5733,0.5735,0.5735,0.5662,0.5484,0.5025,0.4587,0.3593,0.2151,0.0628,-0.0,-0.0,-0.0,-0.0,-0.0,-0.0,-0.0,-0.0,-0.0,-0.0,-0.0,0.0,0.0,0.0,0.0,0.0,0.0,0.0,0.0,0.0,0.0,0.0,0.0,0.0,0.0,0.0,0.0,0.0,0.0,0.0,0.0,0.0,0.0,0.0,0.0,0.0,0.0,0.0,0.0,0.0,0.0579,0.0,0.0,0.0,0.0,0.0,0.0,0.0,0.0,0.0,0.0,0.0288,0.0,0.0,0.0,0.0,0.0,-0.0,-0.0,0.0,-0.0,-0.0,-0.0,0.0,0.0,0.0,0.0,-0.0,-0.0,-0.0,-0.0,0.0245,0.1321,0.1587,0.1767,0.2315,0.0,0.0,0.0,0.0,0.0,0.0,0.0,0.0,0.0,0.3773,0.0,0.0,0.0,0.4901,0.5086,0.5214,0.5265,0.0,0.5254,0.5262,0.5211,0.5309,0.5344,0.5287,0.5339,0.5401,0.5466,0.5466,0.5553,0.5733,0.5733,0.5733,0.5733,0.5744,0.5657,0.5741,0.5665,0.5124,0.4125,0.3051,0.1615,-0.0,-0.0,-0.0,-0.0,-0.0,-0.0,-0.0,-0.0,-0.0,-0.0,0.0,0.0,0.0,0.0,0.0,0.0,0.0,0.0,0.0,0.0,0.0,0.0,0.0,0.0,0.0,0.0,0.0,0.0,0.0,0.0,0.0,0.0,0.0,0.0,0.0,0.0,0.0,0.0,0.0,0.0,0.0,0.0,0.0034,0.0,0.0,0.0,0.0,0.0,0.0,0.0,0.0039,0.0,0.0,0.0,0.0,0.0,0.0,0.0,0.0,0.0038,0.0039,0.0039,-0.0,0.0,0.0,0.0,0.0,0.0,-0.0,-0.0,-0.0,-0.0,0.0899,0.167,0.1507,0.0,0.0,0.0,0.0,0.0,0.0,0.3599,0.0,0.0,0.0,0.0,0.4461,0.4703,0.4879,0.5002,0.5102,0.0,0.5026,0.5105,0.5121,0.5023,0.5203,0.5271,0.5167,0.526,0.5322,0.5341,0.5341,0.545,0.5676,0.5697,0.5716,0.5733,0.5735,0.5735,0.5733,0.5744,0.5657,0.5657,0.0,0.0,0.0538,0.018,-0.0,-0.0,-0.0,-0.0,-0.0,-0.0,-0.0,-0.0,0.0,0.0,0.0,0.0,0.0,0.0,0.0,0.0,0.0,0.0,0.0,0.0,0.0,0.0,0.0,0.0,0.0,0.0,0.0,0.0,0.0,0.0,0.0,0.0,0.0,0.0,0.0,0.0,0.0,0.0,0.0269,0.0269,0.0269,0.0,0.0,0.0,0.0,0.0,0.0,0.0256,0.027,0.0,0.0,0.0,0.0,0.0,0.0,0.0,0.0,0.0241,0.0249,0.0221,0.0037,0.0,0.0,0.0,0.0,0.0,-0.0,-0.0,-0.0,-0.0,0.1638,0.3018,0.1952,0.0,0.0,0.0,0.0,0.0,0.0,0.3721,0.3785,0.0,0.0,0.4349,0.0,0.0,0.4879,0.5002,0.0,0.5037,0.5018,0.5031,0.5034,0.5018,0.505,0.5064,0.5045,0.5061,0.5116,0.5211,0.5214,0.5281,0.5423,0.5526,0.5629,0.5733,0.5741,0.5741,0.5733,0.5744,0.5744,0.5735,0.0,0.4755,0.3042,0.0896,-0.0,-0.0,-0.0,-0.0,-0.0,-0.0,-0.0,-0.0,0.0,0.0,0.0,0.0,0.0,0.0,0.0,0.0,0.0,0.0,0.0,0.0,0.0,0.0,0.0,0.0,0.0,0.0,0.0,0.0,0.0,0.0,0.0,0.0,0.0,0.0,0.0,0.0,0.0,0.0374,0.0417,0.0397,0.0403,0.0403,0.0,0.0,0.0,0.0,0.0,0.042,0.0,0.0,0.0,0.0,0.0,0.0,0.0,0.0,0.0,0.0,0.0411,0.0386,0.0289,0.0,0.0,0.0,0.0,0.0,-0.0,-0.0,-0.0,-0.0,0.0837,0.1865,0.2602,0.0,0.0,0.0,0.0,0.0,0.0,0.0,0.3878,0.4018,0.0,0.4425,0.4784,0.4833,0.4879,0.0,0.0,0.5018,0.5018,0.5018,0.5018,0.5018,0.5018,0.5018,0.5018,0.5018,0.504,0.5094,0.5094,0.5151,0.5271,0.5325,0.5415,0.5537,0.5608,0.5553,0.5638,0.5708,0.5738,0.5733,0.0,0.5387,0.4757,0.3592,0.1886,-0.0,-0.0,-0.0,-0.0,-0.0,-0.0,-0.0,0.0,0.0,0.0,0.0,0.0,0.0,0.0,0.0,0.0,0.0,0.0,0.0,0.0,0.0,0.0,0.0,0.0,0.0,0.0,0.0,0.0,0.0,0.0,0.0,0.0,0.0,0.0284,0.0392,0.0403,0.0436,0.0493,0.0516,0.0498,0.0,0.0,0.0,0.0,0.0,0.0504,0.0504,0.0,0.0,0.0,0.0,0.0,0.0,0.0,0.0,0.0,0.0,0.0,0.0,0.0,0.0,0.0,0.019,0.0079,-0.0,-0.0,0.009,0.0142,0.0145,0.0,0.0842,0.2719,0.0,0.0,0.0,0.0,0.0,0.0,0.3719,0.0,0.4319,0.4384,0.4499,0.483,0.4876,0.4912,0.5007,0.5018,0.5018,0.5018,0.5018,0.5018,0.5018,0.5018,0.5018,0.5018,0.5018,0.5018,0.5018,0.5018,0.5059,0.5146,0.5146,0.5222,0.5371,0.5464,0.551,0.5513,0.5605,0.5662,0.5692,0.5609,0.5633,0.5665,0.522,0.3326,0.0629,0.018,-0.0,-0.0,-0.0,-0.0,-0.0,0.0,0.0,0.0,0.0,0.0,0.0,0.0,0.0,0.0,0.0,0.0,0.0,0.0,0.0,0.0,0.0,0.0,0.0,0.0,0.0,0.0,0.0,0.0,0.0,0.0,0.0383,0.0397,0.0397,0.0395,0.0436,0.0492,0.0494,0.0511,0.0504,0.0,0.0,0.0,0.0,0.0,0.0504,0.0504,0.0,0.0,0.0,0.0,0.0,0.0,0.0,0.0,0.0,0.0,0.0,0.0,0.0,0.0478,0.0469,0.0257,-0.0,-0.0,0.0315,0.0644,0.0642,0.0957,0.0,0.1846,0.2704,0.0,0.0,0.0,0.0,0.0,0.3841,0.4077,0.4621,0.4698,0.4716,0.4969,0.0,0.5007,0.5015,0.5018,0.5018,0.5018,0.5018,0.5018,0.5018,0.5018,0.5018,0.5018,0.5018,0.5018,0.5018,0.5018,0.5021,0.5029,0.5029,0.5143,0.5368,0.5377,0.5382,0.5382,0.5393,0.5458,0.5478,0.5478,0.5542,0.5555,0.3853,0.2957,0.251,0.0718,-0.0,-0.0,-0.0,-0.0,-0.0,0.0,0.0,0.0,0.0,0.0,0.0,0.0,0.0,0.0,0.0,0.0,0.0,0.0,0.0,0.0,0.0,0.0,0.0,0.0,0.0,0.0,0.0,0.0,0.0408,0.04,0.04,0.0392,0.0396,0.0396,0.041,0.0437,0.0485,0.0,0.0,0.0,0.0,0.0,0.0,0.0,0.0504,0.0504,0.0504,0.0,0.0,0.0,0.0,0.0,0.0,0.0,0.0,0.0504,0.0,0.0,0.0,0.0,0.0,0.0426,0.0297,0.0243,0.0388,0.055,0.0743,0.0,0.0,0.0,0.0,0.0,0.0,0.0,0.0,0.0,0.0,0.4156,0.4485,0.4676,0.4738,0.4982,0.5018,0.5018,0.5018,0.5018,0.5018,0.5018,0.5018,0.5018,0.5018,0.5018,0.5018,0.5018,0.5018,0.5018,0.5018,0.5018,0.5018,0.5018,0.5018,0.5061,0.5151,0.5222,0.5254,0.5257,0.5333,0.5396,0.5436,0.5436,0.5557,0.5617,0.4906,0.323,0.1035,0.0259,-0.0,-0.0,-0.0,-0.0,-0.0,0.0,0.0,0.0,0.0,0.0,0.0,0.0,0.0,0.0,0.0,0.0,0.0,0.0,0.0,0.0,0.0,0.0,0.0,0.0,0.0,0.0,0.0,0.0,0.0405,0.0405,0.0405,0.0393,0.0391,0.0391,0.0411,0.0394,0.0,0.0,0.0,0.0,0.0,0.0,0.0,0.0,0.0,0.0504,0.0504,0.0,0.0,0.0,0.0,0.0,0.0,0.0,0.0,0.0504,0.0,0.0,0.0,0.0,0.0,0.0,0.0516,0.0465,0.05,0.0539,0.0,0.0,0.0,0.0,0.0,0.0,0.0,0.0,0.0,0.0,0.0,0.0,0.0,0.4671,0.4738,0.4982,0.5018,0.5018,0.5018,0.5018,0.5018,0.5018,0.5018,0.5018,0.5018,0.5018,0.5018,0.5018,0.5018,0.5018,0.5018,0.5018,0.5018,0.5018,0.5018,0.5018,0.5018,0.5097,0.5132,0.5135,0.5219,0.5279,0.5311,0.5397,0.543,0.565,0.5661,0.3416,-0.0,-0.0,-0.0,-0.0,-0.0,-0.0,-0.0,0.0,0.0,0.0,0.0,0.0,0.0,0.0,0.0,0.0,0.0,0.0,0.0,0.0,0.0,0.0,0.0,0.0,0.0,0.0,0.0,0.0,0.0,0.0,0.0405,0.0405,0.0405,0.0405,0.0405,0.0405,0.0391,0.0394,0.0478,0.0,0.0,0.0,0.0,0.0,0.0,0.0,0.0,0.0504,0.0504,0.0504,0.0,0.0,0.0,0.0,0.0,0.0,0.0,0.0504,0.0504,0.0,0.0,0.0,0.0,0.056,0.059,0.0582,0.0651,0.0732,0.0,0.0,0.0,0.0,0.0,0.0,0.0,0.0,0.3912,0.4094,0.0,0.0,0.4643,0.4723,0.4738,0.498,0.5015,0.5018,0.5018,0.5018,0.5018,0.5018,0.5018,0.5018,0.5018,0.5018,0.5018,0.5018,0.5018,0.5018,0.5018,0.5018,0.5018,0.5018,0.5018,0.5018,0.5018,0.5018,0.5018,0.5018,0.5018,0.5078,0.5184,0.5275,0.5344,0.5368,0.5566,0.3455,-0.0,-0.0,-0.0,-0.0,-0.0,-0.0,-0.0,0.0,0.0,0.0,0.0,0.0,0.0,0.0,0.0,0.0,0.0,0.0,0.0,0.0,0.0,0.0,0.0,0.0,0.0,0.0,0.0,0.0,0.0,0.0,0.0,0.0,0.0,0.0405,0.0405,0.0405,0.0403,0.0,0.0,0.0,0.0434,0.0,0.0,0.0,0.0,0.0,0.0,0.0,0.0486,0.0504,0.0,0.0,0.0,0.0,0.0,0.0,0.0,0.0,0.0,0.0,0.0,0.0,0.0,0.056,0.059,0.0582,0.0666,0.0,0.0779,0.0,0.0,0.0,0.0,0.0,0.0,0.0,0.4178,0.4126,0.0,0.0,0.4382,0.4545,0.4708,0.4866,0.4961,0.5018,0.5018,0.5018,0.5018,0.5018,0.5018,0.5018,0.5018,0.5018,0.5018,0.5018,0.5018,0.5018,0.5018,0.5018,0.5018,0.5018,0.5018,0.5018,0.5018,0.5018,0.5018,0.5018,0.5018,0.5034,0.5067,0.5072,0.4451,0.3275,0.2163,0.1063,-0.0,-0.0,-0.0,-0.0,-0.0,-0.0,-0.0,0.0,0.0,0.0,0.0,0.0,0.0,0.0,0.0,0.0,0.0,0.0,0.0,0.0,0.0,0.0,0.0,0.0,0.0,0.0,0.0,0.0,0.0,0.0,0.0,0.0,0.0427,0.0405,0.0,0.0,0.0,0.0,0.0,0.0,0.0405,0.0,0.0405,0.0,0.0,0.0,0.0,0.0446,0.0463,0.0487,0.0,0.0,0.0,0.0,0.0,0.0,0.0,0.0,0.0,0.0,0.0,0.0,0.0558,0.0577,0.0611,0.0612,0.07,0.0,0.081,0.0853,0.1228,0.2481,0.0,0.0,0.0,0.0,0.4221,0.4194,0.4211,0.0,0.4352,0.4488,0.4624,0.4746,0.4828,0.489,0.4939,0.4944,0.4963,0.5012,0.5018,0.5018,0.5018,0.5018,0.5018,0.5018,0.5018,0.5018,0.5018,0.5018,0.5018,0.5018,0.5018,0.5018,0.5018,0.5018,0.5018,0.5018,0.5018,0.5018,0.4937,0.4309,0.3052,0.1567,0.1884,0.1198,-0.0,-0.0,-0.0,-0.0,-0.0,-0.0,-0.0,0.0,0.0,0.2459,0.1891,0.0,0.0,0.0,0.0,0.0,0.0,0.0,0.1163,0.0,0.0,0.0,0.1094,0.0,0.0,0.0,0.0,0.0,0.0,0.0,0.0,0.0,0.0,0.0,0.0,0.0,0.0,0.0,0.0,0.0401,0.0401,0.0,0.0401,0.0,0.0,0.0,0.0,0.0391,0.0435,0.0489,0.0489,0.0,0.0,0.0,0.0,0.0,0.0,0.0,0.0,0.0,0.0,0.0,0.0572,0.0603,0.0601,0.0699,0.0,0.0,0.089,0.0963,0.0,0.2534,0.359,0.435,0.4342,0.0,0.4167,0.4278,0.4208,0.4205,0.442,0.4463,0.451,0.4693,0.4718,0.4694,0.4806,0.4817,0.486,0.4974,0.4982,0.4982,0.4982,0.4993,0.4999,0.4999,0.5012,0.5018,0.5018,0.5018,0.5018,0.5018,0.5018,0.5018,0.5018,0.5018,0.5018,0.5018,0.5018,0.4937,0.4779,0.3209,0.1566,0.0236,0.3301,0.275,-0.0,-0.0,-0.0,-0.0,-0.0,-0.0,-0.0,0.0,0.0,0.2102,0.1711,0.0,0.0,0.0,0.0,0.0,0.1205,0.123,0.123,0.1163,0.1094,0.0,0.1094,0.105,0.0,0.0,0.0,0.0,0.0,0.0,0.0,0.0,0.0,0.0,0.0,0.0,0.0,0.0,0.0,0.0,0.0485,0.0,0.0485,0.0,0.0,0.0,0.0389,0.0389,0.0406,0.0431,0.0431,0.0447,0.0,0.0,0.0,0.0,0.0,0.0,0.0,0.0504,0.052,0.057,0.0518,0.055,0.0597,0.0,0.0768,0.0,0.0,0.1331,0.1807,0.2012,0.2959,0.3955,0.4466,0.4408,0.427,0.4298,0.4278,0.4278,0.4327,0.4412,0.448,0.4504,0.4662,0.4734,0.4689,0.4692,0.4703,0.473,0.4732,0.4732,0.4732,0.4819,0.4874,0.4874,0.4966,0.5018,0.5018,0.5018,0.5018,0.5018,0.5018,0.5018,0.5018,0.5018,0.5018,0.5018,0.5018,0.454,0.3595,0.2815,0.1565,0.0078,0.0785,0.0628,-0.0,-0.0,-0.0,-0.0,-0.0,-0.0,-0.0,0.0,0.0,0.0,0.0,0.0,0.0,0.0,0.0,0.1519,0.1185,0.1294,0.1316,0.1116,0.1094,0.0,0.0,0.1094,0.1094,0.0,0.0,0.0,0.0,0.0,0.0,0.0,0.0,0.0,0.0,0.0,0.0,0.0,0.0,0.0,0.0585,0.0,0.0495,0.0,0.0,0.0,0.0408,0.0408,0.0401,0.0402,0.0402,0.0419,0.0445,0.0487,0.0,0.0,0.0,0.0,0.0,0.0,0.0,0.0561,0.056,0.0555,0.0598,0.0,0.0,0.0,0.0859,0.0,0.1537,0.1801,0.2526,0.3364,0.4254,0.4394,0.43,0.43,0.43,0.43,0.43,0.4349,0.439,0.439,0.4444,0.4504,0.4629,0.4637,0.466,0.472,0.4726,0.4726,0.4726,0.4711,0.4749,0.4749,0.4809,0.4844,0.4844,0.4844,0.4844,0.4844,0.4901,0.4931,0.4931,0.4988,0.5018,0.5018,0.5018,0.4698,0.4068,0.3839,0.274,0.1174,0.0313,0.047,0.1097,0.0314,-0.0,-0.0,-0.0,-0.0,-0.0,0.0,0.0,0.0,0.0,0.0,0.0,0.0,0.0,0.0,0.1385,0.1469,0.1444,0.1205,0.1139,0.1116,0.0,0.0,0.0,0.1094,0.0,0.0,0.0,0.0,0.0,0.0,0.0,0.0,0.0,0.0,0.0,0.0,0.0,0.0,0.0698,0.0,0.0,0.0,0.0,0.0405,0.0405,0.0405,0.0398,0.0397,0.0397,0.039,0.0418,0.0469,0.0484,0.0496,0.0489,0.0,0.0,0.0,0.0,0.0509,0.0568,0.0601,0.0599,0.0,0.0,0.0821,0.0882,0.0916,0.0,0.182,0.2277,0.2831,0.3945,0.4191,0.4276,0.4298,0.43,0.43,0.43,0.43,0.43,0.43,0.43,0.4336,0.4428,0.4439,0.4482,0.4654,0.4662,0.4662,0.4662,0.4682,0.4693,0.4693,0.4715,0.4726,0.4726,0.4726,0.4726,0.4726,0.4754,0.4803,0.4803,0.4906,0.4953,0.4955,0.4977,0.4996,0.5018,0.5026,0.4235,0.2817,0.1409,0.133,0.1956,0.1176,0.0471,-0.0,-0.0,-0.0,-0.0,0.0,0.0,0.0,0.0,0.0,0.0,0.0,0.0,0.0,0.0,0.1806,0.1689,0.1466,0.1338,0.123,0.1116,0.1094,0.1094,0.0,0.0,0.0,0.0,0.0,0.0,0.0,0.0,0.0,0.0,0.0,0.0,0.0,0.0,0.0,0.0698,0.0,0.0,0.0,0.0,0.0405,0.0405,0.0405,0.0407,0.0411,0.0411,0.0408,0.0412,0.0416,0.0449,0.0493,0.0497,0.0516,0.0,0.0,0.0,0.0505,0.0509,0.0548,0.0591,0.0,0.0,0.0821,0.0,0.09,0.1081,0.0,0.0,0.2741,0.0,0.3869,0.4172,0.4281,0.43,0.43,0.43,0.43,0.43,0.43,0.43,0.4306,0.4322,0.4322,0.433,0.4346,0.4346,0.4346,0.4346,0.4439,0.4493,0.4493,0.4665,0.4726,0.4726,0.4726,0.4726,0.4726,0.4742,0.4748,0.4748,0.4767,0.4776,0.4778,0.4811,0.4917,0.5018,0.5018,0.4859,0.4623,0.4394,0.2741,0.0627,0.3299,0.2592,-0.0,-0.0,-0.0,-0.0,0.0,0.0,0.0,0.0,0.0,0.0,0.0,0.0,0.0,0.0,0.0,0.1759,0.138,0.125,0.1163,0.1094,0.0961,0.0,0.0,0.0,0.0,0.0,0.0,0.0,0.0,0.0,0.0,0.0,0.0,0.0,0.0,0.1045,0.1029,0.0,0.0,0.0,0.0,0.0,0.0,0.0405,0.0405,0.0393,0.0408,0.0,0.0402,0.0405,0.0405,0.0,0.0449,0.0481,0.0501,0.0515,0.0499,0.0,0.0,0.0,0.0534,0.0,0.0686,0.0755,0.0821,0.0,0.0898,0.0957,0.1256,0.0,0.2655,0.3045,0.364,0.4075,0.4072,0.4151,0.4197,0.4197,0.4257,0.43,0.43,0.43,0.43,0.43,0.43,0.43,0.43,0.43,0.43,0.43,0.4346,0.4376,0.4376,0.4425,0.4455,0.4455,0.4455,0.4455,0.4455,0.4518,0.4657,0.4726,0.4726,0.4726,0.4729,0.4779,0.4863,0.4917,0.4988,0.5018,0.5018,0.5026,0.4157,0.2738,0.2354,0.2435,0.2592,0.0707,-0.0,-0.0,0.0,0.0,0.0,0.0,0.0,0.0,0.0,0.0,0.0,0.0,0.0,0.1784,0.1316,0.0,0.0,0.0,0.0847,0.0,0.0,0.0,0.0,0.0,0.0,0.0,0.0,0.0,0.0,0.0,0.0,0.0,0.0804,0.1026,0.1076,0.0,0.0934,0.0,0.0,0.0,0.0,0.0441,0.0418,0.0409,0.0455,0.0421,0.0403,0.039,0.0,0.0,0.0,0.0467,0.0482,0.0487,0.0484,0.0493,0.0,0.0,0.0,0.0,0.0,0.0,0.0801,0.0869,0.0892,0.0954,0.0,0.0,0.2482,0.0,0.3427,0.3798,0.3887,0.3969,0.4072,0.4072,0.4172,0.4254,0.4254,0.4281,0.43,0.43,0.43,0.43,0.43,0.43,0.43,0.43,0.43,0.43,0.43,0.43,0.43,0.43,0.43,0.43,0.43,0.4384,0.4471,0.4564,0.4564,0.4564,0.4567,0.4686,0.4741,0.4751,0.4936,0.5018,0.5018,0.5023,0.5026,0.4789,0.2276,0.2277,0.3459,0.0942,-0.0,-0.0,0.0,0.0,0.0,0.0,0.0,0.0,0.0,0.0,0.0,0.0,0.0,0.1736,0.151,0.1361,0.123,0.1116,0.0847,0.0,0.0,0.0,0.0,0.0,0.0,0.0,0.0,0.0,0.0,0.0,0.0,0.0,0.0528,0.0864,0.0865,0.0641,0.0831,0.0726,0.0405,0.0,0.0,0.0579,0.0453,0.0479,0.0591,0.0523,0.0441,0.0392,0.0,0.0,0.0,0.0,0.0,0.0429,0.0486,0.0495,0.0495,0.0,0.0,0.0,0.0,0.0723,0.0,0.0884,0.0,0.0,0.0,0.0,0.2127,0.3142,0.3203,0.3203,0.3705,0.3842,0.3883,0.3883,0.4047,0.4126,0.4126,0.4227,0.43,0.43,0.43,0.43,0.43,0.43,0.43,0.43,0.43,0.43,0.43,0.43,0.43,0.43,0.43,0.43,0.43,0.4306,0.4314,0.4319,0.4319,0.4319,0.4322,0.4436,0.449,0.451,0.4863,0.5018,0.5018,0.5018,0.5029,0.4964,0.4805,0.2907,0.0236,0.0079,-0.0,-0.0,0.0,0.0,0.0,0.0,0.0,0.0,0.0,0.0,0.0,0.0,0.0,0.0,0.0,0.1227,0.1163,0.1094,0.1005,0.0,0.0,0.0,0.0,0.0,0.0,0.0,0.0,0.0,0.0,0.0,0.0,0.0187,0.0251,0.0723,0.0795,0.0544,0.0832,0.0792,0.0457,0.0425,0.0,0.0455,0.043,0.0417,0.0,0.0457,0.0452,0.0472,0.0454,0.0,0.0,0.0,0.0,0.0479,0.0489,0.0492,0.0492,0.0492,0.0528,0.0,0.0,0.0,0.0,0.0806,0.0846,0.0982,0.1171,0.1512,0.1903,0.2298,0.2745,0.3021,0.2903,0.3362,0.3765,0.3819,0.392,0.4001,0.4001,0.411,0.4189,0.4183,0.4254,0.43,0.43,0.43,0.43,0.43,0.43,0.43,0.43,0.43,0.43,0.43,0.43,0.43,0.43,0.43,0.43,0.43,0.43,0.43,0.4306,0.4417,0.4471,0.449,0.4776,0.4836,0.4915,0.4999,0.504,0.4805,0.2594,0.1021,-0.0,-0.0,-0.0,-0.0,0.0,0.0,0.0,0.1383,0.0,0.1762,0.1736,0.174,0.0,0.0,0.0,0.0,0.0,0.0,0.1072,0.0983,0.0961,0.0,0.0,0.0,0.0,0.0,0.0,0.0,0.0,0.0,0.0,0.0,0.0,0.0,0.0,0.0546,0.0653,0.0479,0.0821,0.0776,0.0,0.0,0.0,0.0472,0.0,0.0446,0.0498,0.0,0.0489,0.0504,0.0,0.0,0.0,0.0,0.0,0.0,0.0504,0.0501,0.0494,0.0504,0.0536,0.0,0.0605,0.0,0.0,0.0,0.0,0.0889,0.0886,0.0,0.1821,0.2068,0.235,0.2627,0.2901,0.3303,0.3645,0.3697,0.3741,0.3821,0.3821,0.3928,0.3874,0.3484,0.387,0.4181,0.4313,0.4248,0.4248,0.4316,0.4316,0.0,0.4248,0.4248,0.4265,0.4238,0.4238,0.4259,0.43,0.43,0.43,0.43,0.43,0.43,0.4303,0.4379,0.4417,0.4428,0.4558,0.4759,0.488,0.4969,0.4325,0.3107,0.0853,-0.0,-0.0,-0.0,-0.0,-0.0,0.1208,0.1185,0.125,0.1466,0.1383,0.1363,0.1557,0.1361,0.1208,0.1208,0.0,0.0,0.0,0.0,0.0,0.0,0.0,0.0604,0.0405,0.0,0.0,0.0,0.0,0.0,0.0,0.0,0.0,0.0,0.0,0.0,0.0,0.0,0.0452,0.0404,0.0754,0.0703,0.0406,0.0,0.0476,0.059,0.0,0.0584,0.0691,0.0,0.0,0.0,0.0569,0.0554,0.0,0.0576,0.0,0.0,0.0,0.0484,0.0498,0.0495,0.0504,0.0,0.0,0.0,0.0,0.0,0.0,0.0,0.0875,0.0,0.1874,0.2548,0.2065,0.2009,0.3685,0.3805,0.3585,0.3585,0.3574,0.3597,0.3597,0.3688,0.3322,0.2269,0.3132,0.3939,0.4262,0.42,0.4136,0.4262,0.4262,0.42,0.4075,0.4075,0.4125,0.411,0.4115,0.4175,0.4295,0.43,0.43,0.43,0.43,0.43,0.43,0.43,0.43,0.4241,0.4235,0.4501,0.498,0.4913,0.2965,-0.0,-0.0,-0.0,-0.0,-0.0,-0.0,-0.0,0.0803,0.0847,0.0936,0.1227,0.1252,0.1274,0.1363,0.1274,0.1208,0.0,0.0,0.0,0.0,0.0,0.0,0.0,0.0,0.0,0.0202,-0.0112,-0.009,0.0382,-0.0112,-0.018,0.0,0.0,0.0,0.0,0.0,0.0,0.0,0.0,0.0,0.0,0.0557,0.0534,0.0396,0.0405,0.0,0.045,0.043,0.0474,0.0,0.0,0.0,0.0,0.0,0.0632,0.0637,0.0,0.0623,0.0548,0.0,0.0,0.0494,0.0502,0.0536,0.0568,0.052,0.0,0.0,0.0,0.0,0.0,0.0,0.0,0.1448,0.2841,0.2591,0.2501,0.3735,0.3752,0.3585,0.3585,0.3615,0.3581,0.3581,0.2861,0.2619,0.3266,0.279,0.2833,0.4014,0.4136,0.3824,0.0,0.3077,0.3324,0.3939,0.3939,0.3952,0.3985,0.4072,0.4134,0.4167,0.4257,0.43,0.43,0.43,0.43,0.43,0.43,0.3694,0.2684,0.271,0.3357,0.4314,0.2228,0.0805,-0.0,-0.0,-0.0,-0.0,-0.0,-0.0,-0.0,0.0559,0.0581,0.0626,0.0828,0.0938,0.1005,0.105,0.1116,0.1163,0.0,0.0,0.0,0.0,0.0,0.0,0.0,0.0,0.0,0.0314,-0.0134,-0.0112,0.0493,0.0045,-0.0045,0.0,0.0,0.0,0.0,0.0,0.0,0.0,0.0,0.0,0.0,0.0517,0.0472,0.0405,0.0405,0.0,0.0,0.0443,0.0,0.0,0.0573,0.0609,0.0,0.0,0.0,0.0718,0.0688,0.0798,0.0,0.0,0.0794,0.0815,0.0778,0.0831,0.0,0.0,0.0,0.0,0.0,0.0,0.0,0.1043,0.131,0.188,0.0,0.323,0.3333,0.3904,0.386,0.3691,0.3691,0.3638,0.3585,0.3591,0.3017,0.2648,0.2932,0.2693,0.2905,0.3803,0.3443,0.2903,0.2309,0.2728,0.3264,0.3736,0.3789,0.3811,0.3857,0.3928,0.399,0.4039,0.4162,0.4224,0.4224,0.4276,0.43,0.43,0.43,0.383,0.2956,0.2351,0.2221,0.237,0.0697,-0.0,-0.0,-0.0,-0.0,-0.0,-0.0,-0.0,-0.0,0.0,0.036,0.036,0.0405,0.0538,0.0669,0.0669,0.0871,0.1027,0.0,0.0,0.0,0.0,0.0,0.0,0.0,0.0,0.0,0.0601,-0.0,-0.0022,0.0714,0.0268,0.0112,0.0405,0.0,0.0,0.0,0.0,0.0,0.0,0.0,0.0,0.0,0.054,0.045,0.0405,0.0409,0.0404,0.0412,0.0467,0.0503,0.0,0.0,0.0654,0.0601,0.0695,0.0699,0.0683,0.071,0.096,0.0,0.1181,0.1179,0.1232,0.1197,0.1249,0.0,0.0856,0.107,0.0,0.0,0.0873,0.0,0.1463,0.2093,0.272,0.0,0.3767,0.4078,0.4165,0.3944,0.3779,0.3793,0.3691,0.3588,0.3596,0.3591,0.319,0.2125,0.2965,0.3588,0.3596,0.2633,0.2014,0.2015,0.2923,0.349,0.3596,0.3588,0.3632,0.379,0.3804,0.3806,0.3914,0.4037,0.4099,0.4099,0.4221,0.4281,0.4281,0.4295,0.4306,0.4244,0.2758,0.1279,-0.0,-0.0,-0.0,-0.0,-0.0,-0.0,-0.0,-0.0,-0.0,-0.0,0.0045,0.0067,0.0157,0.036,0.0427,0.0449,0.0449,0.0494,0.0539,0.0539,0.0,0.0,0.0,0.0,0.0,0.0,0.0,0.0,0.0579,0.0179,0.0247,0.0983,0.0314,0.009,0.0472,0.0067,0.0,0.0,0.0,0.0,0.0,0.0,0.0,0.0,0.045,0.0405,0.0406,0.041,0.0399,0.041,0.0475,0.0,0.0579,0.0621,0.0649,0.0667,0.0678,0.0695,0.0712,0.0717,0.0742,0.0881,0.0,0.1044,0.0899,0.1681,0.1664,0.1435,0.1717,0.1884,0.1909,0.1833,0.0,0.0,0.1974,0.2207,0.2553,0.0,0.3223,0.345,0.3924,0.3912,0.3782,0.3779,0.3691,0.3585,0.3588,0.3585,0.3527,0.3302,0.3471,0.3585,0.3588,0.336,0.3249,0.3256,0.2856,0.291,0.3585,0.3585,0.3593,0.3615,0.3762,0.3823,0.3848,0.3909,0.3969,0.3971,0.4094,0.4153,0.4156,0.4257,0.4303,0.4236,0.2753,0.1276,-0.0,-0.0,-0.0,-0.0,-0.0,-0.0,-0.0,-0.0,-0.0,-0.0,-0.0225,-0.0202,-0.0157,-0.0022,0.0112,0.0202,0.0202,0.0315,0.0387,0.0,0.0,0.0,0.0,0.0,0.0,0.0,0.0,0.0,0.0,0.0157,0.018,0.0784,0.0382,0.0247,0.045,0.0292,0.0315,0.0,0.0,0.0,0.0,0.0,0.0,0.0,0.0,0.0391,0.0406,0.0406,0.04,0.0407,0.0508,0.0,0.059,0.065,0.0684,0.0697,0.0697,0.0706,0.0719,0.0719,0.1018,0.0,0.1311,0.1364,0.1497,0.0,0.1922,0.1851,0.206,0.2293,0.2455,0.2279,0.0,0.0,0.0,0.2667,0.291,0.3453,0.3565,0.3679,0.4046,0.3924,0.3785,0.38,0.3704,0.3585,0.3585,0.3585,0.3585,0.3585,0.3585,0.3585,0.3585,0.3585,0.336,0.2747,0.291,0.3188,0.3583,0.3585,0.3585,0.3585,0.364,0.3727,0.3727,0.3784,0.3844,0.3846,0.3969,0.4058,0.4118,0.4181,0.4243,0.4233,0.3491,0.2348,0.1007,0.0269,-0.0,-0.0,-0.0,-0.0,-0.0,-0.0,-0.0,-0.0,-0.0427,-0.0405,-0.0405,-0.0405,-0.0225,-0.0067,-0.0067,0.0112,0.0231,0.0,0.0,0.0,0.0,0.0,0.0,0.0,0.0,0.0,0.0,0.0069,0.0046,0.0518,0.0427,0.0382,0.0427,0.0517,0.0607,0.0,0.0,0.0,0.0,0.0,0.0,0.0,0.0,0.0,0.0,0.0,0.0,0.0445,0.0,0.0656,0.0704,0.0678,0.0755,0.08,0.0717,0.0719,0.0719,0.0809,0.1344,0.191,0.163,0.1781,0.0,0.0,0.0,0.2225,0.0,0.0,0.3002,0.0,0.0,0.2573,0.0,0.0,0.0,0.3853,0.3975,0.0,0.0,0.0,0.0,0.0,0.0,0.0,0.0,0.3569,0.0,0.3585,0.3585,0.3585,0.3585,0.3585,0.3193,0.2238,0.3023,0.3585,0.3585,0.3585,0.3585,0.3585,0.3585,0.3585,0.3585,0.3732,0.3779,0.3779,0.3844,0.3952,0.405,0.4096,0.4172,0.427,0.4292,0.3627,0.2417,0.1277,0.0471,-0.0,-0.0,-0.0,-0.0,-0.0,-0.0,-0.0,-0.0495,-0.045,-0.0405,-0.0405,-0.0382,-0.036,-0.036,-0.0337,-0.0301,0.0,0.0,0.0,0.0,0.0,0.0,0.0,0.0,0.0,-0.005,-0.0025,0.0193,0.0654,0.045,0.036,0.0495,0.027,0.0247,0.0427,0.0,0.0,0.0,0.0,0.0406,0.0412,0.0414,0.0,0.0,0.0,0.0445,0.0,0.0568,0.0766,0.0,0.0778,0.089,0.1105,0.0797,0.0719,0.0764,0.0,0.1389,0.1609,0.0,0.2144,0.1753,0.3011,0.0,0.0,0.0,0.0,0.0,0.0,0.3736,0.0,0.0,0.0,0.3748,0.3812,0.0,0.0,0.0,0.0,0.0,0.0,0.0,0.0,0.3422,0.3515,0.3585,0.3585,0.3585,0.3585,0.3585,0.3591,0.3538,0.3416,0.3535,0.3593,0.3585,0.3585,0.3585,0.3585,0.3585,0.3585,0.3585,0.3596,0.3604,0.3604,0.3776,0.384,0.3862,0.402,0.4129,0.4156,0.4265,0.4177,0.4043,0.3854,0.2293,-0.0,-0.0,-0.0,-0.0,-0.0,-0.0,-0.0,-0.0517,-0.0472,-0.045,-0.045,-0.045,-0.045,-0.045,-0.0555,-0.0598,0.0,0.0,0.0,0.0,-0.0643,-0.0811,0.0,0.0,-0.0552,-0.008,0.0,0.0,0.0616,0.0469,0.0386,0.0434,0.0323,0.0315,0.0405,0.0405,0.0,0.0,0.0,0.0393,0.0411,0.0399,0.0,0.0405,0.0,0.0407,0.0,0.0,0.0801,0.0,0.083,0.0787,0.0876,0.0759,0.0719,0.0719,0.0,0.1344,0.0,0.0,0.0,0.0,0.2655,0.0,0.0,0.0,0.0,0.0,0.0,0.0,0.0,0.3685,0.0,0.3717,0.0,0.0,0.0,0.0,0.0,0.0,0.0,0.3706,0.0,0.0,0.0,0.3316,0.0,0.0,0.0,0.3585,0.3593,0.3593,0.3585,0.2296,0.2128,0.353,0.3585,0.3585,0.3585,0.3585,0.3585,0.3585,0.3585,0.3585,0.3585,0.3632,0.3746,0.3815,0.386,0.3947,0.3963,0.4153,0.4208,0.4213,0.4298,0.3581,0.2357,0.0674,-0.0,-0.0,-0.0,-0.0,-0.0,-0.0718,0.0,-0.0517,-0.0517,-0.0517,-0.0521,-0.0533,-0.0661,-0.0757,-0.0694,-0.0695,-0.0684,-0.0596,-0.0885,-0.1131,-0.1182,-0.1031,-0.0727,-0.0242,-0.0208,-0.0029,0.0316,0.0379,0.0388,0.0406,0.0408,0.0391,0.0405,0.0,0.0,0.0,0.0,0.0,0.0393,0.041,0.0407,0.0433,0.0,0.0458,0.0482,0.0514,0.0752,0.1044,0.1014,0.0845,0.0719,0.0719,0.0719,0.0719,0.0718,0.1165,0.0,0.1546,0.2046,0.2649,0.0,0.0,0.0,0.3694,0.0,0.0,0.0,0.0,0.0,0.0,0.0,0.0,0.0,0.0,0.0,0.0,0.0,0.0,0.0,0.0,0.3624,0.0,0.3321,0.0,0.0,0.0,0.0,0.0,0.3596,0.3599,0.3588,0.1343,0.1064,0.3471,0.3585,0.3585,0.3585,0.3585,0.3585,0.3585,0.3585,0.3585,0.3585,0.3585,0.3629,0.3765,0.3798,0.3806,0.3837,0.3963,0.3648,0.2968,0.3103,0.3618,0.3989,0.1146,-0.0,-0.0,-0.0,-0.0,-0.0,-0.1185,-0.0875,0.0,0.0,-0.0607,-0.0601,-0.0599,-0.0652,-0.0738,-0.086,-0.0681,-0.0638,-0.1037,-0.1104,-0.1164,-0.1372,-0.134,-0.1122,-0.0796,-0.0517,-0.0391,-0.0369,0.0116,0.0408,0.0406,0.0404,0.0389,0.0405,0.0,0.0,0.0,0.0,0.0,0.0,0.0396,0.0436,0.0493,0.049,0.0586,0.0665,0.0637,0.0661,0.08,0.0,0.1255,0.0719,0.0719,0.0,0.0,0.0717,0.0716,0.0,0.0,0.0,0.0,0.0,0.0,0.0,0.0,0.0,0.0,0.3906,0.0,0.0,0.0,0.0,0.3829,0.0,0.0,0.0,0.0,0.0,0.0,0.0,0.0,0.0,0.0,0.0,0.0,0.0,0.0,0.0,0.0,0.3607,0.3607,0.0,0.1345,0.1064,0.3471,0.3585,0.3585,0.3585,0.3585,0.3585,0.3585,0.3585,0.3585,0.3585,0.3585,0.3585,0.3593,0.376,0.3706,0.3613,0.3721,0.2382,0.0129,0.0129,0.1772,0.3989,0.1146,-0.0,-0.0,-0.0,-0.0,-0.0,0.0,0.0,0.0,0.0,0.0,-0.0694,-0.0784,-0.0829,-0.0873,-0.1011,-0.1073,-0.1084,-0.1084,-0.1084,-0.1131,-0.1188,-0.1266,-0.1342,-0.1454,-0.0949,-0.075,-0.0906,-0.0193,0.0091,-0.0123,0.0227,0.0498,0.0,0.0,0.0,0.0,0.0,0.0,0.0,0.0,0.0437,0.0,0.0,0.0,0.0,0.0,0.133,0.2471,0.0,0.071,0.0494,0.0494,0.0494,0.0,0.0494,0.0493,0.0631,0.1271,0.1667,0.1869,0.1544,0.1538,0.1727,0.0,0.0,0.2563,0.3368,0.0,0.0,0.0,0.0,0.0,0.0,0.0,0.0,0.0,0.0,0.0,0.0,0.0,0.0,0.0,0.0,0.0,0.0,0.0,0.0,0.0,0.0,0.0,0.0,0.2832,0.0,0.3538,0.3599,0.3596,0.3585,0.3585,0.3585,0.3585,0.3585,0.3585,0.3585,0.3585,0.3585,0.3585,0.3632,0.3653,0.3607,0.3666,0.3168,0.2257,0.064,0.1709,0.3996,0.1146,-0.0,-0.0,-0.0,-0.0337,-0.0742,-0.1838,0.0,0.0,0.0,-0.0821,-0.0793,-0.0892,-0.0938,-0.0984,-0.109,-0.1284,-0.1357,-0.1216,-0.1509,-0.1644,-0.149,-0.1612,-0.1691,-0.1607,-0.129,-0.1159,-0.1212,-0.0677,-0.051,-0.0829,-0.0221,0.0,0.0,0.0,0.0742,0.0,0.0,0.0,0.0,0.0,0.0443,0.0513,0.0537,0.0497,0.0,0.0,0.1325,0.0,0.0,0.0989,0.0269,0.0,0.027,0.027,0.027,0.0269,0.0272,0.0239,0.0675,0.1057,0.0456,0.0569,0.1045,0.1375,0.1457,0.0,0.2886,0.2876,0.0,0.3668,0.0,0.3735,0.0,0.0,0.0,0.0,0.0,0.0,0.0,0.0,0.0,0.0,0.356,0.0,0.0,0.0,0.0,0.0,0.0,0.2688,0.3533,0.3575,0.0,0.0,0.3602,0.3599,0.3585,0.3585,0.3585,0.3585,0.3585,0.3585,0.3585,0.3588,0.3363,0.2965,0.297,0.32,0.3551,0.3159,0.2714,0.2252,0.1568,0.1748,0.2197,0.0336,-0.0404,-0.0404,-0.0404,-0.0674,-0.1079,-0.2344,-0.1892,-0.1466,-0.1269,-0.1033,-0.0907,-0.0918,-0.1031,-0.1132,-0.118,-0.1342,-0.1484,-0.1493,-0.2318,-0.2711,-0.2191,-0.228,-0.2109,-0.1432,-0.1596,-0.1608,-0.1302,-0.1255,-0.1341,-0.1612,0.0,0.0,0.0,0.0,0.0,0.0,0.0,0.0,0.0,0.055,0.0,0.051,0.0567,0.0499,0.0405,0.0629,0.0719,0.09,0.285,0.2162,0.0179,0.0045,-0.0,-0.0,-0.0,-0.0,-0.0,-0.0,-0.0,-0.0,-0.0,-0.0,0.0102,0.0683,0.0849,0.1168,0.2291,0.2879,0.0,0.0,0.0,0.3562,0.0,0.0,0.0,0.0,0.0,0.0,0.0,0.0,0.0,0.0,0.0,0.0,0.0,0.0,0.0,0.0,0.0796,0.1131,0.3335,0.3542,0.0,0.0,0.3593,0.3538,0.3416,0.353,0.3585,0.3585,0.3585,0.3583,0.3527,0.3593,0.2974,0.1902,0.179,0.2355,0.3383,0.2186,0.1084,0.0177,0.2434,0.1631,-0.1102,-0.1132,-0.1078,-0.1079,-0.1079,-0.1079,-0.1079,-0.2716,-0.2295,-0.1943,-0.1873,-0.1246,-0.0868,-0.1209,-0.13,-0.1581,-0.2361,-0.2498,-0.2509,-0.2509,-0.2756,-0.2857,-0.269,-0.2517,-0.2429,-0.2468,-0.2182,-0.2122,-0.2466,-0.1828,-0.1621,-0.1899,-0.1007,-0.0278,0.0327,0.0,0.0,0.1427,0.0,0.0,0.0,0.0,0.0,0.0432,0.0398,0.0257,0.0135,0.0539,0.0718,0.0896,0.0,0.3209,0.2429,0.0629,-0.0,-0.0,-0.0,-0.0,-0.0,-0.0,-0.0,-0.0,-0.0,-0.0,0.0051,0.0211,0.0372,0.0589,0.0932,0.1084,0.1486,0.0,0.0,0.0,0.0,0.0,0.0,0.0,0.0,0.0,0.0,0.0,0.0,0.0,0.0,0.0,0.2481,0.0,0.0,0.0,0.1806,0.2538,0.228,0.3084,0.3622,0.0,0.0,0.2755,0.1008,0.2639,0.3602,0.3593,0.3593,0.314,0.2294,0.3149,0.3436,0.3095,0.1289,0.0616,0.0898,0.0616,0.0285,-0.0,0.0059,-0.0369,-0.1099,-0.1107,-0.1125,-0.1079,-0.0742,-0.0877,-0.1079,-0.3196,-0.2782,-0.2462,-0.2454,-0.1999,-0.1558,-0.1326,-0.1716,-0.2265,-0.2846,-0.2887,-0.2907,-0.2909,-0.2915,-0.2912,-0.2912,-0.2734,-0.2581,-0.2526,-0.2471,0.0,-0.2522,-0.2284,-0.2231,-0.2371,-0.161,0.0,-0.0214,0.0,0.0,0.1828,0.0,0.0,0.0,0.0,0.0381,0.0404,0.0248,0.0088,0.0045,0.027,0.0404,0.0,0.162,0.2665,0.3302,0.0854,-0.0,-0.0,-0.0,-0.0,-0.0,-0.0,-0.0,-0.0,-0.0,-0.0,-0.0,-0.0,0.0105,0.0215,0.0222,0.0221,0.0436,0.1304,0.2011,0.2778,0.0,0.3152,0.2681,0.0,0.0,0.0,0.0,0.0,0.0,0.0,0.0,0.0,0.0,0.2243,0.0,0.0422,0.2096,0.3103,0.2624,0.3094,0.3243,0.0,0.0,0.2757,0.084,0.157,0.2301,0.2805,0.3317,0.3261,0.2581,0.2191,0.2023,0.1967,0.0617,-0.0,-0.0,-0.028,-0.0397,-0.0404,-0.082,-0.0903,-0.081,-0.0959,-0.1052,-0.1078,-0.0876,-0.0876,-0.1079,-0.3808,-0.3353,-0.2911,0.0,0.0,-0.2721,-0.1587,-0.2282,-0.2912,-0.2912,-0.2912,-0.2912,-0.2912,-0.2912,-0.2912,-0.2912,-0.2912,-0.2687,-0.2158,-0.2631,-0.2685,-0.2156,-0.2631,-0.2912,-0.2957,-0.2399,-0.1716,-0.0933,-0.0297,0.0776,0.0,0.0,0.0,0.0,0.0,0.0,0.0,0.0128,-0.0,-0.0,-0.0,-0.0,-0.0,-0.0,0.1305,0.285,0.0764,-0.0,-0.0,-0.0,-0.0,-0.0,-0.0,-0.0,-0.0,-0.0,-0.0,-0.0,-0.0,-0.0,-0.0,-0.0,-0.0,-0.0,-0.0,0.0168,0.1006,0.3429,0.2856,0.2348,0.3666,0.0,0.0,0.0,0.0,0.0,0.0,0.0,0.0,0.0,0.0,0.0,0.0,0.1794,0.2777,0.3468,0.3327,0.2873,0.0,0.0,0.2631,0.1623,0.056,0.0504,0.1567,0.2585,0.3156,0.3098,0.101,-0.0,-0.0,-0.0,-0.0056,-0.0168,-0.0673,-0.0898,-0.0844,-0.0868,-0.0706,-0.0537,-0.0885,-0.1051,-0.1076,-0.1076,-0.1077,-0.1078,-0.4617,-0.3778,0.0,0.0,-0.3911,-0.3958,-0.3274,-0.3013,-0.2912,-0.2912,-0.2912,-0.2912,-0.2912,-0.2912,-0.2912,-0.2912,-0.2912,0.0,-0.2747,0.0,0.0,-0.2824,-0.2934,-0.3037,-0.3129,-0.2873,-0.2046,-0.0583,-0.0408,0.0247,0.0,0.0,0.0,0.0,0.0,0.0,0.0619,0.0175,0.0,-0.0,-0.0,-0.0,-0.0,-0.0,0.027,0.0584,0.0135,-0.0,-0.0,-0.0,-0.0,-0.0,-0.0,-0.0,-0.0,-0.0,-0.0,-0.0,-0.0,-0.0,-0.0,-0.0,-0.0,-0.0,-0.0,0.0056,0.0224,0.0672,0.056,0.0448,0.0727,0.0,0.0,0.0,0.0,0.0,0.0,0.0,0.0,0.0,0.0,0.069,0.0,0.059,0.1195,0.2906,0.334,0.0,0.0,0.0,0.0545,0.0,0.0112,0.0112,0.0,0.0,0.0617,0.0617,0.0224,-0.0,-0.0,-0.0,-0.028,-0.0729,-0.0842,-0.0729,-0.0505,-0.079,-0.0876,-0.0922,-0.0956,-0.1051,-0.1076,-0.1076,-0.1076,-0.1076,-0.4195,0.0,0.0,0.0,-0.3491,-0.3778,-0.4035,-0.3599,-0.3243,-0.3117,-0.3032,-0.3021,-0.3041,-0.299,-0.2996,-0.3043,-0.3043,-0.3043,-0.3043,-0.3043,-0.3084,-0.3123,-0.3123,-0.3126,-0.3214,-0.311,-0.2631,-0.1744,-0.085,-0.0074,0.0,0.0,0.0,-0.0,0.0,0.012,0.0,0.0,0.0,-0.0,-0.0,-0.0,-0.0,-0.0,-0.0,-0.0,-0.0,-0.0186,-0.0419,-0.0095,-0.0,-0.0,-0.0,-0.0,-0.0,-0.0,-0.0,-0.0,-0.0,-0.0,-0.0,-0.0,-0.0,-0.0056,-0.0393,-0.0449,-0.0393,-0.0056,-0.0224,-0.0449,-0.0448,0.0391,0.0,0.0,0.0,0.0,0.0,0.0,-0.1549,0.0,0.0,0.0,0.0,0.0,0.0,0.0,0.0,0.0,0.0,0.0,-0.0,0.0,0.0,0.0,-0.0,0.0,-0.0,-0.0,-0.0,-0.0,-0.0,-0.0336,-0.0617,-0.0898,-0.0898,-0.0785,-0.0673,-0.0842,-0.0933,-0.099,-0.1004,-0.123,-0.1612,-0.1612,-0.1879,-0.208,-0.3593,-0.3324,0.0,0.0,-0.3111,-0.3524,-0.435,-0.4078,-0.3692,-0.3331,-0.3207,-0.3135,-0.3138,-0.3098,-0.3123,-0.3214,-0.3214,-0.3214,-0.3214,-0.3214,-0.3214,-0.3262,-0.3262,-0.3262,-0.3306,-0.3262,-0.3066,-0.2736,-0.1293,-0.0349,0.0,0.0035,-0.007,-0.014,0.0,0.0,0.0,0.0,-0.0091,-0.0091,-0.0045,-0.0,-0.0,-0.0137,-0.0183,-0.0185,-0.0096,-0.0531,-0.1113,-0.0732,-0.0538,-0.0443,-0.0154,-0.0103,-0.0103,-0.0103,-0.0263,-0.0431,-0.0161,-0.011,-0.0112,-0.0112,-0.0112,-0.0224,-0.0667,-0.0832,-0.072,-0.0275,-0.0659,-0.1156,-0.1274,-0.0887,0.0,0.0,0.0,0.0,0.0,0.0,0.0,0.0,0.0,0.0,-0.0865,0.0,0.0,0.0,0.0,0.0,0.0101,0.0,0.0,0.0,0.0,-0.0,-0.0,0.0,-0.0,-0.0,-0.0,-0.0056,-0.0224,-0.0673,-0.0842,-0.0785,-0.0842,-0.0898,-0.0898,-0.1065,-0.1103,-0.1162,-0.1354,-0.1783,-0.2262,-0.2342,-0.2681,-0.3015,-0.3622,0.0,0.0,0.0,0.0,-0.44,-0.4503,-0.4446,-0.4098,-0.3318,-0.3206,-0.3107,-0.2951,-0.3138,-0.3262,-0.3306,-0.3214,-0.3214,-0.3214,-0.3214,-0.3262,-0.3398,-0.3398,-0.3442,-0.3578,-0.3442,-0.2971,0.0,0.0,-0.057,0.0,0.0155,-0.0232,-0.0622,-0.0769,0.0,0.0,-0.0374,-0.038,-0.0332,-0.0091,-0.0,-0.0048,-0.0618,-0.0825,-0.0799,-0.0451,-0.1102,-0.2116,-0.2345,-0.2265,-0.1802,-0.0714,-0.0388,-0.0388,-0.0389,-0.1112,-0.1728,-0.0669,-0.0335,-0.0335,-0.0336,-0.0336,-0.0389,-0.0431,-0.0642,-0.0796,-0.0718,-0.1274,-0.1907,-0.2446,-0.246,-0.1976,0.0,0.0,0.0,0.0,0.0,-0.3831,-0.3959,0.0,0.0,0.0,-0.1291,0.0,0.0,0.018,0.0187,-0.0,-0.0,0.0,-0.0,-0.0,-0.0,-0.0,-0.0,-0.0,-0.0,-0.0,-0.028,-0.0842,-0.0898,-0.0729,-0.0449,-0.0785,-0.0898,-0.0954,-0.1511,-0.1716,-0.1777,-0.2557,-0.2826,-0.2916,-0.3055,-0.3149,-0.3149,0.0,0.0,0.0,0.0,0.0,0.0,0.0,-0.4501,-0.4375,-0.4035,-0.3802,-0.3581,-0.3333,-0.3413,-0.3474,-0.3499,-0.3599,-0.3661,-0.3569,-0.3566,-0.3566,-0.3658,-0.3577,-0.3534,-0.3581,-0.3618,-0.3491,0.0,0.0,-0.1425,-0.0212,-0.0415,-0.0507,-0.0533,0.0,-0.0803,-0.0724,-0.0687,-0.0691,-0.0641,-0.0534,-0.0389,-0.0247,-0.0493,-0.1194,-0.197,-0.1807,-0.2238,-0.2876,-0.3037,-0.281,-0.2564,-0.2771,-0.2348,-0.1786,-0.1788,-0.2124,-0.2573,-0.28,-0.2348,-0.1786,-0.1788,-0.1789,-0.1838,-0.209,-0.2106,-0.1961,-0.1461,-0.1893,-0.2432,-0.2673,-0.2785,-0.2678,-0.1951,0.0,0.0,0.0,0.0,0.0,-0.4002,0.0,-0.3516,0.0,0.0,0.0,0.0,0.0,-0.0,-0.0,-0.0,0.0,-0.0,0.0,-0.0,-0.0,-0.0,-0.0168,-0.0561,-0.0561,-0.0561,-0.0617,-0.0617,-0.0897,-0.14,-0.1456,-0.1623,-0.2014,-0.2235,-0.2336,-0.2351,-0.2678,-0.3142,-0.3665,-0.3704,-0.4093,-0.4489,-0.4473,0.0,-0.448,0.0,-0.4519,-0.4519,-0.4519,-0.4519,-0.4519,-0.4519,-0.428,-0.41,-0.3897,-0.3888,-0.384,-0.3853,-0.3951,-0.3975,-0.3866,-0.386,-0.3839,-0.3792,-0.3697,0.0,-0.3643,-0.3741,-0.3866,-0.3921,-0.3199,-0.2271,-0.1205,-0.0947,-0.069,-0.0534,-0.0737,-0.0852,-0.0922,-0.0922,-0.0871,-0.0871,-0.1063,-0.0913,-0.0564,-0.1074,-0.1803,-0.2559,-0.2677,-0.3021,-0.3409,-0.3382,-0.3299,-0.3299,-0.3834,-0.3524,-0.2903,-0.2736,-0.2847,-0.3128,-0.3808,-0.3469,-0.2903,-0.2736,-0.2681,-0.2785,-0.3037,-0.2953,-0.2654,-0.1933,-0.2331,-0.2786,-0.2817,-0.3022,-0.3282,-0.3415,0.0,0.0,0.0,-0.4237,0.0,-0.4046,-0.3858,-0.3491,-0.2904,-0.3405,0.0,0.0,0.0,-0.1006,-0.0665,-0.0565,0.0,0.0,0.0,0.0,-0.0671,-0.0671,-0.0672,-0.0784,-0.1232,-0.1288,-0.1064,-0.1176,-0.1623,-0.2293,-0.2125,-0.2291,-0.2736,-0.2903,-0.2943,-0.3009,-0.3212,-0.3675,-0.4261,-0.4396,-0.481,-0.5298,-0.4519,-0.4519,-0.4519,-0.4519,-0.4519,-0.4519,-0.4519,-0.4519,-0.4519,-0.4519,-0.4515,-0.4512,-0.4512,-0.4512,-0.4508,-0.4508,-0.4185,-0.4019,-0.4016,-0.4016,-0.3948,0.0,0.0,-0.3788,-0.3788,-0.3792,-0.3866,-0.4019,0.0,-0.2963,-0.2363,-0.1308,-0.0806,-0.0807,-0.089,-0.0905,-0.0905,-0.0905,-0.0905,-0.0955,-0.1686,-0.1493,-0.0958,-0.2654,-0.2767,-0.2179,-0.2569,-0.3067,-0.3569,-0.3569,-0.4015,-0.4291,-0.307,-0.3125,-0.3458,-0.2903,-0.3125,-0.3461,-0.2903,-0.3125,-0.3458,-0.2847,-0.2681,-0.2711,-0.262,-0.2481,-0.2368,-0.2141,-0.2504,-0.294,-0.3064,-0.3463,-0.3897,-0.4165,0.0,0.0,0.0,-0.4316,0.0,-0.4197,-0.385,-0.3685,-0.3956,-0.4,0.0,0.0,0.0,-0.3439,-0.2227,-0.1912,0.0,-0.2173,-0.2181,0.0,-0.2174,-0.2174,-0.1562,-0.0447,-0.1953,-0.2685,-0.2691,-0.3079,-0.3074,-0.2681,-0.2681,-0.2681,-0.2736,-0.3347,-0.3572,-0.3641,-0.44,-0.4691,-0.4731,-0.4961,-0.5068,-0.5155,-0.4574,-0.4519,-0.4519,-0.4519,-0.4794,-0.5018,-0.5018,-0.5018,-0.4908,-0.4574,-0.4519,-0.4519,-0.4519,-0.468,-0.4791,0.0,-0.4696,-0.4594,0.0,-0.4485,-0.4459,-0.4408,-0.4348,-0.4289,-0.4289,-0.435,-0.443,-0.4485,0.0,0.0,-0.1932,-0.1567,-0.1219,-0.0869,-0.0879,-0.0883,-0.0883,-0.0883,-0.0883,-0.0937,-0.1578,-0.1689,-0.1597,-0.253,-0.2987,-0.3125,-0.3292,-0.3683,-0.4239,-0.4298,-0.4467,-0.4574,-0.4291,-0.4181,-0.4184,-0.3959,-0.407,-0.4184,-0.3959,-0.4073,-0.4206,-0.4077,-0.3972,-0.3919,-0.4023,-0.3738,-0.3444,-0.3221,-0.3303,-0.3411,-0.3411,-0.3556,-0.3743,-0.3894,-0.3995,0.0,-0.4288,0.0,-0.4324,-0.4117,-0.4053,-0.3946,-0.388,-0.4028,0.0,0.0,0.0,-0.3951,-0.3459,0.0,0.0,0.0,-0.3644,0.0,-0.3755,-0.3755,-0.3302,-0.2402,-0.285,-0.2963,-0.2683,-0.285,-0.3072,-0.3292,-0.3292,-0.3572,-0.3959,-0.4128,-0.4239,-0.4242,-0.4458,-0.4599,-0.4714,-0.4914,-0.5047,-0.5152,-0.4853,-0.4794,-0.4794,-0.4794,-0.5077,-0.5297,-0.5297,-0.5297,-0.5187,-0.4853,-0.4794,-0.4794,-0.4794,-0.4959,0.0,-0.5069,-0.4956,-0.4856,-0.4759,-0.4752,-0.4729,-0.4722,-0.4616,-0.456,-0.456,-0.4665,0.0,-0.4752,-0.4157,-0.3401,-0.2539,-0.2324,-0.2025,-0.1733,-0.1456,-0.1289,-0.1289,-0.1232,-0.1288,-0.14,-0.2179,-0.2347,-0.2291,-0.307,-0.3514,-0.3683,-0.3904,-0.4294,-0.468,-0.4739,-0.4794,-0.4794,-0.4901,-0.4952,-0.4956,-0.4736,-0.4625,-0.4625,-0.4625,-0.4625,-0.465,-0.4748,-0.4745,-0.4784,-0.4823,-0.446,-0.4112,-0.4008,-0.383,-0.3728,-0.3788,-0.3844,-0.3848,-0.3996,-0.4154,-0.4312,-0.4364,0.0,-0.4627,0.0,0.0,0.0,0.0,-0.411,-0.4175,0.0,0.0,0.0,0.0,0.0,-0.4277,-0.4196,-0.4317,-0.4432,-0.4484,-0.4484,-0.4144,-0.3408,-0.3408,-0.3408,-0.3403,-0.3403,-0.3569,-0.3959,-0.3959,-0.4128,-0.4519,-0.4519,-0.4519,-0.4519,-0.4519,-0.4577,-0.4623,-0.4775,-0.4925,-0.5074,-0.5297,-0.5297,-0.5297,-0.5297,-0.5297,-0.5297,-0.5297,-0.5297,-0.5297,-0.5297,-0.5297,-0.5297,-0.5297,-0.5352,-0.5407,-0.5462,0.0,0.0,-0.4956,-0.4956,-0.4892,-0.4745,-0.4737,-0.4737,-0.4737,-0.4737,-0.4809,-0.4901,-0.434,-0.4064,-0.4006,-0.345,-0.3118,-0.3063,-0.2402,-0.2071,-0.2069,-0.1958,-0.1958,-0.2181,-0.3181,-0.3347,-0.3072,-0.4128,-0.4239,-0.3962,-0.4522,-0.4794,-0.4897,-0.4901,-0.4952,-0.4956,-0.5007,-0.5391,-0.5773,-0.5117,-0.5007,-0.5007,-0.5007,-0.5007,-0.5011,-0.5022,-0.5204,-0.5274,-0.5144,-0.4804,-0.4572,-0.4614,-0.4311,-0.4096,-0.4307,-0.4338,-0.4388,-0.45,-0.4715,-0.4828,-0.4831,-0.5144,-0.514,0.0,0.0,0.0,-0.439,-0.4309,-0.4371,0.0,0.0,0.0,0.0,0.0,-0.4187,-0.4519,-0.4301,-0.4301,-0.4519,-0.4519,-0.4239,-0.368,-0.368,-0.3959,-0.4519,-0.4519,-0.4519,-0.4519,-0.4519,-0.4519,-0.4519,-0.4515,-0.4519,-0.4519,-0.4515,-0.4519,-0.4539,-0.4704,-0.4789,-0.4928,0.0,0.0,-0.5297,-0.5297,-0.5297,-0.5297,-0.5297,-0.5297,-0.5297,-0.5297,-0.5297,-0.5297,-0.5297,-0.6109,-0.6756,-0.6956,-0.5887,-0.5183,-0.5183,-0.5183,-0.5167,-0.5183,-0.5183,-0.5183,-0.5183,-0.5183,-0.5144,-0.5069,-0.4904,-0.4567,-0.4006,-0.384,-0.3564,-0.3118,-0.2899,-0.2843,-0.2843,-0.2788,-0.2788,-0.2899,-0.3622,-0.3843,-0.3843,-0.4512,-0.4732,-0.468,-0.4791,-0.4901,-0.4901,-0.5014,-0.5344,-0.5778,-0.5882,-0.6317,-0.6647,-0.5828,-0.5878,-0.6204,-0.6204,-0.6204,-0.6242,-0.6398,-0.6473,-0.6473,-0.6269,-0.6051,-0.5925,-0.5967,-0.5793,-0.5686,-0.574,-0.5745,-0.577,-0.5885,-0.5962,-0.602,-0.6126,-0.622,-0.6178,0.0,-0.6044,-0.6125,-0.5902,-0.5451,-0.5229,0.0,0.0,-0.4519,-0.4519,-0.4408,-0.4408,-0.4519,-0.4463,-0.4463,-0.4519,-0.4519,-0.4408,-0.4294,-0.4294,-0.4349,-0.4519,-0.4519,-0.4519,-0.4519,-0.4632,-0.4632,-0.4688,-0.4736,-0.4736,-0.4688,-0.4791,-0.4736,-0.4723,-0.5118,-0.5114,-0.4981,-0.5681,-0.5736,-0.5626,-0.5352,-0.5297,-0.5297,-0.5297,-0.5297,-0.5411,-0.5686,-0.5462,-0.5297,-0.5297,-0.5896,-0.6804,-0.8137,-0.6966,-0.6164,-0.6213,-0.6213,-0.6164,-0.6109,-0.6164,-0.6164,-0.6109,-0.6109,-0.6109,-0.5996,-0.5996,-0.5828,-0.5433,-0.516,-0.4831,-0.4498,-0.3892,-0.3619,-0.3619,-0.3561,-0.3564,-0.3674,-0.4174,-0.4453,-0.4563,-0.5117,-0.5336,-0.5395,-0.5395,-0.5445,-0.55,-0.5555,-0.5832,-0.6159,-0.6485,-0.7025,-0.7396,-0.6907,-0.6804,-0.681,-0.681,-0.681,-0.6861,-0.7023,-0.7058,-0.7005,-0.6912,-0.6765,-0.6606,-0.6697,-0.6514,-0.6385,-0.6448,-0.647,-0.6513,-0.659,-0.6655,-0.6712,-0.673,-0.6966,-0.6972,-0.6528,-0.6775,-0.6854,-0.6523,-0.6187,-0.5982,-0.5982,-0.5601,0.0,-0.4948,-0.4897,-0.4736,-0.4519,-0.4519,-0.4519,-0.4519,-0.4519,-0.4519,-0.4519,-0.4519,-0.4519,-0.4519,-0.4519,-0.4519,-0.4577,-0.4688,-0.4743,-0.4794,-0.4846,-0.4846,-0.4794,-0.4901,-0.4846,-0.4816,-0.5048,-0.5107,-0.5027,-0.6178,-0.6178,-0.6014,-0.5517,-0.5407,-0.5407,-0.5407,-0.5407,-0.5626,-0.6119,-0.5736,-0.5567,-0.5887,-0.5941,-0.6853,-0.9047,-0.815,-0.7402,-0.7343,-0.723,-0.7182,-0.7133,-0.7289,-0.7289,-0.7187,-0.7133,-0.7133,-0.7133,-0.7085,-0.7085,-0.7085,-0.648,-0.6209,-0.6154,-0.4893,-0.4343,-0.4343,-0.4229,-0.4288,-0.4401,-0.4897,-0.5175,-0.5344,-0.5832,-0.605,-0.6164,-0.6164,-0.6213,-0.6317,-0.6317,-0.6372,-0.6529,-0.7079,-0.761,-0.8037,-0.8037,-0.7723,-0.7354,-0.7354,-0.7354,-0.7399,-0.7483,-0.7444,-0.7404,-0.7489,-0.7326,-0.7143,-0.7309,-0.7059,-0.6921,-0.7093,-0.7081,-0.7081,-0.7081,-0.7261,-0.7295,-0.7176,0.0,-0.7616,-0.702,-0.7391,-0.7498,-0.6966,-0.6804,-0.675,-0.675,-0.6578,-0.6195,-0.5706,-0.5546,-0.5226,-0.4736,-0.457,-0.4519,-0.4519,-0.4519,-0.4519,-0.4519,-0.4519,-0.4519,-0.4519,-0.4574,-0.4629,-0.4743,-0.4743,-0.4849,-0.4956,-0.4956,-0.4956,-0.4956,-0.4956,-0.4956,-0.4956,-0.4982,-0.5065,-0.5143,-0.6178,-0.6178,-0.6178,-0.6069,-0.6069,-0.6069,-0.6069,-0.6069,-0.6119,-0.6178,-0.6123,-0.681,-0.8712,-0.8922,-0.9086,-0.951,-0.9218,-0.858,-0.7545,-0.7015,-0.6907,-0.7444,-0.7439,-0.7439,-0.7439,-0.7343,-0.7289,-0.7289,-0.7133,-0.7085,-0.7085,-0.648,-0.6209,-0.6154,-0.5454,-0.5132,-0.5132,-0.5128,-0.5132,-0.5183,-0.5778,-0.5991,-0.61,-0.6701,-0.6923,-0.6923,-0.6923,-0.6923,-0.6972,-0.6972,-0.7235,-0.7658,-0.7765,-0.8203,-0.8639,-0.8639,-0.8586,-0.854,-0.854,-0.854,-0.8546,-0.8585,-0.8566,-0.8546,-0.8538,-0.8533,-0.8482,-0.8527,-0.8462,-0.8469,-0.8462,-0.8469,-0.8469,-0.8469,-0.8508,-0.854,-0.848,0.0,-0.8593,-0.848,-0.8533,-0.8533,-0.848,-0.7883,-0.7509,-0.7509,-0.6912,-0.6534,-0.6421,-0.6421,-0.6154,-0.5609,-0.4901,-0.4519,-0.4519,-0.4519,-0.4519,-0.4519,-0.4632,-0.4688,-0.4688,-0.4791,-0.4846,-0.4901,-0.5014,-0.5069,-0.5069,-0.5183,-0.5183,-0.5069,-0.5183,-0.5183,-0.5085,-0.5397,-0.5321,-0.5177,-0.6178,-0.6178,-0.6178,-0.6178,-0.6178,-0.6178,-0.6178,-0.7235,-0.8031,-0.8031,-0.8031,-0.8455,-0.951,-0.9614,-0.9614,-0.9614,-0.9524,-0.9256,-0.8659,-0.829,-0.819,-0.8402,-0.8508,-0.8508,-0.8402,-0.8355,-0.8302,-0.8302,-0.8256,-0.8256,-0.8203,-0.7545,-0.7063,-0.675,-0.6105,-0.5622,-0.5297,-0.5673,-0.5782,-0.5832,-0.6431,-0.6701,-0.675,-0.7289,-0.7503,-0.7503,-0.7503,-0.7503,-0.7503,-0.7503,-0.7717,-0.7984,-0.8256,-0.8586,-0.8857,-0.9159,-0.9008,-0.8804,-0.8804,-0.8804,-0.8804,-0.8804,-0.8804,-0.8804,-0.8804,-0.8804,-0.8804,-0.8804,-0.8804,-0.8804,-0.8804,-0.8804,-0.8804,-0.8804,-0.8804,-0.8804,-0.8804,-0.8804,-0.8804,-0.8804,-0.8804,-0.8804,-0.8804,-0.848,-0.8321,-0.8321,-0.7931,-0.7551,-0.7235,-0.7122,-0.6799,-0.6263,-0.5555,-0.5336,-0.5609,-0.5609,-0.55,-0.5226,-0.5285,-0.5285,-0.5285,-0.5011,-0.512,-0.5449,-0.5234,-0.5128,-0.5242,-0.5297,-0.5242,-0.5242,-0.5297,-0.5242,-0.525,-0.5386,-0.5365,-0.5234,-0.6178,-0.6178,-0.6178,-0.6178,-0.6657,-0.6972,-0.6972,-0.8455,-0.9614,-0.9614,-0.9614,-0.9614,-0.9614,-0.9614,-0.9614,-0.9614,-0.9614,-0.9614,-0.9614,-0.9517,-0.9413,-0.9309,-0.9413,-0.9413,-0.9309,-0.9263,-0.9263,-0.9263,-0.9211,-0.9211,-0.9211,-0.8514,-0.7925,-0.7503,-0.6799,-0.6213,-0.5782,-0.6213,-0.6426,-0.648,-0.7025,-0.7295,-0.7348,-0.7877,-0.809,-0.809,-0.809,-0.809,-0.809,-0.809,-0.809,-0.8196,-0.8798,-0.9008,-0.9113,-0.9666,-0.9562,-0.9256,-0.9211,-0.9159,-0.9159,-0.9159,-0.9159,-0.9159,-0.9159,-0.9159,-0.9159,-0.9159,-0.9159,-0.9159,-0.9159,-0.9159,-0.9159,-0.9159,0.0,-0.9008,-0.9159,-0.8956,-0.8857,-0.8956,-0.8857,-0.8804,-0.8804,-0.8804,-0.8804,-0.8804,-0.8692,-0.8421,-0.799,-0.7877,-0.7605,-0.7128,-0.6372,-0.6209,-0.6588,-0.6588,-0.6372,-0.5991,-0.6046,-0.6046,-0.6041,-0.5609,-0.5723,-0.6218,-0.5782,-0.5563,-0.5513,-0.5513,-0.5407,-0.5297,-0.5297,-0.5297,-0.5297,-0.5297,-0.5297,-0.5325,-0.6178,-0.6178,-0.6178,-0.6178,-0.7925,-0.9347,-0.9347,-0.951,-0.9614,-0.9614,-0.9614,-0.9614,-0.9614,-0.9614,-0.9614,-0.9614,-0.9614,-0.9614,-0.9614,-0.9614,-0.9562,-0.9562,-0.9562,-0.9562,-0.9562,-0.9465,-0.9361,-0.9361,-0.9263,-0.9211,-0.9211,-0.8633,-0.8368,-0.8262,-0.7557,-0.7182,-0.7128,-0.7079,-0.7025,-0.7085,-0.761,-0.7818,-0.7931,-0.8533,-0.8752,-0.8752,-0.8752,-0.8752,-0.8752,-0.8752,-0.8752,-0.885,-0.9361,-0.9562,-0.9658,-1.0312,-1.0568,-1.0618,-1.0364,-1.0261,-1.0261,-1.0261,-1.0261,-1.0261,-1.0261,-1.0261,-1.0261,-1.0261,-1.0261,-1.0261,-1.0261,-1.0261,-1.0261,-1.0261,0.0,0.0,-1.021,-0.9413,-0.8956,-0.9465,-0.9113,-0.8804,-0.8804,-0.8804,-0.8804,-0.8804,-0.8804,-0.8752,-0.8699,-0.8699,-0.8699,-0.8646,-0.7289,-0.6534,-0.6588,-0.6588,-0.6588,-0.6534,-0.6745,-0.6799,-0.6799,-0.6918,-0.6972,-0.7031,-0.6977,-0.6647,-0.6154,-0.6154,-0.5782,-0.5297,-0.5297,-0.5297,-0.5297,-0.5297,-0.5297,-0.5325,-0.8031,-0.8296,-0.8296,-0.8296,-0.9033,-0.9614,-0.9614,-0.9614,-0.9614,-0.9614,-0.9614,-1.0545,-1.2908,-1.1783,-1.1165,-1.1927,-1.1517,-1.1288,-1.1407,-1.1399,-1.0883,-0.9629,-0.9614,-0.9614,-0.9614,-0.9562,-0.951,-0.951,-0.9458,-0.9465,-0.9465,-0.9152,-0.8837,-0.8521,-0.815,-0.7771,-0.7444,-0.7777,-0.783,-0.7765,-0.8362,-0.8527,-0.8474,-0.8699,-0.8804,-0.8804,-0.8804,-0.9008,-0.9309,-0.9309,-0.951,-0.9865,-1.0115,-1.0218,-1.0364,-1.1032,-1.1493,-1.185,-1.1751,-1.1183,-1.0669,-1.0669,-1.0669,-1.0618,-1.0517,-1.0517,-1.0517,-1.0415,-1.0415,-1.0415,-1.0415,-1.0415,-1.0415,-1.0415,0.0,-1.0167,-1.0364,-1.0064,-0.9865,-1.0064,-0.9917,-0.9666,-0.9309,-0.9309,-0.9159,-0.8804,-0.8804,-0.8804,-0.8804,-0.8804,-0.8804,-0.8804,-0.8262,-0.7943,-0.7943,-0.7943,-0.7777,-0.7391,-0.7498,-0.7498,-0.7498,-0.7241,-0.7295,-0.7557,-0.7241,-0.6977,-0.6756,-0.6756,-0.6431,-0.5832,-0.5832,-0.5622,-0.5297,-0.5297,-0.5297,-0.5309,-0.8296,-0.9242,-0.988,-0.988,-0.9718,-0.9614,-0.9614,-0.9614,-1.0113,-1.1547,-1.1713,-1.2617,-1.4902,-1.3497,-1.2764,-1.3634,-1.2907,-1.2448,-1.261,-1.2538,-1.1864,-1.0368,-1.0185,-1.0072,-1.0072,-1.0072,-1.0072,-1.0072,-1.0072,-1.0072,-1.0072,-1.0028,-0.9666,-0.9145,-0.919,-0.8915,-0.8383,-0.8718,-0.8922,-0.896,-0.9145,-0.9211,-0.9106,-0.9106,-0.9008,-0.891,-0.9113,-0.9413,-0.9762,-0.9917,-1.0218,-1.0568,-1.0821,-1.1082,-1.1334,-1.1751,-1.2215,-1.2627,-1.2578,-1.2008,-1.1434,-1.1283,-1.1283,-1.1283,-1.1183,-1.1183,-1.1183,-1.1082,-1.1082,-1.1082,-1.1082,-1.1032,-1.0981,-1.0981,-1.0838,-1.0736,-1.0931,-1.0626,-1.0474,-1.0677,-1.0525,-1.0261,-0.9865,-0.971,-0.9465,-0.9061,-0.891,-0.8804,-0.8804,-0.8804,-0.8804,-0.8804,-0.8804,-0.8804,-0.8804,-0.8804,-0.8586,-0.8203,-0.8203,-0.8203,-0.815,-0.7777,-0.7836,-0.8143,-0.7777,-0.7515,-0.7348,-0.7348,-0.6912,-0.6209,-0.6209,-0.5832,-0.5297,-0.5297,-0.5297,-0.5297,-0.6495,-0.856,-1.0522,-1.0522,-0.9991,-0.9614,-0.9614,-0.9621,-1.1305,-1.5843,-1.6384,-1.5966,-1.472,-1.4321,-1.409,-1.409,-1.3305,-1.2839,-1.2839,-1.2602,-1.2318,-1.1947,-1.1464,-1.1217,-1.1217,-1.1217,-1.1217,-1.1217,-1.1217,-1.1209,-1.1209,-1.1209,-1.0905,-1.0403,-1.083,-1.072,-1.0218,-1.0064,-1.032,-1.0771,-1.0072,-0.9821,-0.9821,-0.9821,-0.9472,-0.912,-0.9769,-1.002,-1.0123,-1.0618,-1.0821,-1.0931,-1.1451,-1.2116,-1.2676,-1.2529,-1.2676,-1.2881,-1.2735,-1.2783,-1.2783,-1.2382,-1.2382,-1.248,-1.2323,-1.2431,-1.248,-1.248,-1.248,-1.248,-1.248,-1.2372,-1.2274,-1.2274,-1.1728,-1.1528,-1.2026,-1.1141,-1.0626,-1.1217,-1.0787,-1.0415,-1.0415,-0.9917,-0.9614,-0.9614,-0.9113,-0.8811,-0.8811,-0.8804,-0.8804,-0.8804,-0.8804,-0.8804,-0.8804,-0.8804,-0.8804,-0.8804,-0.8804,-0.8804,-0.8804,-0.8804,-0.8804,-0.8804,-0.8804,-0.8474,-0.7925,-0.7925,-0.723,-0.6209,-0.6209,-0.5832,-0.5301,-0.5297,-0.5297,-0.5297,-0.9302,-0.9888,-1.0522,-1.0522,-1.036,-1.0744,-1.2169,-1.3523,-1.488,-1.6244,-1.6384,-1.6213,-1.5644,-1.4983,-1.4802,-1.5338,-1.4725,-1.4439,-1.4935,-1.4634,-1.4357,-1.4076,-1.2788,-1.2092,-1.2092,-1.2092,-1.2092,-1.2092,-1.2092,-1.1963,-1.1705,-1.1705,-1.1404,-1.0956,-1.1099,-1.104,-1.0905,-1.1214,-1.1383,-1.1461,-1.1498,-1.1489,-1.1434,-1.1434,-1.1325,-1.1224,-1.138,-1.1706,-1.2083,-1.2244,-1.2565,-1.2899,-1.2828,-1.2807,-1.2832,-1.2774,-1.2832,-1.2881,-1.2832,-1.2881,-1.2881,-1.2725,-1.2725,-1.2735,-1.2627,-1.2627,-1.2627,-1.2529,-1.248,-1.248,-1.248,-1.248,-1.2431,-1.2431,-1.2274,-1.2175,-1.2382,-1.2067,-1.1909,-1.1977,-1.1859,-1.156,-1.1057,-1.0905,-1.0643,-1.0167,-0.9666,-0.9361,-0.9361,-0.9008,-0.8804,-0.8804,-0.8804,-0.8804,-0.8804,-0.8804,-0.8804,-0.8804,-0.8804,-0.8804,-0.8804,-0.8804,-0.8804,-0.8804,-0.8804,-0.8699,-0.8533,-0.8533,-0.8096,-0.7337,-0.6966,-0.6485,-0.5887,-0.5462,-0.5297,-0.5297,-1.154,-1.1643,-1.1904,-1.269,-1.2536,-1.2842,-1.444,-1.5349,-1.597,-1.6332,-1.6384,-1.6316,-1.6192,-1.571,-1.5594,-1.6087,-1.5874,-1.5853,-1.6228,-1.6242,-1.6185,-1.6019,-1.5004,-1.405,-1.315,-1.36,-1.3708,-1.3502,-1.3502,-1.338,-1.3137,-1.2883,-1.2501,-1.206,-1.2268,-1.2216,-1.2078,-1.2316,-1.252,-1.2654,-1.2615,-1.2593,-1.2483,-1.2483,-1.2372,-1.2206,-1.2483,-1.2758,-1.3086,-1.3304,-1.3534,-1.3667,-1.3623,-1.3299,-1.291,-1.3076,-1.3008,-1.2881,-1.2881,-1.2881,-1.2881,-1.2881,-1.2881,-1.2881,-1.2725,-1.2735,-1.2783,-1.2676,-1.2676,-1.2676,-1.2676,-1.2627,-1.2578,-1.2578,-1.2529,-1.248,-1.248,-1.248,-1.248,-1.2382,-1.2382,-1.2224,-1.1819,-1.1569,-1.115,-1.0517,-0.9909,-0.9614,-0.9614,-0.9106,-0.8804,-0.8804,-0.8804,-0.8804,-0.8804,-0.8804,-0.8804,-0.8804,-0.8804,-0.8804,-0.8804,-0.8804,-0.8804,-0.8804,-0.8804,-0.8804,-0.8804,-0.8804,-0.8421,-0.7871,-0.7557,-0.7074,-0.6539,-0.6164,-0.6,-0.6005,-1.3155,-1.3549,-1.4308,-1.6218,-1.5834,-1.5562,-1.6409,-1.5867,-1.5626,-1.6486,-1.6602,-1.6545,-1.6488,-1.6488,-1.6488,-1.6384,-1.6797,-1.7,-1.6933,-1.7368,-1.7633,-1.7633,-1.7534,-1.6525,-1.4473,-1.5488,-1.5747,-1.5175,-1.5175,-1.5154,-1.5112,-1.4553,-1.3946,-1.3467,-1.3907,-1.3809,-1.3368,-1.3405,-1.3695,-1.4082,-1.3569,-1.3305,-1.3305,-1.3305,-1.3021,-1.2642,-1.325,-1.3469,-1.3578,-1.4022,-1.3975,-1.3691,-1.4072,-1.3643,-1.3066,-1.3447,-1.3271,-1.2939,-1.2939,-1.291,-1.2881,-1.2881,-1.2881,-1.2881,-1.2735,-1.2832,-1.2881,-1.2881,-1.2881,-1.2881,-1.2881,-1.2783,-1.2725,-1.2725,-1.2627,-1.2529,-1.2529,-1.2529,-1.2529,-1.2529,-1.2529,-1.2529,-1.248,-1.2017,-1.1451,-1.0821,-1.0167,-0.9769,-0.9769,-0.9211,-0.891,-0.891,-0.8857,-0.8804,-0.8804,-0.8804,-0.8804,-0.8804,-0.8804,-0.8804,-0.8804,-0.8804,-0.8804,-0.8804,-0.8804,-0.8804,-0.8804,-0.8804,-0.8474,-0.7978,-0.7925,-0.761,-0.7192,-0.7139,-0.7085,-0.7031,-1.3418,-1.4676,-1.6171,-1.7523,-1.7542,-1.7517,-1.7688,-1.7813,-1.797,-1.819,-1.7941,-1.7611,-1.7268,-1.7279,-1.7011,-1.6431,-1.7011,-1.7479,-1.782,-1.7929,-1.7918,-1.7852,-1.8255,-1.7978,-1.6885,-1.6885,-1.6841,-1.6721,-1.6721,-1.6537,-1.6233,-1.5656,-1.5083,-1.4641,-1.4291,-1.4024,-1.3936,-1.4328,-1.4528,-1.4668,-1.483,-1.4898,-1.4898,-1.4898,-1.484,-1.4725,-1.4898,-1.4955,-1.4955,-1.5079,-1.4853,-1.4521,-1.4619,-1.4287,-1.3877,-1.3912,-1.3701,-1.3369,-1.3369,-1.3135,-1.2881,-1.2881,-1.2881,-1.2881,-1.2881,-1.2881,-1.2881,-1.2881,-1.2881,-1.2881,-1.2881,-1.2881,-1.2881,-1.2881,-1.2832,-1.2832,-1.2832,-1.2832,-1.2774,-1.2686,-1.2676,-1.2627,-1.2529,-1.2372,-1.2215,-1.2116,-1.1501,-1.115,-1.115,-1.0277,-0.971,-0.9562,-0.9159,-0.891,-0.8804,-0.8804,-0.8804,-0.8804,-0.8804,-0.8804,-0.8804,-0.8804,-0.8804,-0.8804,-0.8804,-0.8804,-0.8804,-0.8804,-0.8699,-0.8586,-0.809,-0.7818,-0.7664,-0.7241,-0.7085,-0.7085,-1.4951,-1.5988,-1.7126,-1.795,-1.8093,-1.8093,-1.8093,-1.8267,-1.8429,-1.8429,-1.8201,-1.8038,-1.7809,-1.7279,-1.7279,-1.7984,-1.8038,-1.8201,-1.8483,-1.8792,-1.8898,-1.8833,-1.9056,-1.8963,-1.8566,-1.8309,-1.7984,-1.771,-1.771,-1.7575,-1.7274,-1.6721,-1.6265,-1.602,-1.5434,-1.5169,-1.519,-1.5421,-1.5522,-1.5542,-1.5773,-1.5853,-1.5806,-1.5526,-1.541,-1.541,-1.541,-1.541,-1.541,-1.541,-1.5127,-1.4814,-1.5019,-1.4648,-1.4116,-1.4385,-1.3994,-1.3506,-1.3506,-1.3203,-1.2881,-1.2881,-1.2881,-1.2881,-1.2881,-1.2881,-1.2881,-1.2881,-1.2881,-1.2881,-1.2881,-1.2881,-1.2881,-1.2881,-1.2881,-1.2881,-1.2881,-1.2881,-1.2881,-1.2783,-1.2783,-1.2783,-1.2676,-1.2627,-1.2578,-1.2578,-1.1968,-1.1601,-1.1601,-1.083,-1.021,-0.9917,-0.9614,-0.9309,-0.9008,-0.891,-0.891,-0.891,-0.8857,-0.8804,-0.8804,-0.8804,-0.8804,-0.8804,-0.8804,-0.8804,-0.8804,-0.8804,-0.8804,-0.8752,-0.8474,-0.8309,-0.8315,-0.7996,-0.7723,-0.7509,-1.6546,-1.7111,-1.7652,-1.8186,-1.8267,-1.8255,-1.8363,-1.8417,-1.8417,-1.8417,-1.8417,-1.8417,-1.8417,-1.7556,-1.7722,-1.9643,-1.9226,-1.8975,-1.9146,-1.9552,-1.9798,-1.9798,-1.9708,-1.9604,-1.9604,-1.942,-1.8999,-1.8441,-1.8441,-1.8375,-1.8267,-1.7644,-1.7368,-1.7313,-1.6698,-1.6472,-1.6472,-1.6472,-1.6472,-1.6472,-1.6472,-1.6472,-1.6415,-1.5921,-1.5633,-1.5526,-1.5526,-1.5468,-1.541,-1.541,-1.5176,-1.4951,-1.5303,-1.4922,-1.4424,-1.4785,-1.4336,-1.3711,-1.3633,-1.3311,-1.2969,-1.29,-1.2881,-1.2881,-1.2881,-1.2881,-1.2881,-1.2881,-1.2881,-1.2881,-1.2881,-1.2881,-1.2881,-1.2881,-1.2881,-1.2881,-1.2881,-1.2881,-1.2881,-1.2881,-1.2881,-1.2881,-1.2881,-1.2783,-1.2725,-1.2725,-1.2166,-1.181,-1.181,-1.1233,-1.0669,-1.0167,-1.0012,-0.9658,-0.9211,-0.9113,-0.9061,-0.9008,-0.891,-0.8804,-0.8804,-0.8804,-0.8804,-0.8804,-0.8804,-0.8804,-0.8804,-0.8804,-0.8804,-0.8804,-0.8804,-0.8804,-0.8804,-0.8804,-0.8474,-0.8037,-1.6616,-1.7335,-1.8174,-1.875,-1.8881,-1.9028,-1.9488,-1.9592,-1.9592,-1.9592,-1.9592,-1.9592,-1.9592,-1.9423,-1.9475,-1.9747,-1.9695,-1.9643,-1.9708,-1.9759,-1.9798,-1.9798,-1.9798,-1.9747,-1.9747,-1.9759,-1.9512,-1.9064,-1.8946,-1.8881,-1.8881,-1.8255,-1.7984,-1.7929,-1.7368,-1.709,-1.709,-1.709,-1.709,-1.709,-1.709,-1.709,-1.709,-1.6978,-1.6641,-1.6197,-1.6197,-1.5853,-1.541,-1.541,-1.5371,-1.5342,-1.5391,-1.5332,-1.5254,-1.5312,-1.499,-1.4531,-1.415,-1.374,-1.334,-1.2969,-1.2881,-1.2881,-1.2881,-1.2881,-1.2881,-1.2881,-1.2881,-1.2881,-1.2881,-1.2881,-1.2881,-1.2881,-1.2881,-1.2881,-1.2881,-1.2881,-1.2881,-1.2881,-1.2881,-1.2881,-1.2881,-1.2881,-1.2881,-1.2881,-1.2783,-1.2725,-1.2725,-1.171,-1.104,-1.0864,-0.9969,-0.9413,-0.9211,-0.9159,-0.9159,-0.9159,-0.9061,-0.891,-0.8804,-0.8804,-0.8804,-0.8804,-0.8804,-0.8804,-0.8804,-0.8804,-0.8804,-0.8804,-0.8804,-0.8804,-0.8804,-0.8804,-0.8752,-0.8699,-1.8276,-1.897,-1.9463,-1.9436,-1.9695,-1.9952,-2.0207,-2.0003,-1.9901,-2.0207,-2.0003,-1.9798,-1.9798,-1.9798,-1.9798,-1.9798,-1.9798,-1.9798,-1.9798,-1.9798,-1.9798,-1.9798,-2.0105,-2.0105,-1.9798,-2.0016,-1.9914,-1.942,-1.9356,-1.9303,-1.921,-1.8881,-1.8721,-1.8667,-1.7984,-1.7699,-1.7699,-1.7699,-1.7699,-1.7699,-1.7699,-1.7699,-1.7644,-1.7313,-1.7034,-1.6754,-1.6415,-1.614,-1.5864,-1.5517,-1.541,-1.541,-1.541,-1.541,-1.541,-1.541,-1.5117,-1.4746,-1.4551,-1.4189,-1.3818,-1.3623,-1.3408,-1.3232,-1.3232,-1.3047,-1.2881,-1.2881,-1.2881,-1.2881,-1.2881,-1.2881,-1.2881,-1.2881,-1.2881,-1.2881,-1.2881,-1.2881,-1.2881,-1.2881,-1.2881,-1.2881,-1.2881,-1.2881,-1.2881,-1.2881,-1.2881,-1.2783,-1.248,-1.1968,-1.1401,-1.0685,-1.0233,-0.9777,-0.9413,-0.9361,-0.9309,-0.9316,-0.9113,-0.8962,-0.891,-0.8857,-0.8804,-0.8804,-0.8804,-0.8804,-0.8804,-0.8804,-0.8804,-0.8804,-0.8804,-0.8804,-0.8804,-0.8804,-0.8804,-0.8804]},{"header":{"parameterUnit":"m.s-1","parameterCategory":1,"la1":30.6,"la2":28.766,"lo1":-90.7593,"lo2":-88.6598,"dy":0.0162,"dx":0.0183,"nx":116,"ny":114,"refTime":"2024-07-08T18:00:00:Z","depth":0,"parameterNumber":3,"parameterNumberName":"V-component_of_WINDS"},"data":[0.0,0.0,0.0,0.0,0.0,0.0,0.0,0.0,0.0,0.0,0.0,0.0,0.0,0.0,0.0,0.0,0.0,0.0,0.0,0.0,0.0,0.0,0.0,0.0,0.0,0.0,0.0,0.0,0.0,0.0,0.0,0.0,0.0,0.0,0.0,0.0,0.0,0.0,0.0,0.0,0.0,0.0,0.0,0.0,0.0,0.0,0.0,0.0,0.0,0.0,0.0,0.0,0.0,0.0,0.0,0.0,0.0,0.0,0.0,0.0,0.0,0.0,0.0,0.0,0.0,0.0,0.0,0.0,0.0,0.0,0.0,0.0,0.0,0.0,0.0,0.0,0.0,0.0,0.0,0.0,0.0,0.0,0.0,0.0,0.0,0.0,0.0,0.0,0.0,0.0,0.0,0.0,0.0,0.0,0.0,0.0,0.0,0.0,0.0,0.0,0.0,0.0,0.0,0.0,0.0,0.0,0.0,0.0,0.0,0.0,0.0,0.0,0.0,0.0,0.0,0.0,0.0,0.0,0.0,0.0,0.0,0.0,0.0,0.0,0.0,0.0,0.0,0.0,0.0,0.0,0.0,0.0,0.0,0.0,0.0,0.0,0.0,0.0,0.0,0.0,0.0,0.0,0.0,0.0,0.0,0.0,0.0,0.0,0.0,0.0,0.0,0.0,0.0,0.0,0.0,0.0,0.0,0.0,0.0,0.0,0.0,0.0,0.0,0.0,0.0,0.0,0.0,0.0,0.0,0.0,0.0,0.0,0.0,0.0,0.0,0.0,0.0,0.0,0.0,0.0,0.0,0.0,0.0,0.0,0.0,0.0,0.0,0.0,0.0,0.0,0.0,0.0,0.0,0.0,0.0,0.0,0.0,0.0,0.0,0.0,0.0,0.0,0.0,0.0,0.0,0.0,0.0,0.0,0.0,0.0,0.0,0.0,0.0,0.0,0.0,0.0,0.0,0.0,0.0,0.0,0.0,0.0,0.0,0.0,0.0,0.0,0.0,0.0,0.0,0.0,0.0,0.0,0.0,0.0,0.0,0.0,0.0,0.0,0.0,0.0,0.0,0.0,0.0,0.0,0.0,0.0,0.0,0.0,0.0,0.0,0.0,0.0,0.0,0.0,0.0,0.0,0.0,0.0,0.0,0.0,0.0,0.0,0.0,0.0,0.0,0.0,0.0,0.0,0.0,0.0,0.0,0.0,0.0,0.0,0.0,0.0,0.0,0.0,0.0,0.0,0.0,0.0,0.0,0.0,0.0,0.0,0.0,0.0,0.0,0.0,0.0,0.0,0.0,0.0,0.0,0.0,0.0,0.0,0.0,0.0,0.0,0.0,0.0,0.0,0.0,0.0,0.0,0.0,0.0,0.0,0.0,0.0,0.0,0.0,0.0,0.0,0.0,0.0,0.0,0.0,0.0,0.0,0.0,0.0,0.0,0.0,0.0,0.0,0.0,0.0,0.0,0.0,0.0,0.0,0.0,0.0,0.0,0.0,0.0,0.0,0.0,0.0,0.0,0.0,0.0,0.0,0.0,0.0,0.0,0.0,0.0,0.0,0.0,0.0,0.0,0.0,0.0,0.0,0.0,0.0,0.0,0.0,0.0,0.0,0.0,0.0,0.0,0.0,0.0,0.0,0.0,0.0,0.0,0.0,0.0,0.0,0.0,0.0,0.0,0.0,0.0,0.0,0.0,0.0,0.0,0.0,0.0,0.0,0.0,0.0,0.0,0.0,0.0,0.0,0.0,0.0,0.0,0.0,0.0,0.0,0.0,0.0,0.0,0.0,0.0,0.0,0.0,0.0,0.0,0.0,0.0,0.0,0.0,0.0,0.0,0.0,0.0,0.0,0.0,0.0,0.0,0.0,0.0,0.0,0.0,0.0,0.0,0.0,0.0,0.0,0.0,0.0,0.0,0.0,0.0,0.0,0.0,0.0,0.0,0.0,0.0,0.0,0.0,0.0,0.0,0.0,0.0,0.0,0.0,0.0,0.0,0.0,0.0,0.0,0.0,0.0,0.0,0.0,0.0,0.0,0.0,0.0,0.0,0.0,0.0,0.0,0.0,0.0,0.0,0.0,0.0,0.0,0.0,0.0,0.0,0.0,0.0,0.0,0.0,0.0,0.0,0.0,0.0,0.0,0.0,0.0,0.0,0.0,0.0,0.0,0.0,0.0,0.0,0.0,0.0,0.0,0.0,0.0,0.0,0.0,0.0,0.0,0.0,0.0,0.0,0.0,0.0,0.0,0.0,0.0,0.0,0.0,0.0,0.0,0.0,0.0,0.0,0.0,0.0,0.0,0.0,0.0,0.0,0.0,0.0,0.0,0.0,0.0,0.0,0.0,0.0,0.0,0.0,0.0,0.0,0.0,0.0,0.0,0.0,0.0,0.0,0.0,0.0,0.0,0.0,0.0,0.0,0.0,0.0,0.0,0.0,0.0,0.0,0.0,0.0,0.0,0.0,0.0,0.0,0.0,0.0,0.0,0.0,0.0,0.0,0.0,0.0,0.0,0.0,0.0,0.0,0.0,0.0,0.0,0.0,0.0,0.0,0.0,0.0,0.0,0.0,0.0,0.0,0.0,0.0,0.0,0.0,0.0,0.0,0.0,0.0,0.0,0.0,0.0,0.0,0.0,0.0,0.0,0.0,0.0,0.0,0.0,0.0,0.0,0.0,0.0,0.0,0.0,0.0,0.0,0.0,0.0,0.0,0.0,0.0,0.0,0.0,0.0,0.0,0.0,0.0,0.0,0.0,0.0,0.0,0.0,0.0,0.0,0.0,0.0,0.0,0.0,0.0,0.0,0.0,0.0,0.0,0.0,0.0,0.0,0.0,0.0,0.0,0.0,0.0,0.0,0.0,0.0,0.0,0.0,0.0,0.0,0.0,0.0,0.0,0.0,0.0,0.0,0.0,0.0,0.0,0.0,0.0,0.0,0.0,0.0,0.0,0.0,0.0,0.0,0.0,0.0,0.0,0.0,0.0,0.0,0.0,0.0,0.0,0.0,0.0,0.0,0.0,0.0,0.0,0.0,0.0,0.0,0.0,0.0,0.0,0.0,0.0,0.0,0.0,0.0,0.0,0.0,0.0,0.0,0.0,0.0,0.0,0.0,0.0,0.0,0.0,0.0,0.0,0.0,0.0,0.0,0.0,0.0,0.0,0.0,0.0,0.0,0.0,0.0,0.0,0.0,0.0,0.0,0.0,0.0,0.0,0.0,0.0,0.0,0.0,0.0,0.0,0.0,0.0,0.0,0.0,0.0,0.0,0.0,0.0,0.0,0.0,0.0,0.0,0.0,0.0,0.0,0.0,0.0,0.0,0.0,0.0,0.0,0.0,0.0,0.0,0.0,0.0,0.0,0.0,0.0,0.0,0.0,0.0,0.0,0.0,0.0,0.0,0.0,0.0,0.0,0.0,0.0,0.0,0.0,0.0,0.0,0.0,0.0,0.0,0.0,0.0,0.0,0.0,0.0,0.0,0.0,0.0,0.0,0.0,0.0,0.0,0.0,0.0,0.0,0.0,0.0,0.0,0.0,0.0,0.0,0.0,0.0,0.0,0.0,0.0,0.0,0.0,0.0,0.0,0.0,0.0,0.0,0.0,0.0,0.0,0.0,0.0,0.0,0.0,0.0,0.0,0.0,0.0,0.0,0.0,0.0,0.0,0.0,0.0,0.0,0.0,0.0,0.0,0.0,0.0,0.0,0.0,0.0,0.0,0.0,0.0,0.0,0.0,0.0,0.0,0.0,0.0,0.0,0.0,0.0,0.0,0.0,0.0,0.0,0.0,0.0,0.0,0.0,0.0,0.0,0.0,0.0,0.0,0.0,0.0,0.0,0.0,0.0,0.0,0.0,0.0,0.0,0.0,0.0,0.0,0.0,0.0,0.0,0.0,0.0,0.0,0.0,0.0,0.0,0.0,0.0,0.0,0.0,0.0,0.0,0.0,0.0,0.0,0.0,0.0,0.0,0.0,0.0,0.0,0.0,0.0,0.0,0.0,0.0,0.0,0.0,0.0,0.0,0.0,0.0,0.0,0.0,0.0,0.0,0.0,0.0,0.0,0.0,0.0,0.0,0.0,0.0,0.0,0.0,0.0,0.0,0.0,0.0,0.0,0.0,0.0,0.0,0.0,0.0,0.0,0.0,0.0,0.0,0.0,0.0,0.0,0.0,0.0,0.0,0.0,0.0,0.0,0.0,0.0,0.0,0.0,0.0,0.0,0.0,0.0,0.0,0.0,0.0,0.0,0.0,0.0,0.0,0.0,0.0,0.0,0.0,0.0,0.0,0.0,0.0,0.0,0.0,0.0,0.0,0.0,0.0,0.0,0.0,0.0,0.0,0.0,0.0,0.0,0.0,0.0,0.0,0.0,0.0,0.0,0.0,0.0,0.0,0.0,0.0,0.0,0.0,0.0,0.0,0.0,0.0,0.0,0.0,0.0,0.0,0.0,0.0,0.0,0.0,0.0,0.0,0.0,0.0,0.0,0.0,0.0,0.0,0.0,0.0,0.0,0.0,0.0,0.0,0.0,0.0,0.0,0.0,0.0,0.0,0.0,0.0,0.0,0.0,0.0,0.0,0.0,0.0,0.0,0.0,0.0,0.0,0.0,0.0,0.0,0.0,0.0,0.0,0.0,0.0,0.0,0.0,0.0,0.0,0.0,0.0,0.0,0.0,0.0,0.0,0.0,0.0,0.0,0.0,0.0,0.0,0.0,0.0,0.0,0.0,0.0,0.0,0.0,0.0,0.0,0.0,0.0,0.0,0.0,0.0,0.0,0.0,0.0,0.0,0.0,0.0,0.0,0.0,0.0,0.0,0.0,0.0,0.0,0.0,0.0,0.0,0.0,0.0,0.0,0.0,0.0,0.0,0.0,0.0,0.0,0.0,0.0,0.0,0.0,0.0,0.0,0.0,0.0,0.0,0.0,0.0,0.0,0.0,0.0,0.0,0.0,0.0,0.0,0.0,0.0,0.0,0.0,0.0,0.0,0.0,0.0,0.0,0.0,0.0,0.0,0.0,0.0,0.0,0.0,0.0,0.0,0.0,0.0,0.0,0.0,0.0,0.0,0.0,0.0,0.0,0.0,0.0,0.0,0.0,0.0,0.0,0.0,0.0,0.0,0.0,0.0,0.0,0.0,0.0,0.0,0.0,0.0,0.0,0.0,0.0,0.0,0.0,0.0,0.0,0.0,0.0,0.0,0.0,0.0,0.0,0.0,0.0,0.0,0.0,0.0,0.0,0.0,0.0,0.0,0.0,0.0,0.0,0.0,0.0,0.0,0.0,0.0,0.0,0.0,0.0,0.0,0.0,0.0,0.0,0.0,0.0,0.0,0.0,0.0,0.0,0.0,0.0,0.0,0.0,0.0,0.0,0.0,0.0,0.0,0.0,0.0,0.0,0.0,0.0,0.0,0.0,0.0,0.0,0.0,0.0,0.0,0.0,0.0,0.0,0.0,0.0,0.0,0.0,0.0,0.0,0.0,0.0,0.0,0.0,0.0,0.0,0.0,0.0,0.0,0.0,0.0,0.0,0.0,0.0,0.0,0.0,0.0,0.0,0.0,0.0,0.0,0.0,0.0,0.0,0.0,0.0,0.0,0.0,0.0,0.0,0.0,0.0,0.0,0.0,0.0,0.0,0.0,0.0,0.0,0.0,0.0,0.0,0.0,0.0,0.0,0.0,0.0,0.0,0.0,0.0,0.0,0.0,0.0,0.0,0.0,0.0,0.0,0.0,0.0,0.0,0.0,0.0,0.0,0.0,0.0,0.0,0.0,0.0,0.0,0.0,0.0,0.0,0.0,0.0,0.0,0.0,0.0,0.0,0.0,0.0,0.0,0.0,0.0,0.0,0.0,0.0,0.0,0.0,0.0,0.0,0.0,0.0,0.0,0.0,0.0,0.0,0.0,0.0,0.0,0.0,0.0,0.0,0.0,0.0,0.0,0.0,0.0,0.0,0.0,0.0,0.0,0.0,0.0,0.0,0.0,0.0,0.0,0.0,0.0,0.0,0.0,0.0,0.0,0.0,0.0,0.0,0.0,0.0,0.0,0.0,0.0,0.0,0.0,0.0,0.0,0.0,0.0,0.0,0.0,0.0,-1.7928,0.0,0.0,0.0,0.0,0.0,0.0,0.0,0.0,0.0,0.0,0.0,0.0,0.0,0.0,0.0,0.0,0.0,0.0,0.0,0.0,0.0,0.0,0.0,0.0,-0.9605,-0.9677,-0.9735,-0.9773,-0.9832,-0.9942,0.0,0.0,0.0,0.0,0.0,-0.9996,-1.0038,-1.0074,-1.0094,-1.0094,-1.0341,-1.0787,-1.0782,-1.0571,-1.0191,0.0,0.0,0.0,0.0,0.0,0.0,0.0,0.0,0.0,0.0,0.0,0.0,0.0,0.0,0.0,0.0,0.0,0.0,0.0,0.0,0.0,0.0,0.0,0.0,0.0,0.0,0.0,0.0,0.0,0.0,0.0,0.0,0.0,0.0,0.0,0.0,0.0,0.0,0.0,0.0,0.0,0.0,0.0,0.0,0.0,0.0,0.0,0.0,0.0,0.0,0.0,0.0,0.0,0.0,0.0,0.0,0.0,0.0,0.0,0.0,0.0,0.0,0.0,0.0,0.0,0.0,0.0,0.0,0.0,0.0,0.0,-1.9321,0.0,0.0,0.0,0.0,0.0,0.0,0.0,0.0,0.0,0.0,0.0,0.0,0.0,0.0,0.0,0.0,0.0,0.0,0.0,0.0,0.0,-0.8698,-0.9618,-0.9761,-0.9796,-0.9793,-0.9857,-0.9931,-1.0001,0.0,0.0,0.0,0.0,-1.0029,-1.0029,-1.0078,-1.0094,-1.0094,-1.0248,-1.0771,-1.1622,-1.1636,-1.1279,0.0,-1.0703,0.0,0.0,0.0,0.0,0.0,0.0,0.0,0.0,0.0,0.0,0.0,0.0,0.0,0.0,0.0,0.0,0.0,0.0,0.0,0.0,0.0,0.0,0.0,0.0,0.0,0.0,0.0,0.0,0.0,0.0,0.0,0.0,0.0,0.0,0.0,0.0,0.0,0.0,0.0,0.0,0.0,0.0,0.0,0.0,0.0,0.0,0.0,0.0,0.0,0.0,0.0,0.0,0.0,0.0,0.0,0.0,0.0,0.0,0.0,0.0,0.0,0.0,0.0,-2.1558,-2.1695,-2.1864,-2.2588,-2.2916,-2.2838,-2.1464,-2.1711,-2.2945,-2.084,0.0,0.0,0.0,0.0,0.0,0.0,0.0,0.0,0.0,0.0,0.0,0.0,0.0,0.0,0.0,0.0,0.0,0.0,0.0,-0.88,-0.9691,-0.9787,-0.9808,-0.9789,-0.9863,-0.9931,-1.0001,0.0,0.0,0.0,-1.0086,-1.0086,-1.0086,-1.0094,-1.0094,-1.0094,-1.0867,-1.168,-1.2526,0.0,0.0,0.0,-1.2412,-1.2423,0.0,0.0,0.0,0.0,0.0,0.0,0.0,0.0,0.0,0.0,0.0,0.0,0.0,0.0,0.0,0.0,0.0,0.0,0.0,0.0,0.0,0.0,0.0,0.0,0.0,0.0,0.0,0.0,0.0,0.0,0.0,0.0,0.0,0.0,0.0,0.0,0.0,0.0,0.0,0.0,0.0,0.0,-1.4082,-1.4961,0.0,0.0,0.0,0.0,0.0,0.0,0.0,0.0,0.0,0.0,0.0,0.0,0.0,-2.1763,-2.276,-2.3403,-2.416,-2.5017,-2.5718,-2.6459,-2.7199,-2.7297,-2.7355,-2.7359,-2.7171,0.0,-2.3075,-2.2734,0.0,0.0,0.0,0.0,0.0,0.0,0.0,0.0,0.0,0.0,0.0,0.0,0.0,0.0,0.0,0.0,0.0,0.0,0.0,0.0,0.0,-0.9768,-0.9796,-0.9793,-0.9857,-0.9923,0.0,0.0,0.0,-1.0094,-1.0094,-1.0094,-1.0094,-1.0579,-1.1079,-1.1564,-1.1949,-1.2834,0.0,0.0,0.0,0.0,-1.5644,-1.4595,0.0,0.0,0.0,0.0,0.0,0.0,0.0,0.0,0.0,0.0,0.0,0.0,0.0,0.0,0.0,0.0,0.0,0.0,0.0,0.0,0.0,0.0,0.0,0.0,0.0,0.0,0.0,0.0,0.0,0.0,0.0,0.0,0.0,0.0,0.0,0.0,0.0,0.0,0.0,0.0,0.0,-1.406,-1.5331,-1.6699,-1.6851,-1.7004,0.0,0.0,0.0,0.0,0.0,0.0,0.0,0.0,0.0,-2.3205,-2.3731,-2.4394,-2.5231,-2.6108,-2.6732,-2.7102,-2.7452,-2.7823,-2.8193,-2.8193,-2.8193,-2.8197,-2.8278,-2.7426,-2.5947,-2.4961,-2.4269,-2.3775,0.0,0.0,0.0,0.0,-2.2738,-2.2151,0.0,0.0,0.0,0.0,0.0,0.0,0.0,0.0,0.0,0.0,0.0,0.0,-0.964,-0.9768,-0.9803,-0.9799,0.0,0.0,0.0,0.0,0.0,-1.0078,-1.009,-1.0094,-1.0094,-1.0944,-1.2045,-1.3335,-1.3335,0.0,0.0,0.0,0.0,0.0,0.0,0.0,0.0,0.0,0.0,0.0,0.0,0.0,0.0,0.0,0.0,0.0,0.0,0.0,0.0,0.0,0.0,0.0,0.0,0.0,0.0,0.0,0.0,0.0,0.0,0.0,0.0,0.0,0.0,0.0,0.0,0.0,0.0,0.0,0.0,0.0,0.0,0.0,0.0,0.0,0.0,0.0,0.0,-1.5737,-1.7109,-1.8195,-1.8717,-1.8888,0.0,0.0,0.0,0.0,0.0,0.0,-2.2741,-2.2789,-2.3587,-2.5329,-2.5991,-2.6634,-2.7238,-2.7881,-2.831,-2.8524,-2.8524,-2.866,-2.8875,-2.8875,-2.8879,-2.8879,-2.8918,-2.8808,-2.8483,-2.6991,-2.598,-2.5336,-2.4672,-2.4438,-2.4518,-2.5162,-2.4985,-2.4612,0.0,0.0,0.0,0.0,0.0,0.0,0.0,0.0,0.0,0.0,0.0,-0.9591,0.0,0.0,0.0,0.0,0.0,0.0,0.0,0.0,0.0,-0.9996,-1.0074,-1.0094,-1.0094,-1.0944,0.0,0.0,0.0,0.0,0.0,0.0,0.0,0.0,0.0,0.0,0.0,0.0,0.0,0.0,0.0,0.0,0.0,0.0,0.0,0.0,0.0,0.0,0.0,0.0,0.0,0.0,0.0,0.0,0.0,0.0,0.0,0.0,0.0,0.0,0.0,0.0,0.0,0.0,0.0,0.0,0.0,0.0,0.0,0.0,0.0,0.0,0.0,0.0,0.0,0.0,0.0,0.0,0.0,-1.9317,-2.0636,0.0,0.0,0.0,0.0,-2.1672,-2.2487,-2.3715,-2.5407,-2.5504,-2.6264,-2.7959,-2.8056,-2.8095,-2.8134,-2.8178,-2.8626,-2.9425,-2.9425,-2.9868,-3.0662,-3.0662,-3.0662,-3.0672,-3.0675,-3.0194,-2.937,-2.8511,-2.8149,-2.809,-2.8067,-2.8045,-2.8045,-2.8086,-2.8088,-2.8049,0.0,0.0,0.0,-0.912,-0.9109,-0.912,-0.9171,-0.9243,-0.9349,-0.9507,-0.9573,0.0,0.0,0.0,0.0,0.0,0.0,0.0,0.0,0.0,-1.0242,-1.0813,-1.0899,-1.1445,-1.2517,-1.3401,-1.458,0.0,0.0,0.0,0.0,0.0,0.0,0.0,0.0,0.0,0.0,0.0,0.0,0.0,0.0,0.0,0.0,0.0,0.0,0.0,0.0,0.0,0.0,0.0,0.0,0.0,0.0,0.0,0.0,0.0,0.0,0.0,0.0,0.0,0.0,0.0,0.0,0.0,0.0,0.0,0.0,0.0,0.0,0.0,0.0,0.0,0.0,0.0,0.0,0.0,0.0,0.0,0.0,-2.165,-2.2263,0.0,-2.2197,-2.2964,-2.3708,-2.4277,-2.5075,-2.6069,-2.7258,-2.7316,-2.7589,-2.8173,-2.8734,-2.905,-2.9031,-2.9596,-3.0024,-3.0336,-3.0336,-3.0492,-3.0799,-3.0799,-3.0799,-3.0808,-3.08,-3.0618,-3.0308,-3.0025,-2.9279,-2.8301,-2.8298,-2.8298,-2.8298,-2.8301,-2.8303,-2.8303,-0.9231,-0.9243,0.0,-0.9214,-0.9204,-0.9214,-0.9234,-0.9303,-0.9412,-0.9516,-0.9599,-0.9669,0.0,0.0,0.0,0.0,0.0,0.0,0.0,0.0,-1.0245,-1.0798,-1.1464,-1.2603,-1.4305,-1.5189,0.0,0.0,0.0,0.0,0.0,0.0,0.0,0.0,0.0,0.0,0.0,0.0,0.0,0.0,0.0,0.0,-1.4091,0.0,0.0,0.0,0.0,0.0,0.0,0.0,0.0,0.0,0.0,0.0,0.0,0.0,0.0,0.0,0.0,0.0,0.0,0.0,0.0,0.0,0.0,0.0,0.0,0.0,0.0,0.0,0.0,0.0,0.0,0.0,0.0,0.0,0.0,0.0,-2.2185,-2.2995,-2.387,-2.4298,-2.4015,-2.5032,-2.5944,-2.6493,-2.7039,-2.7722,-2.8599,-2.8645,-2.8762,-2.9071,-2.9916,-3.0239,-2.9946,-3.0804,-3.1096,-3.0799,-3.0799,-3.0799,-3.0804,-3.0807,-3.0801,-3.0804,-3.0797,-3.0801,-3.0801,-3.0801,-3.0155,-2.914,-2.914,-2.914,-2.914,-2.914,-2.9142,-2.9142,-0.9394,-0.9394,-0.9412,-0.9394,-0.9403,-0.9421,-0.9491,-0.9508,-0.9534,-0.9597,-0.9665,0.0,0.0,0.0,0.0,0.0,0.0,0.0,0.0,-0.9937,-1.0003,-0.9994,-1.1729,-1.3517,-1.5189,0.0,0.0,0.0,0.0,0.0,0.0,0.0,0.0,0.0,0.0,0.0,0.0,0.0,0.0,0.0,0.0,0.0,-1.6467,0.0,0.0,0.0,0.0,0.0,0.0,0.0,0.0,0.0,0.0,0.0,0.0,0.0,0.0,0.0,0.0,0.0,0.0,0.0,0.0,0.0,0.0,0.0,0.0,0.0,0.0,0.0,0.0,0.0,0.0,0.0,0.0,0.0,-2.0847,-2.2877,-2.4143,-2.3322,-2.5471,-2.6708,-2.5859,-2.7304,-2.828,-2.824,-2.8237,-2.8625,-2.9523,-2.9577,-2.9987,-3.0858,-3.1707,-3.1744,-3.0896,-3.1719,-3.1724,-3.0886,-3.0886,-3.0867,-3.0832,-3.0839,-3.0841,-3.0841,-3.0801,-3.0821,-3.0841,-3.0801,-3.0821,-3.0841,-3.0801,-3.0801,-3.0801,-3.0801,-3.0801,-3.0801,-0.9303,-0.9376,-0.9465,-0.9412,-0.9394,-0.9421,-0.95,-0.9593,-0.9649,-0.9665,0.0,0.0,0.0,0.0,0.0,0.0,0.0,0.0,-0.9801,0.0,-1.0576,-1.1877,-1.4186,0.0,0.0,0.0,0.0,0.0,0.0,0.0,0.0,0.0,0.0,0.0,0.0,0.0,0.0,0.0,0.0,0.0,0.0,0.0,-1.7359,0.0,0.0,0.0,0.0,0.0,0.0,0.0,0.0,0.0,0.0,0.0,0.0,0.0,0.0,0.0,0.0,0.0,0.0,0.0,0.0,0.0,0.0,0.0,0.0,0.0,0.0,0.0,0.0,0.0,0.0,0.0,-2.2032,-2.3632,-2.3382,-2.4495,-2.549,-2.5881,-2.7122,-2.785,-2.7617,-2.8027,-2.8533,-2.9096,-2.9146,-2.9804,-3.1307,-3.1397,-3.1784,-3.2662,-3.2915,-3.2931,-3.2679,-3.2913,-3.2921,-3.2695,-3.2695,-3.2343,-3.1738,-3.1747,-3.1736,-3.1714,-3.1072,-3.1153,-3.1699,-3.1055,-3.1172,-3.168,-3.1055,-3.0801,-3.0801,-3.0801,-3.0801,-3.0801,-0.943,-0.9499,-0.9565,-0.954,-0.953,-0.9547,-0.9615,-0.9687,-0.9743,-0.9754,-0.9772,0.0,0.0,0.0,0.0,0.0,0.0,0.0,-0.9837,-1.0226,-1.1433,0.0,0.0,0.0,0.0,0.0,0.0,0.0,0.0,0.0,0.0,0.0,0.0,0.0,0.0,0.0,0.0,0.0,0.0,0.0,0.0,0.0,-1.872,-1.7549,-1.7325,-1.7476,-1.6115,-1.542,-1.5012,-1.4175,0.0,0.0,0.0,0.0,0.0,0.0,0.0,0.0,0.0,0.0,0.0,0.0,0.0,0.0,0.0,0.0,0.0,0.0,0.0,0.0,0.0,0.0,0.0,0.0,-2.404,-2.5625,-2.5978,-2.6466,-2.6974,-2.7481,-2.8312,-2.8843,-2.8843,-2.9471,-3.0097,-3.0547,-3.0935,-3.1577,-3.2593,-3.2635,-3.2889,-3.3389,-3.3746,-3.3766,-3.339,-3.3761,-3.3769,-3.3398,-3.3398,-3.3124,-3.2634,-3.2634,-3.2634,-3.2611,-3.2107,-3.2187,-3.2617,-3.2109,-3.2187,0.0,0.0,0.0,0.0,0.0,-3.0801,-3.0801,-0.9657,-0.9698,-0.9703,-0.9702,-0.971,-0.9735,-0.9801,-0.9801,-0.9794,-0.9798,0.0,0.0,0.0,0.0,0.0,0.0,0.0,0.0,0.0,0.0,0.0,-1.4976,0.0,0.0,0.0,0.0,0.0,0.0,0.0,0.0,0.0,0.0,0.0,0.0,0.0,0.0,0.0,0.0,0.0,0.0,0.0,0.0,-2.0127,-1.854,-1.844,-1.8996,-1.8173,-1.7396,-1.6626,-1.5902,0.0,0.0,0.0,0.0,0.0,0.0,0.0,0.0,0.0,0.0,0.0,0.0,0.0,0.0,0.0,0.0,0.0,0.0,0.0,0.0,0.0,0.0,0.0,0.0,-2.6093,-2.7559,-2.8342,-2.8518,-2.8557,-2.8459,-2.9201,-2.9767,-2.9865,-3.1231,-3.2135,-3.2243,-3.2967,-3.3437,-3.3534,0.0,0.0,0.0,0.0,-3.4482,-3.3707,-3.4468,-3.4468,-3.3685,-3.3685,-3.3646,-3.3548,-3.3548,-3.3551,-3.3532,-3.3437,-3.3456,-3.3534,-3.3437,-3.3456,-3.3456,-3.248,-3.209,-3.1992,-3.1114,-3.0801,-3.0801,-0.9611,-0.9672,-0.9721,-0.9765,-0.9791,-0.978,-0.9801,-0.9801,-0.9801,-0.9801,-0.9801,0.0,0.0,0.0,0.0,0.0,0.0,0.0,0.0,0.0,0.0,0.0,0.0,0.0,0.0,0.0,0.0,0.0,0.0,0.0,0.0,0.0,0.0,0.0,0.0,0.0,0.0,0.0,0.0,0.0,0.0,0.0,-2.0185,-1.9214,-1.8943,-1.8982,-1.8125,-1.7713,-1.7534,-1.7394,-1.7268,-1.7023,-1.623,0.0,0.0,0.0,0.0,0.0,0.0,0.0,0.0,0.0,0.0,0.0,0.0,0.0,0.0,0.0,0.0,0.0,0.0,0.0,0.0,-2.5281,-2.7503,-2.916,-2.9316,-2.9901,-3.0079,-2.9435,-3.0079,-3.0841,-3.1543,-3.1914,-3.2385,-3.3109,-3.3305,-3.3717,-3.442,-3.4459,-3.4769,-3.5467,-3.5654,-3.5673,-3.5503,-3.5659,-3.5659,-3.5503,0.0,0.0,-3.4449,-3.4449,-3.4449,-3.441,-3.3707,-3.3807,-3.4393,-3.369,-3.3807,-3.4295,-3.2714,-3.209,-3.1992,-3.1114,-3.0801,-3.0801,-0.9701,-0.971,-0.9728,-0.9791,-0.9791,-0.9798,-0.9801,-0.9801,-0.9808,-0.9796,-0.9789,0.0,0.0,0.0,0.0,0.0,0.0,0.0,0.0,0.0,0.0,0.0,0.0,0.0,0.0,0.0,0.0,0.0,0.0,0.0,0.0,0.0,0.0,0.0,0.0,0.0,0.0,0.0,0.0,0.0,0.0,0.0,-2.0302,-1.9896,-1.9742,-1.9684,-1.9259,-1.8813,-1.8449,-1.8449,-1.8217,-1.7828,-1.7435,-1.7007,-1.6667,0.0,0.0,0.0,0.0,0.0,0.0,0.0,0.0,0.0,0.0,0.0,0.0,0.0,0.0,-2.2244,-2.3553,0.0,-2.6127,-2.7439,-2.876,-2.9745,-3.0194,-3.0606,-3.0684,-3.0255,-3.0567,-3.1133,-3.2012,-3.248,-3.3105,-3.3983,-3.4452,-3.4901,-3.533,-3.5347,-3.5542,-3.5991,-3.5991,-3.5991,-3.5991,-3.5991,-3.5991,-3.5991,-3.5991,-3.5776,-3.5347,-3.5349,-3.5349,-3.5327,-3.4898,-3.4959,-3.533,-3.4881,-3.4959,-3.5213,-3.3905,-3.3398,-3.33,-3.2422,-3.2109,-3.2109,-0.9798,-0.9754,-0.9735,-0.9798,-0.9798,-0.9805,-0.9801,-0.9808,-0.9796,-0.9791,-0.9803,-0.981,-0.9799,-0.9793,-0.9968,0.0,0.0,0.0,0.0,0.0,0.0,0.0,0.0,0.0,0.0,0.0,0.0,0.0,0.0,0.0,0.0,0.0,0.0,0.0,0.0,0.0,0.0,0.0,0.0,0.0,0.0,0.0,-2.0656,-2.0656,-2.0553,-2.0399,-2.0399,-1.9954,-1.9341,-1.935,-1.8915,-1.8363,-1.8192,-1.766,-1.7204,-1.7815,-1.7497,0.0,0.0,0.0,0.0,0.0,0.0,0.0,0.0,0.0,-2.1893,-2.2926,-2.367,-2.453,-2.5957,-2.6912,-2.7965,-2.9375,-2.9741,-3.0103,-3.0801,-3.0901,-3.0882,-3.0823,-3.0821,-3.1211,-3.2246,-3.2988,-3.3827,-3.4861,-3.5603,-3.5991,-3.5991,-3.5991,-3.5991,-3.5991,-3.5991,-3.5991,-3.5991,-3.5991,-3.5991,-3.5991,-3.5991,-3.5991,-3.5991,-3.5991,-3.5991,-3.5991,-3.5991,-3.5991,-3.5991,-3.5991,-3.5994,-3.5938,-3.5235,-3.4942,-3.4827,-3.3771,-3.34,-3.34,-0.9801,-0.9801,-0.9801,-0.9801,-0.9801,-0.9801,-0.9801,-0.9796,-0.9791,-0.9798,-0.9805,-0.9799,-0.9806,-0.9806,-1.0426,0.0,0.0,0.0,0.0,0.0,0.0,0.0,0.0,0.0,0.0,0.0,0.0,0.0,0.0,0.0,0.0,0.0,0.0,0.0,0.0,0.0,0.0,0.0,0.0,0.0,0.0,0.0,-2.1553,-2.1553,-2.1062,-2.0399,-2.0399,-2.0341,-2.0244,-2.025,-2.0192,-1.9999,-1.9213,-1.8904,-1.8709,-1.8164,0.0,-1.8047,-1.8926,-2.0352,-2.1621,-2.1738,-2.2344,-2.3496,0.0,0.0,-2.5605,-2.7246,-2.7656,-2.7773,-2.7969,-2.8711,-2.9375,-2.957,-3.0254,-3.0799,-3.0882,-3.0907,-3.0894,-3.0894,-3.0886,-3.1504,-3.3105,-3.3339,-3.4081,-3.574,-3.5932,-3.5991,-3.5991,-3.5991,-3.5991,-3.5991,-3.5991,-3.5991,-3.5991,-3.5991,-3.5991,-3.5991,-3.5991,-3.5991,-3.5991,-3.5991,-3.5991,-3.5991,-3.5991,-3.5991,-3.5991,-3.5991,-3.6001,-3.5989,-3.5891,-3.5852,-3.5657,-3.4007,-3.3404,-3.3392,-0.9801,-0.9801,-0.9801,-0.9801,-0.9801,-0.9801,-0.9801,-0.9803,-0.9798,-0.9793,-0.9799,-0.9825,-0.9906,-1.0396,-1.1021,-1.1749,0.0,0.0,0.0,0.0,0.0,0.0,0.0,0.0,0.0,0.0,0.0,0.0,0.0,0.0,0.0,0.0,0.0,0.0,0.0,0.0,0.0,0.0,0.0,0.0,0.0,0.0,-2.2404,-2.2404,-2.1875,-2.1082,-2.0579,-2.0399,0.0,0.0,-2.0399,-2.0341,-1.9967,-1.9155,-1.8484,-1.9242,-1.9107,0.0,-2.1621,-2.2422,-2.2969,0.0,-2.5137,-2.582,-2.7402,-2.7461,-2.7422,-2.8144,-2.8691,-2.9062,-2.9062,-2.9766,-3.0351,0.0,-3.0664,-3.0898,-3.0896,-3.0895,-3.0895,-3.0895,-3.1315,-3.207,-3.328,-3.3398,-3.412,-3.5874,-3.5991,-3.5991,-3.5991,-3.5991,-3.5991,-3.5991,-3.5991,-3.5991,-3.5991,-3.5991,-3.5991,-3.5991,-3.5991,-3.5991,-3.5994,-3.6001,-3.6005,-3.6005,-3.6005,-3.6005,-3.6003,-3.5996,-3.5996,-3.6003,-3.6009,-3.5991,-3.5912,-3.5179,-3.4908,-3.4918,-0.9801,-0.9801,-0.9801,-0.9801,-0.9808,-0.9796,-0.9796,-0.9817,-0.9837,-0.9831,-0.985,-0.99,-0.9984,-1.0842,-1.1507,-1.1742,-1.2976,-1.3844,0.0,0.0,0.0,0.0,0.0,0.0,0.0,0.0,0.0,0.0,0.0,0.0,0.0,0.0,0.0,0.0,0.0,0.0,0.0,0.0,0.0,0.0,0.0,0.0,-2.3267,-2.3267,-2.2617,-2.163,-2.0985,-2.0598,0.0,0.0,-2.0399,-2.0399,-2.0399,-1.9529,-1.8819,-2.0386,-2.056,-2.0753,-2.3058,-2.3744,0.0,-2.6152,-2.6992,-2.7559,-2.8457,-2.8652,-2.873,-2.8965,-2.9512,-2.9961,-2.9961,-3.0469,-3.0898,-3.0898,-3.0898,-3.0898,-3.0898,-3.0898,-3.0897,-3.0897,-3.142,-3.2196,-3.3287,-3.3615,-3.4374,-3.5893,-3.5991,-3.5991,-3.5991,-3.5991,-3.5991,-3.5991,-3.5991,-3.5991,-3.5991,-3.5991,-3.5991,-3.5991,-3.5996,-3.5996,-3.5994,-3.6009,-3.5993,-3.5993,-3.5993,-3.5993,-3.5993,-3.6007,-3.6003,-3.6003,-3.5992,-3.5993,-3.5993,-3.6007,-3.6009,-3.5994,-0.9801,-0.9801,-0.9801,-0.9801,-0.9803,-0.9791,-0.9791,-0.985,-0.9894,-0.9894,-0.9961,-0.9984,-1.0006,-1.0846,-1.1742,-1.2584,-1.3426,-1.4238,-1.5004,-1.5801,0.0,0.0,0.0,0.0,0.0,0.0,0.0,0.0,0.0,0.0,0.0,0.0,0.0,0.0,0.0,0.0,0.0,0.0,0.0,0.0,0.0,0.0,-2.4157,-2.4157,-2.3132,-2.1707,-2.1669,0.0,0.0,0.0,-2.0399,-2.0399,-2.0399,-2.036,0.0,-2.1404,-2.2236,0.0,0.0,0.0,-2.5566,-2.5701,-2.6953,-2.8418,-2.9355,-2.9551,-2.9805,-3.0644,-3.084,-3.0859,-3.0859,-3.0879,-3.0898,-3.0898,-3.0898,-3.0898,-3.0898,-3.0898,-3.0898,-3.0898,-3.0918,-3.1582,-3.3238,-3.4168,-3.5037,-3.5932,-3.5991,-3.5991,-3.5991,-3.5991,-3.5991,-3.5991,-3.5991,-3.5991,-3.5991,-3.5991,-3.5991,-3.5994,-3.6005,-3.6005,-3.5994,-3.5994,-3.5996,-3.5996,-3.5996,-3.5996,-3.5996,-3.5996,-3.5996,-3.5996,-3.5996,-3.5996,-3.5996,-3.5996,-3.5996,-3.5996,-0.9801,-0.9801,-0.9801,-0.9801,-0.9803,-0.9811,-0.9869,-0.9894,-0.9893,-0.9893,-0.9991,0.0,0.0,0.0,0.0,0.0,-1.3966,-1.4876,-1.5146,-1.5814,0.0,0.0,0.0,0.0,0.0,0.0,0.0,0.0,0.0,0.0,0.0,0.0,0.0,0.0,0.0,0.0,0.0,0.0,0.0,0.0,0.0,0.0,-2.5066,-2.5066,-2.3983,-2.2501,0.0,0.0,0.0,0.0,-2.0399,0.0,-2.0399,0.0,0.0,-2.1275,0.0,-2.3321,-2.4781,0.0,-2.672,-2.7874,-2.8577,-2.9238,-3.0176,-3.0391,-3.0488,-3.082,-3.0449,-3.0039,-3.0039,-3.0039,-3.0039,-3.0039,-3.0527,-3.0898,-3.0898,-3.0898,-3.1113,-3.1699,-3.2226,0.0,-3.414,-3.4003,0.0,-3.589,-3.5999,-3.5991,-3.5991,-3.5991,-3.5991,-3.5991,-3.5991,-3.5996,-3.6005,-3.6005,-3.6001,-3.5994,-3.5992,-3.5995,-3.5994,-3.5996,-3.5996,-3.5996,-3.5996,-3.5996,-3.6035,-3.6621,-3.6855,-3.6914,-3.75,-3.7363,-3.6855,-3.6855,-3.6504,-3.5996,-0.9801,-0.9801,-0.9801,-0.9801,-0.9823,0.0,0.0,0.0,0.0,0.0,0.0,0.0,0.0,0.0,0.0,0.0,0.0,-1.5237,-1.5195,0.0,0.0,0.0,0.0,0.0,0.0,0.0,0.0,0.0,0.0,0.0,0.0,0.0,0.0,0.0,0.0,0.0,0.0,0.0,0.0,0.0,0.0,0.0,-2.5495,-2.5495,-2.4624,0.0,0.0,0.0,0.0,0.0,0.0,0.0,0.0,0.0,0.0,0.0,-2.275,-2.4262,-2.5944,-2.6845,-2.763,-2.905,-2.9609,-3.0001,-3.0625,-3.0772,-3.0723,-3.0469,-2.9961,-2.9492,-2.9199,-2.9141,-2.9336,-2.9961,-3.0527,-3.1113,-3.1719,-3.1797,-3.1992,-3.2559,-3.3086,-3.3867,0.0,0.0,0.0,-3.5916,-3.601,-3.6005,-3.6001,-3.5996,-3.5994,-3.6001,-3.6309,-3.6309,-3.6005,-3.6617,-3.6929,-3.6925,-3.6933,-3.6934,-3.6934,-3.6934,-3.6934,-3.6914,-3.6601,-3.6641,-3.6953,-3.7207,-3.748,-3.7812,-3.8379,-3.8262,-3.7754,-3.7754,-3.7402,-3.6836,-0.9801,-0.9801,-0.9801,0.0,0.0,0.0,0.0,0.0,0.0,0.0,0.0,0.0,0.0,0.0,0.0,0.0,0.0,0.0,-1.5201,0.0,0.0,0.0,0.0,0.0,-1.7216,-1.7329,0.0,0.0,0.0,0.0,0.0,0.0,0.0,0.0,0.0,0.0,0.0,0.0,0.0,0.0,0.0,0.0,-2.5441,-2.5479,0.0,0.0,0.0,0.0,0.0,0.0,0.0,0.0,0.0,0.0,0.0,0.0,0.0,-2.5588,-2.5666,-2.6884,-2.8343,-2.9231,-3.0036,-3.0617,-3.0636,-3.0687,-3.0488,-2.9609,-2.9453,-2.9219,-2.8379,0.0,-2.8867,-3.0566,-3.0918,-3.1543,-3.3164,-3.3398,-3.3418,0.0,0.0,0.0,0.0,0.0,0.0,-3.6133,0.0,-3.6093,-3.6129,-3.6099,-3.6096,-3.6127,-3.6938,-3.6972,-3.613,-3.7771,-3.8594,-3.8594,-3.8594,-3.8594,-3.8594,-3.8594,-3.8594,-3.8555,-3.7734,-3.7832,-3.8535,-3.7754,-3.793,-3.8672,-3.8711,-3.8711,-3.8672,-3.8672,-3.8633,-3.8359,0.0,0.0,0.0,0.0,0.0,0.0,0.0,0.0,0.0,0.0,0.0,0.0,0.0,0.0,0.0,0.0,0.0,0.0,0.0,0.0,0.0,0.0,0.0,0.0,0.0,0.0,0.0,0.0,0.0,0.0,0.0,0.0,0.0,0.0,0.0,0.0,0.0,0.0,0.0,0.0,0.0,0.0,-2.46,0.0,0.0,0.0,0.0,0.0,0.0,0.0,0.0,0.0,0.0,0.0,-2.3113,0.0,0.0,-2.6683,-2.7987,-2.9128,-2.9979,-3.0239,-3.0443,-3.0443,-2.9861,-2.9737,-2.9527,-2.8711,-2.8021,-2.7519,-2.7305,-2.7832,0.0,-2.9746,-3.1016,0.0,-3.3262,-3.3398,0.0,-3.4297,0.0,-3.5059,-3.6797,-3.6973,0.0,0.0,-3.7344,-3.7246,-3.789,-3.7313,-3.7265,-3.7912,-3.816,-3.8163,-3.7948,-3.8379,-3.8594,-3.8594,-3.8594,-3.8594,-3.8594,-3.8594,-3.8594,-3.8594,-3.8379,-3.8398,-3.8633,-3.9062,-3.9375,-3.9629,-4.0273,-4.0137,-3.957,-3.957,-3.916,-3.8535,0.0,0.0,0.0,0.0,0.0,0.0,0.0,0.0,0.0,0.0,0.0,0.0,0.0,0.0,0.0,0.0,0.0,0.0,0.0,0.0,0.0,0.0,0.0,0.0,0.0,0.0,0.0,0.0,0.0,0.0,0.0,0.0,0.0,0.0,0.0,0.0,0.0,0.0,0.0,0.0,0.0,0.0,0.0,0.0,0.0,0.0,0.0,0.0,0.0,0.0,0.0,-2.2958,-2.3345,-2.3732,-2.4292,-2.5646,0.0,-2.8045,-2.9031,-2.994,-3.0598,-3.0598,-3.0308,-2.991,-2.9461,-2.9082,-2.8589,-2.7756,-2.723,-2.678,-2.6392,-2.6765,-2.765,0.0,0.0,0.0,-3.3706,-3.4266,-3.4687,0.0,-3.5254,0.0,-3.7695,-3.7842,-3.8355,0.0,-3.8563,-3.8086,-3.8574,-3.8141,-3.8098,-3.8586,-3.8964,-3.9355,-3.9746,-3.9355,-3.9355,-3.9746,-3.9746,-3.9746,-3.9746,-3.9746,-3.9746,-3.9726,0.0,-3.9394,-3.9746,-3.9863,-4.0137,-4.0527,-4.1016,-4.0898,-4.0469,-4.0469,-4.0156,-3.9746,0.0,0.0,0.0,0.0,0.0,0.0,0.0,0.0,0.0,-1.0193,-1.0854,-1.1682,0.0,0.0,0.0,0.0,0.0,0.0,0.0,0.0,0.0,0.0,0.0,0.0,0.0,0.0,0.0,0.0,0.0,0.0,0.0,0.0,0.0,0.0,0.0,0.0,0.0,0.0,0.0,0.0,0.0,0.0,0.0,0.0,0.0,0.0,0.0,0.0,0.0,0.0,-2.3862,-2.3403,-2.4254,-2.5047,-2.584,-2.676,-2.8122,-2.9321,-2.9437,-3.0017,-3.0598,-3.0598,-2.994,-2.9272,-2.914,-2.8501,-2.7679,-2.6812,0.0,-2.6481,-2.5722,-2.5682,-2.6587,-2.9074,0.0,-3.1612,-3.4225,-3.5246,-3.5777,-3.5877,-3.5936,-3.6659,-3.8396,-3.8525,-3.9216,-4.0958,-3.9758,-3.8922,-3.8926,-3.8828,-3.8828,-3.8945,-3.9687,-4.0449,-4.1191,-4.0449,-4.0449,-4.1191,-4.1191,-4.1191,-4.1191,-4.1191,-4.1191,-4.1152,-4.0391,-4.0508,-4.1133,-4.0371,-4.0527,-4.1191,-4.1191,-4.1191,-4.1191,-4.1191,-4.1191,-4.1191,0.0,0.0,0.0,0.0,0.0,0.0,0.0,0.0,0.0,0.0,-1.0328,-1.1008,0.0,0.0,0.0,0.0,0.0,0.0,0.0,0.0,0.0,0.0,0.0,0.0,0.0,0.0,0.0,0.0,0.0,0.0,0.0,0.0,0.0,0.0,0.0,0.0,0.0,0.0,0.0,0.0,0.0,0.0,0.0,0.0,0.0,0.0,0.0,0.0,0.0,0.0,-2.5178,-2.5201,-2.6006,-2.6373,-2.6799,-2.8393,-2.905,-2.9457,-3.0172,-3.0482,-3.0598,-3.0598,-2.995,-2.9119,-2.8391,-2.7567,0.0,0.0,-2.5724,-2.5693,-2.5549,-2.6144,-2.7283,-2.9116,-3.0139,-3.1611,-3.4225,-3.473,-3.5069,0.0,-3.5841,-3.6518,-3.8268,-3.8416,0.0,0.0,-4.0796,-4.0668,-4.0664,-4.0039,-4.0,-4.0723,-4.0898,-4.1055,-4.1191,-4.1055,-4.1055,-4.1191,-4.1191,-4.1191,-4.1191,-4.1191,-4.1191,-4.1191,-4.1035,0.0,-4.1191,-4.1035,-4.1055,-4.1191,-4.1191,-4.1191,-4.1191,-4.1191,-4.1191,-4.1191,0.0,0.0,0.0,0.0,0.0,0.0,0.0,-1.009,-1.0129,-1.0199,-1.0206,-1.0847,-1.251,-1.2703,0.0,0.0,0.0,0.0,0.0,0.0,0.0,0.0,0.0,0.0,0.0,0.0,0.0,0.0,0.0,0.0,0.0,0.0,0.0,0.0,0.0,0.0,0.0,0.0,0.0,0.0,0.0,0.0,0.0,0.0,0.0,0.0,0.0,0.0,0.0,0.0,-2.512,-2.5646,-2.645,-2.6702,-2.7031,-2.878,-2.9302,-2.9495,-3.0366,-3.0598,-3.0598,-3.0598,-2.9602,-2.851,-2.8109,0.0,0.0,0.0,-2.5511,-2.5511,-2.5511,-2.5867,0.0,-2.7838,-2.8752,-3.0215,-3.2822,-3.397,0.0,-3.6278,-3.6859,-3.7655,0.0,-3.9044,-3.9557,-4.0842,-4.1016,-4.1051,-4.1093,-4.0762,-4.0762,-4.1191,-4.1191,-4.1191,-4.1191,-4.1191,-4.1191,-4.1191,-4.1191,-4.1191,-4.1191,-4.1191,-4.1191,-4.1191,-4.1191,-4.1191,-4.1191,-4.1191,-4.1191,-4.1191,-4.1191,-4.1191,-4.1191,-4.1191,-4.1191,-4.1191,0.0,0.0,0.0,0.0,0.0,0.0,0.0,-1.0105,-1.011,-1.0173,-1.018,-1.0766,-1.2258,-1.2587,-1.3326,0.0,0.0,0.0,0.0,0.0,0.0,0.0,0.0,0.0,0.0,0.0,0.0,0.0,0.0,0.0,0.0,0.0,0.0,0.0,0.0,0.0,0.0,0.0,0.0,0.0,0.0,0.0,0.0,0.0,0.0,0.0,0.0,0.0,0.0,0.0,-2.4655,-2.5356,-2.618,-2.6566,-2.7011,-2.8567,-2.9147,-2.9457,-3.0133,-3.0462,-3.0559,-3.0366,-2.9148,-2.795,-2.776,-2.6571,0.0,0.0,-2.5511,-2.5511,-2.5511,0.0,-2.5782,0.0,-2.7473,-2.8915,-3.1507,-3.3371,-3.5098,0.0,-3.7793,0.0,-3.9576,-3.9611,0.0,-4.081,-4.0943,-4.1019,-4.1113,-4.1164,-4.1172,-4.1172,-4.1189,-4.1172,-4.1172,-4.1191,-4.1191,-4.1191,-4.1191,-4.1191,-4.1191,-4.1191,-4.1191,-4.1191,-4.1191,-4.1191,-4.1191,-4.1191,-4.1191,-4.1191,-4.1191,-4.1191,-4.1191,-4.1191,-4.1191,-4.1191,0.0,0.0,0.0,0.0,0.0,0.0,0.0,-1.0097,-1.0097,-1.011,-1.015,-1.0531,-1.1416,-1.2235,-1.3071,0.0,0.0,0.0,0.0,0.0,0.0,0.0,0.0,0.0,0.0,0.0,0.0,0.0,0.0,0.0,0.0,0.0,0.0,0.0,0.0,0.0,0.0,0.0,0.0,0.0,0.0,0.0,0.0,0.0,0.0,0.0,0.0,0.0,0.0,0.0,0.0,-2.4467,-2.5337,-2.6102,-2.6895,-2.7832,0.0,0.0,-2.9399,-2.9998,-3.0404,-2.9612,-2.8705,-2.7788,-2.7003,0.0,-2.5511,-2.5511,-2.5511,-2.5511,-2.5511,-2.5511,-2.5782,0.0,0.0,-2.8896,-3.1449,-3.3305,-3.5027,-3.6709,0.0,0.0,-3.9429,-3.9507,-3.9862,-4.0732,-4.0868,-4.1,-4.1171,-4.1135,-4.1106,-4.1106,-4.1113,-4.1113,-4.1113,-4.1172,-4.1191,-4.1191,-4.1191,-4.1191,-4.1191,-4.1191,-4.1191,-4.1191,-4.1191,-4.1191,0.0,-4.1191,-4.1191,-4.1191,-4.1191,-4.1191,-4.1191,-4.1191,-4.1191,-4.1191,0.0,0.0,0.0,0.0,0.0,0.0,-1.009,-1.0105,-1.0109,-1.011,-1.0166,-1.0505,-1.132,-1.1756,-1.2301,0.0,0.0,0.0,0.0,0.0,0.0,0.0,0.0,0.0,0.0,0.0,0.0,0.0,0.0,0.0,0.0,0.0,0.0,0.0,0.0,0.0,0.0,0.0,0.0,0.0,0.0,0.0,0.0,0.0,0.0,0.0,0.0,0.0,0.0,0.0,0.0,0.0,-2.3248,-2.4118,0.0,0.0,-2.7832,-2.8625,-2.9166,-2.994,-3.0385,-2.9516,-2.8646,-2.7765,-2.6904,0.0,-2.5511,-2.5511,-2.5511,-2.5511,-2.5511,-2.5511,-2.5608,0.0,-2.6265,-2.7194,-2.9224,-3.1004,-3.3112,-3.5858,-3.7367,0.0,0.0,0.0,-4.0442,-4.0829,-4.0881,-4.0946,-4.1062,-4.1057,-4.1044,-4.1035,-4.1033,-4.1067,-4.1094,-4.1133,-4.1152,-4.1191,-4.1191,-4.1191,-4.1191,-4.1191,-4.1191,-4.1191,-4.1191,-4.1191,0.0,-4.1191,-4.1191,-4.1191,-4.1191,-4.1191,-4.1191,-4.1191,-4.1191,-4.1191,0.0,0.0,0.0,0.0,0.0,-1.0046,-1.009,-1.0094,-1.0098,-1.0106,-1.0136,-1.0398,-1.0988,-1.1095,-1.1334,-1.1914,0.0,0.0,0.0,0.0,0.0,0.0,0.0,0.0,0.0,0.0,0.0,0.0,0.0,0.0,0.0,0.0,0.0,0.0,0.0,0.0,0.0,0.0,0.0,0.0,0.0,0.0,0.0,0.0,0.0,0.0,0.0,0.0,0.0,0.0,0.0,0.0,0.0,0.0,0.0,0.0,-2.6749,-2.7755,-2.8354,-2.9166,-2.9621,-2.8753,-2.8075,-2.7384,0.0,-2.5906,-2.5511,-2.5511,-2.5511,-2.5511,-2.5511,-2.5511,-2.5511,0.0,-2.5704,-2.6459,-2.8141,-2.9863,-3.2048,0.0,0.0,-3.8141,0.0,-4.05,-4.081,-4.0868,-4.0868,-4.09,-4.0938,-4.0927,-4.0946,-4.0977,-4.0977,-4.0995,-4.1039,-4.1058,-4.111,-4.1172,-4.1172,-4.1172,-4.1191,-4.1191,-4.1191,-4.1191,-4.1191,-4.1191,0.0,-4.1191,-4.1191,-4.1191,-4.1191,-4.1191,-4.1191,-4.1191,-4.1191,-4.1191,0.0,0.0,0.0,0.0,0.0,0.0,-1.0094,-1.0094,-1.0094,-1.0094,-1.0106,-1.0136,-1.0205,-1.0215,-1.0225,-1.0235,0.0,0.0,0.0,0.0,0.0,0.0,0.0,0.0,0.0,0.0,0.0,0.0,0.0,0.0,0.0,0.0,0.0,0.0,0.0,0.0,0.0,0.0,0.0,0.0,0.0,0.0,0.0,0.0,0.0,0.0,0.0,0.0,0.0,0.0,0.0,0.0,0.0,0.0,0.0,0.0,-2.5414,-2.6721,-2.6721,-2.7351,-2.7825,-2.6938,-2.6713,-2.6494,-2.5704,-2.5511,-2.5511,-2.5511,-2.5511,-2.5511,-2.5511,-2.5511,-2.5511,-2.5511,-2.616,-2.7301,-2.9031,-3.0733,-3.2435,0.0,0.0,-3.6381,-3.8063,-3.9785,-4.079,-4.079,-4.079,0.0,-4.079,-4.0803,-4.0842,-4.09,-4.09,-4.09,-4.09,-4.098,-4.1031,-4.1094,-4.1094,-4.1133,-4.1191,-4.1191,-4.1191,-4.1191,-4.1191,-4.1191,0.0,-4.1191,-4.1191,-4.1191,-4.1191,-4.1191,-4.1191,-4.1191,-4.1191,-4.1191,0.0,0.0,0.0,0.0,0.0,0.0,0.0,-1.0094,-1.0094,-1.0094,-1.0106,-1.0113,-1.0136,-1.0173,-1.0203,-1.0206,0.0,0.0,0.0,0.0,0.0,0.0,0.0,0.0,0.0,0.0,0.0,0.0,0.0,0.0,0.0,0.0,0.0,0.0,0.0,0.0,0.0,0.0,0.0,0.0,0.0,0.0,0.0,0.0,0.0,0.0,0.0,0.0,0.0,0.0,0.0,0.0,0.0,0.0,0.0,-2.2488,-2.4173,-2.5936,-2.5894,-2.6958,-2.7716,-2.6251,-2.6288,-2.6497,-2.5685,-2.5511,-2.5511,-2.5511,-2.5511,-2.5511,-2.5511,-2.5511,-2.5685,-2.6218,0.0,0.0,0.0,0.0,0.0,-3.4118,-3.7232,-3.9379,0.0,0.0,-4.079,-4.079,-4.079,-4.079,-4.079,-4.079,-4.081,-4.0829,-4.0829,-4.0848,-4.09,-4.0912,-4.0966,-4.103,-4.1074,-4.1113,-4.1133,-4.1172,-4.1191,-4.1191,-4.1191,-4.1191,-4.1191,-4.1191,-4.1191,-4.1191,-4.1191,-4.1191,-4.1191,-4.1191,-4.1191,-4.1191,0.0,0.0,0.0,0.0,0.0,0.0,0.0,-1.0094,-1.0094,-1.0094,-1.0102,-1.0106,-1.009,-1.0166,-1.0199,-1.0203,0.0,0.0,0.0,0.0,0.0,0.0,0.0,0.0,0.0,0.0,0.0,0.0,0.0,0.0,0.0,0.0,0.0,0.0,0.0,0.0,0.0,0.0,0.0,0.0,0.0,0.0,-1.9546,0.0,0.0,0.0,0.0,0.0,0.0,0.0,0.0,0.0,0.0,0.0,0.0,0.0,-2.297,-2.4264,0.0,-2.5356,-2.5983,-2.5236,-2.5398,-2.5704,-2.555,-2.5511,-2.5511,-2.5511,-2.5511,-2.5511,-2.5511,-2.5511,-2.5666,-2.616,-2.6238,0.0,0.0,0.0,0.0,-3.3615,0.0,0.0,0.0,-3.9746,-4.0172,-3.9843,-4.0423,-4.0655,-4.0326,-4.0616,-4.079,-4.079,-4.079,-4.081,-4.0848,-4.0848,-4.09,-4.0958,-4.0999,-4.1035,-4.106,-4.1131,-4.1152,-4.1152,-4.1191,-4.1191,0.0,-4.1191,-4.1191,-4.1191,-4.1191,-4.1191,-4.1191,-4.1191,-4.1191,-4.1191,0.0,0.0,0.0,0.0,0.0,0.0,0.0,0.0,-1.0094,-1.0094,-1.0094,-1.0098,-1.011,-1.0163,-1.0192,-1.0199,0.0,0.0,0.0,0.0,0.0,0.0,0.0,0.0,0.0,0.0,0.0,-1.5394,-1.5394,-1.5433,-1.5472,0.0,0.0,0.0,0.0,0.0,0.0,0.0,0.0,0.0,-1.9804,-1.9506,0.0,0.0,0.0,0.0,0.0,0.0,0.0,0.0,0.0,0.0,0.0,0.0,0.0,0.0,0.0,0.0,0.0,-2.2916,-2.3185,-2.3937,-2.4111,-2.4326,-2.5143,-2.5376,0.0,-2.5414,-2.5453,-2.5511,-2.5511,-2.5511,-2.553,-2.5588,-2.5646,0.0,0.0,-2.8992,0.0,0.0,-3.551,0.0,-3.5955,-3.8025,-3.9069,-3.8257,-3.9707,-4.0249,-3.9449,-4.0172,-4.0636,-4.0713,-4.0713,-4.0732,-4.079,-4.079,-4.0829,-4.09,-4.09,-4.0936,-4.1,-4.1074,-4.1092,0.0,-4.1152,-4.1191,-4.1191,-4.1191,-4.1191,-4.1191,-4.1191,-4.1191,-4.1191,-4.1191,-4.1191,-4.1191,0.0,0.0,0.0,0.0,0.0,0.0,0.0,0.0,0.0,0.0,-1.0094,-1.0094,-1.0098,-1.0155,-1.0205,0.0,0.0,0.0,0.0,0.0,0.0,0.0,0.0,0.0,0.0,0.0,0.0,-1.539,-1.539,-1.5705,-1.6294,-1.5699,0.0,0.0,0.0,0.0,0.0,0.0,0.0,0.0,-1.9869,-1.9938,0.0,0.0,0.0,0.0,-1.8222,-1.8301,0.0,0.0,0.0,0.0,0.0,0.0,0.0,0.0,-2.0915,-2.0933,-2.1129,0.0,-2.2962,-2.2499,-2.284,-2.3334,0.0,-2.4065,-2.4509,-2.4505,0.0,0.0,-2.5511,-2.5511,-2.5704,-2.6315,0.0,-2.7774,-2.8838,0.0,0.0,-3.5781,-3.7116,-3.7831,-3.7638,-3.816,-3.8431,-3.8218,-3.8586,-3.8721,-3.8528,-3.8702,-3.9127,-3.9777,-3.9816,-4.0133,-4.079,-4.079,-4.081,-4.081,-4.0938,-4.0963,-4.0923,-4.1053,-4.1073,-4.1037,-4.1089,-4.1113,-4.1133,-4.1172,-4.1191,-4.1191,-4.1191,-4.1191,-4.1191,-4.1191,-4.1191,-4.1191,0.0,0.0,0.0,0.0,0.0,0.0,0.0,0.0,0.0,0.0,0.0,0.0,0.0,0.0,0.0,0.0,0.0,0.0,0.0,0.0,0.0,0.0,0.0,0.0,0.0,0.0,0.0,0.0,0.0,-1.5614,0.0,0.0,0.0,0.0,0.0,0.0,0.0,0.0,0.0,0.0,-1.8865,0.0,0.0,0.0,0.0,0.0,-1.7266,-1.7402,0.0,-1.7871,-1.8301,-1.8769,0.0,0.0,0.0,0.0,-2.0605,-2.0605,-2.0605,-2.1523,-2.2499,-2.2402,-2.2698,-2.3097,-2.35,0.0,0.0,0.0,0.0,0.0,0.0,0.0,0.0,0.0,-2.6845,0.0,0.0,0.0,-3.4872,-3.6187,-3.7096,-3.7464,0.0,-3.7386,-3.7444,-3.7077,-3.7773,-3.8025,-3.7618,-3.7986,-3.8431,-3.8895,-3.8895,-3.9514,-4.079,-4.079,-4.079,-4.079,-4.0868,-4.09,-4.0848,-4.0958,-4.099,-4.0965,-4.1059,-4.1101,-4.1113,-4.1172,-4.1191,-4.1191,-4.1191,-4.1191,-4.1191,-4.1191,-4.1191,-4.1191,0.0,0.0,0.0,0.0,0.0,0.0,0.0,0.0,0.0,0.0,0.0,0.0,0.0,0.0,0.0,0.0,0.0,0.0,0.0,0.0,0.0,0.0,0.0,0.0,0.0,0.0,0.0,0.0,0.0,0.0,0.0,0.0,-1.5391,0.0,0.0,0.0,0.0,0.0,0.0,0.0,-1.7656,0.0,0.0,0.0,0.0,0.0,0.0,0.0,0.0,-1.7344,-1.7695,-1.793,-1.8672,0.0,0.0,0.0,0.0,0.0,-2.0723,-2.1387,-2.2109,-2.2598,-2.2873,-2.3162,-2.378,0.0,0.0,0.0,0.0,0.0,0.0,-2.5608,0.0,0.0,0.0,0.0,-3.1739,-3.346,-3.4717,-3.5588,-3.6303,0.0,-3.5762,-3.6323,-3.6439,-3.5742,-3.7019,-3.7502,-3.6767,-3.7425,-3.787,-3.8005,-3.8005,-3.8779,-4.0384,-4.0539,-4.0674,-4.079,-4.081,-4.081,-4.079,-4.0868,-4.09,-4.09,0.0,0.0,-4.1071,-4.1152,-4.1172,-4.1191,-4.1191,-4.1191,-4.1191,-4.1191,-4.1191,-4.1191,0.0,0.0,0.0,0.0,0.0,0.0,0.0,0.0,0.0,0.0,0.0,0.0,0.0,0.0,0.0,0.0,0.0,0.0,0.0,0.0,0.0,0.0,0.0,0.0,0.0,0.0,0.0,0.0,0.0,0.0,-1.5408,-1.5408,-1.5408,0.0,0.0,0.0,0.0,0.0,0.0,-1.6775,-1.7654,0.0,0.0,0.0,0.0,0.0,0.0,0.0,0.0,-1.576,-1.6287,-1.6913,-1.7051,0.0,0.0,0.0,0.0,0.0,-2.1309,-2.2285,-2.2598,-2.1309,-2.2049,-2.2927,-2.2317,0.0,0.0,0.0,0.0,0.0,0.0,-2.6064,-2.6508,0.0,0.0,-3.0946,0.0,0.0,-3.4717,-3.5588,0.0,-3.5839,-3.5704,-3.58,-3.582,-3.5704,-3.5936,-3.6033,-3.5897,-3.6013,-3.64,-3.7077,-3.7096,-3.758,-3.8586,-3.9321,-4.0055,-4.079,-4.0848,-4.0848,-4.079,-4.0868,-4.0868,-4.081,0.0,-4.0936,-4.0942,-4.1064,-4.1113,-4.1113,-4.1172,-4.1191,-4.1191,-4.1191,-4.1191,-4.1191,0.0,0.0,0.0,0.0,0.0,0.0,0.0,0.0,0.0,0.0,0.0,0.0,0.0,0.0,0.0,0.0,0.0,0.0,0.0,0.0,0.0,0.0,0.0,0.0,0.0,0.0,0.0,0.0,0.0,-1.4272,-1.4701,-1.5171,-1.5405,-1.5405,0.0,0.0,0.0,0.0,0.0,-1.603,0.0,0.0,0.0,0.0,0.0,0.0,0.0,0.0,0.0,0.0,-1.5678,-1.6089,-1.654,0.0,0.0,0.0,0.0,0.0,-2.0273,-2.1445,-2.2266,-2.1484,-2.2563,-2.3696,-2.3293,0.0,0.0,0.0,0.0,0.0,0.0,0.0,-2.7166,-2.8586,0.0,-3.1487,-3.404,-3.4389,-3.4717,0.0,0.0,-3.5704,-3.5704,-3.5704,-3.5704,-3.5704,-3.5704,-3.5704,-3.5704,-3.5704,-3.5858,-3.6245,-3.6245,-3.6651,-3.7502,-3.7889,-3.8528,-3.9398,-3.9901,-4.0145,-4.0113,-4.0616,-4.0829,-4.079,0.0,-4.0916,-4.0955,-4.1054,-4.1129,-4.1152,-4.1191,-4.1191,-4.1191,-4.1191,-4.1191,-4.1191,0.0,0.0,0.0,0.0,0.0,0.0,0.0,0.0,0.0,0.0,0.0,0.0,0.0,0.0,0.0,0.0,0.0,0.0,0.0,0.0,0.0,0.0,0.0,0.0,0.0,0.0,-1.3005,-1.3823,-1.3197,-1.3313,-1.4112,-1.4776,-1.5207,0.0,0.0,0.0,0.0,0.0,-1.5402,-1.5402,0.0,0.0,0.0,0.0,0.0,0.0,0.0,0.0,0.0,0.0,0.0,0.0,0.0,0.0,0.0,-1.744,-1.8164,-1.8828,-1.9434,-2.0586,-2.1699,-2.2089,0.0,-2.4126,-2.4341,0.0,0.0,0.0,0.0,0.0,0.0,-2.6459,0.0,-3.0733,-3.1197,-3.201,-3.4369,-3.4698,-3.4949,-3.5626,-3.5704,-3.5704,-3.5704,-3.5704,-3.5704,-3.5704,-3.5704,-3.5704,-3.5704,-3.5704,-3.5704,-3.5704,-3.5704,-3.5994,-3.6613,-3.6613,-3.7154,-3.8218,-3.8876,-3.9204,-3.9224,-3.9881,-4.0288,-4.05,-4.0551,-4.0725,-4.0958,-4.1036,-4.1116,-4.1167,-4.1191,-4.1191,-4.1191,-4.1191,-4.1191,-4.1191,0.0,0.0,0.0,0.0,0.0,0.0,0.0,0.0,0.0,0.0,0.0,0.0,0.0,0.0,0.0,0.0,0.0,0.0,0.0,0.0,0.0,0.0,0.0,0.0,0.0,-1.1712,-1.2122,-1.2982,-1.2924,-1.3313,-1.4093,-1.4151,-1.462,-1.5402,0.0,0.0,0.0,0.0,0.0,-1.5402,-1.5402,0.0,0.0,0.0,0.0,0.0,0.0,0.0,0.0,0.0,0.0,0.0,0.0,0.0,-1.5657,-1.6536,-1.6834,-1.7422,-1.9844,-2.0603,-2.1064,-2.2628,-2.3066,0.0,-2.4129,-2.4205,0.0,0.0,0.0,0.0,0.0,-2.7329,-2.9012,-3.2367,-3.2908,-3.3557,-3.5356,0.0,-3.5626,-3.5684,-3.5704,-3.5704,-3.5704,-3.5704,-3.5704,-3.5704,-3.5704,-3.5704,-3.5704,-3.5704,-3.5704,-3.5704,-3.5704,-3.5723,-3.5781,-3.5781,-3.6593,-3.8199,-3.8257,-3.8295,-3.8295,-3.8373,-3.8837,-3.9603,-3.9603,-4.0068,-4.0815,-4.0952,-4.1007,-4.1037,-4.1146,-4.1191,-4.1191,-4.1191,-4.1191,-4.1191,0.0,0.0,0.0,0.0,0.0,0.0,0.0,0.0,0.0,0.0,0.0,0.0,0.0,0.0,0.0,0.0,0.0,0.0,0.0,0.0,0.0,0.0,0.0,-1.1008,-1.0793,-1.0793,-1.1224,-1.2083,-1.2083,-1.2513,-1.3352,-1.3878,0.0,0.0,0.0,0.0,0.0,0.0,0.0,-1.5402,-1.5402,-1.5402,0.0,0.0,0.0,0.0,0.0,0.0,0.0,0.0,-1.5402,0.0,0.0,0.0,0.0,0.0,-1.6283,-1.7029,-1.8573,-1.9762,-2.1008,-2.2683,0.0,0.0,0.0,0.0,0.0,0.0,0.0,0.0,0.0,0.0,-2.9573,-3.1913,-3.2754,-3.3712,-3.5452,-3.5704,-3.5704,-3.5704,-3.5704,-3.5704,-3.5704,-3.5704,-3.5704,-3.5704,-3.5704,-3.5704,-3.5704,-3.5704,-3.5704,-3.5704,-3.5704,-3.5704,-3.5704,-3.5704,-3.6013,-3.6651,-3.7154,-3.7386,-3.7406,-3.7947,-3.8392,-3.8682,-3.8682,-3.8922,-3.9347,-3.9954,-3.9928,-3.9518,-3.9569,-4.0254,-4.1133,-4.0586,-4.0723,-4.1191,0.0,0.0,0.0,0.0,0.0,0.0,0.0,0.0,0.0,0.0,0.0,0.0,0.0,0.0,0.0,0.0,0.0,0.0,0.0,0.0,0.0,0.0,0.0,-1.091,-1.0305,-1.0305,-1.0598,-1.1185,-1.1185,-1.177,-1.2904,0.0,0.0,0.0,0.0,0.0,0.0,0.0,0.0,0.0,-1.5402,-1.5402,0.0,0.0,0.0,0.0,0.0,0.0,0.0,0.0,-1.5402,0.0,0.0,0.0,0.0,0.0,0.0,-1.6887,-1.7767,-1.9075,-2.0598,0.0,0.0,0.0,0.0,0.0,0.0,0.0,0.0,0.0,0.0,0.0,0.0,0.0,-3.2715,-3.3712,-3.5452,-3.5704,-3.5704,-3.5704,-3.5704,-3.5704,-3.5704,-3.5704,-3.5704,-3.5704,-3.5704,-3.5704,-3.5704,-3.5704,-3.5704,-3.5704,-3.5704,-3.5704,-3.5704,-3.5704,-3.5704,-3.5704,-3.6265,-3.6516,-3.6535,-3.7135,-3.756,-3.7793,-3.78,-3.8032,-3.8375,-3.9045,-3.905,-3.8594,-3.8594,-3.9336,-4.0312,-3.9707,-3.9863,-4.043,0.0,0.0,0.0,0.0,0.0,0.0,0.0,0.0,0.0,0.0,0.0,0.0,0.0,0.0,0.0,0.0,0.0,0.0,0.0,0.0,0.0,0.0,0.0,-1.0305,-1.0305,-1.0305,-1.0305,-1.0305,-1.0305,-1.1185,-1.2885,-1.2882,0.0,0.0,0.0,0.0,0.0,0.0,0.0,0.0,-1.5382,-1.5382,-1.5402,0.0,0.0,0.0,0.0,0.0,0.0,0.0,-1.5402,-1.5402,0.0,0.0,0.0,0.0,-1.6025,-1.6884,-1.7764,-1.8641,-1.9732,0.0,0.0,0.0,0.0,0.0,0.0,0.0,0.0,-2.8285,-2.9128,0.0,0.0,-3.2522,-3.3082,-3.3712,-3.5433,-3.5684,-3.5704,-3.5704,-3.5704,-3.5704,-3.5704,-3.5704,-3.5704,-3.5704,-3.5704,-3.5704,-3.5704,-3.5704,-3.5704,-3.5704,-3.5704,-3.5704,-3.5704,-3.5704,-3.5704,-3.5704,-3.5704,-3.5704,-3.5704,-3.5704,-3.6129,-3.6884,-3.6949,-3.7433,-3.8199,-3.8388,-3.8517,-3.8594,-3.8574,-3.8594,-3.8594,-3.8594,-3.8594,-3.8711,0.0,0.0,0.0,0.0,0.0,0.0,0.0,0.0,0.0,0.0,0.0,0.0,0.0,0.0,0.0,0.0,0.0,0.0,0.0,0.0,0.0,0.0,0.0,0.0,0.0,0.0,-1.0305,-1.0305,-1.0305,-1.0871,0.0,0.0,0.0,-1.3255,0.0,0.0,0.0,0.0,0.0,0.0,0.0,-1.4855,-1.5402,0.0,0.0,0.0,0.0,0.0,0.0,0.0,0.0,0.0,0.0,0.0,0.0,0.0,-1.6025,-1.6884,-1.7764,-1.907,0.0,-2.2311,0.0,0.0,0.0,0.0,0.0,0.0,0.0,-2.9727,-2.936,0.0,0.0,-3.1178,-3.2338,-3.3499,-3.4621,-3.5298,-3.5704,-3.5704,-3.5704,-3.5704,-3.5704,-3.5704,-3.5704,-3.5704,-3.5704,-3.5704,-3.5704,-3.5704,-3.5704,-3.5704,-3.5704,-3.5704,-3.5704,-3.5704,-3.5704,-3.5704,-3.5704,-3.5704,-3.5704,-3.5704,-3.582,-3.6052,-3.6091,-3.6251,-3.6514,-3.6674,-3.7485,-3.8476,-3.7246,-3.7519,-3.8535,-3.791,-3.8066,-3.8633,0.0,0.0,0.0,0.0,0.0,0.0,0.0,0.0,0.0,0.0,0.0,0.0,0.0,0.0,0.0,0.0,0.0,0.0,0.0,0.0,0.0,0.0,0.0,0.0,0.0,-1.0304,-1.0305,0.0,0.0,0.0,0.0,0.0,0.0,-1.2376,0.0,-1.2376,0.0,0.0,0.0,0.0,-1.3625,-1.4133,-1.4875,0.0,0.0,0.0,0.0,0.0,0.0,0.0,0.0,0.0,0.0,0.0,0.0,-1.5967,-1.6533,-1.7489,-1.8701,-2.0046,0.0,-2.3208,-2.4419,-2.5556,-2.6996,0.0,0.0,0.0,0.0,-3.0037,-2.9843,-2.9959,0.0,-3.0965,-3.1932,-3.2899,-3.377,-3.435,-3.4795,-3.5143,-3.5182,-3.5317,-3.5665,-3.5704,-3.5704,-3.5704,-3.5704,-3.5704,-3.5704,-3.5704,-3.5704,-3.5704,-3.5704,-3.5704,-3.5704,-3.5704,-3.5704,-3.5704,-3.5704,-3.5704,-3.5704,-3.5704,-3.5704,-3.5695,-3.5737,-3.5788,-3.5884,-3.5947,-3.6601,-3.7461,-3.6406,-3.6641,-3.75,-3.6973,-3.7129,-3.7617,0.0,0.0,-0.9955,-1.0078,0.0,0.0,0.0,0.0,0.0,0.0,0.0,-1.0207,0.0,0.0,0.0,-1.0195,0.0,0.0,0.0,0.0,0.0,0.0,0.0,0.0,0.0,0.0,0.0,0.0,0.0,0.0,0.0,0.0,-1.1477,-1.1477,0.0,-1.1477,0.0,0.0,0.0,0.0,-1.2787,-1.3274,-1.3995,-1.3995,0.0,0.0,0.0,0.0,0.0,0.0,0.0,0.0,0.0,0.0,0.0,-1.6377,-1.7255,-1.8369,-2.0027,0.0,0.0,-2.3987,-2.4512,0.0,-2.7579,-2.8722,-2.9545,-3.0414,0.0,-2.965,-3.0443,-2.994,-2.9921,-3.1449,-3.1758,-3.2087,-3.287,-3.3044,-3.3402,-3.4195,-3.4272,-3.4582,-3.5394,-3.5452,-3.5452,-3.5452,-3.553,-3.5568,-3.5568,-3.5665,-3.5704,-3.5704,-3.5704,-3.5704,-3.5704,-3.5704,-3.5704,-3.5704,-3.5704,-3.5704,-3.5704,-3.5704,-3.5695,-3.5697,-3.5774,-3.5864,-3.5995,-3.5923,-3.595,-3.5996,-3.5996,-3.5996,-3.5996,-3.5996,-3.5996,-3.6113,0.0,0.0,-0.9996,-1.009,0.0,0.0,0.0,0.0,0.0,-1.0183,-1.02,-1.02,-1.0207,-1.0195,0.0,-1.0195,-1.02,0.0,0.0,0.0,0.0,0.0,0.0,0.0,0.0,0.0,0.0,0.0,0.0,0.0,0.0,0.0,0.0,-1.0575,0.0,-1.0575,0.0,0.0,0.0,-1.1888,-1.1888,-1.2396,-1.3157,-1.3157,-1.3665,0.0,0.0,0.0,0.0,0.0,0.0,0.0,-1.5402,-1.587,-1.6318,-1.5831,-1.6788,-1.8232,0.0,-2.0689,0.0,0.0,-2.5395,-2.6677,-2.7896,-2.8754,-2.9541,-3.0337,-3.0405,-3.0385,-3.0578,-3.0443,-3.0443,-3.0791,-3.1391,-3.1874,-3.2048,-3.2657,-3.316,-3.3363,-3.3383,-3.346,-3.3654,-3.3673,-3.3673,-3.3673,-3.4292,-3.4679,-3.4679,-3.5336,-3.5704,-3.5704,-3.5704,-3.5704,-3.5704,-3.5704,-3.5704,-3.5704,-3.5704,-3.5704,-3.5704,-3.5704,-3.5689,-3.5698,-3.5768,-3.5845,-3.5918,-3.5968,-3.5991,-3.5996,-3.5996,-3.5996,-3.5996,-3.5996,-3.5996,-3.6035,0.0,0.0,0.0,0.0,0.0,0.0,0.0,0.0,-1.0161,-1.0205,-1.0172,-1.0169,-1.0193,-1.0195,0.0,0.0,-1.0195,-1.0195,0.0,0.0,0.0,0.0,0.0,0.0,0.0,0.0,0.0,0.0,0.0,0.0,0.0,0.0,0.0,-1.0296,0.0,-1.0301,0.0,0.0,0.0,-1.0989,-1.0989,-1.1497,-1.2279,-1.2279,-1.2806,-1.3586,-1.3956,0.0,0.0,0.0,0.0,0.0,0.0,0.0,-1.6064,-1.6025,-1.6964,-1.8271,0.0,0.0,0.0,-2.4594,0.0,-2.7066,-2.748,-2.8168,-2.8965,-2.9795,-3.0308,-3.0598,-3.0598,-3.0598,-3.0598,-3.0598,-3.0946,-3.1236,-3.1236,-3.1623,-3.2048,-3.2425,-3.2483,-3.2638,-3.3063,-3.3102,-3.3102,-3.3102,-3.3518,-3.3789,-3.3789,-3.4214,-3.4466,-3.4466,-3.4466,-3.4466,-3.4466,-3.4872,-3.5085,-3.5085,-3.5491,-3.5704,-3.5704,-3.5704,-3.5688,-3.5706,-3.5771,-3.5813,-3.586,-3.5917,-3.5934,-3.5901,-3.5975,-3.5976,-3.5957,-3.5996,-3.5996,-3.5996,0.0,0.0,0.0,0.0,0.0,0.0,0.0,0.0,0.0,-1.018,-1.0128,-1.0112,-1.0183,-1.019,-1.0193,0.0,0.0,0.0,-1.0195,0.0,0.0,0.0,0.0,0.0,0.0,0.0,0.0,0.0,0.0,0.0,0.0,0.0,0.0,-1.0308,0.0,0.0,0.0,0.0,-1.0305,-1.0305,-1.0305,-1.0735,-1.138,-1.138,-1.1927,-1.2767,-1.3429,-1.3859,-1.421,-1.4933,0.0,0.0,0.0,0.0,-1.5539,-1.626,-1.7197,-1.831,0.0,0.0,-2.3521,-2.5258,-2.6234,0.0,-2.6872,-2.7405,-2.8119,-2.8991,-2.9824,-3.0424,-3.0578,-3.0598,-3.0598,-3.0598,-3.0598,-3.0598,-3.0598,-3.0598,-3.0849,-3.1507,-3.1584,-3.1894,-3.2599,-3.2657,-3.2657,-3.2657,-3.2792,-3.287,-3.287,-3.3024,-3.3102,-3.3102,-3.3102,-3.3102,-3.3102,-3.3828,-3.4176,-3.4176,-3.4911,-3.524,-3.5259,-3.5414,-3.5549,-3.5704,-3.5762,-3.5785,-3.5788,-3.5871,-3.5854,-3.5825,-3.5938,-3.5954,-3.5918,-3.5976,-3.5996,-3.5996,0.0,0.0,0.0,0.0,0.0,0.0,0.0,0.0,0.0,0.0,-1.0113,-1.0094,-1.0109,-1.0166,-1.02,-1.0193,-1.0195,-1.0195,0.0,0.0,0.0,0.0,0.0,0.0,0.0,0.0,0.0,0.0,0.0,0.0,0.0,0.0,0.0,-1.0308,0.0,0.0,0.0,0.0,-1.0305,-1.0305,-1.0305,-1.0363,-1.0461,-1.0461,-1.1008,-1.179,-1.1907,-1.2863,-1.4112,-1.423,-1.4776,0.0,0.0,0.0,-1.5421,-1.5539,-1.6729,-1.8057,0.0,0.0,-2.3521,0.0,-2.5785,-2.6052,0.0,0.0,-2.7226,0.0,-2.8902,-2.9689,-3.0462,-3.0598,-3.0598,-3.0598,-3.0598,-3.0598,-3.0598,-3.0598,-3.0636,-3.0752,-3.0752,-3.081,-3.0926,-3.0926,-3.0926,-3.0926,-3.1584,-3.1971,-3.1971,-3.2676,-3.3102,-3.3102,-3.3102,-3.3102,-3.3102,-3.3218,-3.3256,-3.3256,-3.3392,-3.345,-3.3469,-3.4234,-3.4988,-3.5704,-3.5704,-3.5706,-3.5718,-3.5786,-3.5833,-3.5893,-3.5903,-3.5942,-3.5996,-3.5996,-3.5996,-3.5996,0.0,0.0,0.0,0.0,0.0,0.0,0.0,0.0,0.0,0.0,0.0,-1.0102,-1.0141,-1.0177,-1.0207,-1.0195,-1.0209,0.0,0.0,0.0,0.0,0.0,0.0,0.0,0.0,0.0,0.0,0.0,0.0,0.0,0.0,-1.1103,-1.1203,0.0,0.0,0.0,0.0,0.0,0.0,-1.0305,-1.0305,-1.0598,-1.0989,0.0,-1.0832,-1.1594,-1.1594,0.0,-1.2844,-1.3781,-1.4347,-1.4757,-1.5246,0.0,0.0,0.0,-1.63,0.0,-1.9656,-2.1608,-2.3521,0.0,-2.5707,-2.5783,-2.6142,0.0,-2.637,-2.7252,-2.7652,-2.8104,-2.8973,-2.9534,-2.9863,-2.9863,-3.0288,-3.0598,-3.0598,-3.0598,-3.0598,-3.0598,-3.0598,-3.0598,-3.0598,-3.0598,-3.0598,-3.0598,-3.0926,-3.1139,-3.1139,-3.1487,-3.17,-3.17,-3.17,-3.17,-3.17,-3.2145,-3.2618,-3.3102,-3.3102,-3.3102,-3.3121,-3.4002,-3.4601,-3.4988,-3.5491,-3.5704,-3.5704,-3.5762,-3.5794,-3.5794,-3.5919,-3.5953,-3.5942,-3.5989,-3.5996,-3.5996,0.0,0.0,0.0,0.0,0.0,0.0,0.0,0.0,0.0,0.0,0.0,-1.0117,-1.0169,0.0,0.0,0.0,-1.0199,0.0,0.0,0.0,0.0,0.0,0.0,0.0,0.0,0.0,0.0,0.0,0.0,0.0,-1.1495,-1.1732,-1.2297,0.0,-1.221,0.0,0.0,0.0,0.0,-1.0635,-1.0636,-1.1028,-1.1573,-1.1359,-1.1536,-1.1927,0.0,0.0,0.0,-1.3371,-1.38,-1.3937,-1.4797,-1.507,0.0,0.0,0.0,0.0,0.0,0.0,-2.2935,-2.4887,-2.5531,-2.5705,0.0,0.0,-2.5779,0.0,-2.6478,-2.6605,-2.7224,-2.8238,-2.8973,-2.8973,-2.9689,-3.0269,-3.0269,-3.0462,-3.0598,-3.0598,-3.0598,-3.0598,-3.0598,-3.0598,-3.0598,-3.0598,-3.0598,-3.0598,-3.0598,-3.0598,-3.0598,-3.0598,-3.0598,-3.0598,-3.0598,-3.1197,-3.1816,-3.2474,-3.2474,-3.2474,-3.2493,-3.3344,-3.3731,-3.3808,-3.5123,-3.5704,-3.5704,-3.5742,-3.5762,-3.5775,-3.5924,-3.5943,-3.5927,-3.5984,-3.5996,-3.5996,0.0,0.0,0.0,0.0,0.0,0.0,0.0,0.0,0.0,0.0,0.0,-1.0106,-1.0103,-1.0163,-1.02,-1.0193,-1.0199,0.0,0.0,0.0,0.0,0.0,0.0,0.0,0.0,0.0,0.0,0.0,0.0,0.0,-1.1511,-1.2353,-1.3194,-1.3989,-1.3118,-1.2303,-1.1594,0.0,0.0,-1.1528,-1.1534,-1.1553,-1.1762,-1.331,-1.3469,-1.2826,0.0,0.0,0.0,0.0,0.0,-1.3098,-1.3917,-1.4171,-1.4171,0.0,0.0,0.0,0.0,-2.069,0.0,-2.3831,0.0,0.0,0.0,0.0,-2.5595,-2.5589,-2.5621,-2.5621,-2.5553,-2.6915,-2.8073,-2.8073,-2.8799,-2.936,-2.936,-3.0075,-3.0598,-3.0598,-3.0598,-3.0598,-3.0598,-3.0598,-3.0598,-3.0598,-3.0598,-3.0598,-3.0598,-3.0598,-3.0598,-3.0598,-3.0598,-3.0598,-3.0598,-3.0636,-3.0694,-3.0733,-3.0733,-3.0733,-3.0752,-3.1565,-3.1952,-3.2087,-3.4601,-3.5704,-3.5704,-3.5704,-3.5781,-3.5889,-3.5891,-3.5937,-3.5995,-3.5996,-3.5996,-3.5996,0.0,0.0,0.0,0.0,0.0,0.0,0.0,0.0,0.0,0.0,0.0,0.0,0.0,-1.018,-1.0207,-1.0195,-1.0205,0.0,0.0,0.0,0.0,0.0,0.0,0.0,0.0,0.0,0.0,0.0,0.0,-1.0701,-1.1501,-1.1814,-1.2122,-1.2449,-1.2688,-1.2945,-1.3097,-1.1457,0.0,-1.1593,-1.1594,-1.1946,0.0,-1.3097,-1.3821,-1.4426,-1.3879,0.0,0.0,0.0,0.0,-1.3722,-1.4015,-1.4093,-1.4093,-1.4093,-1.5108,0.0,0.0,0.0,0.0,-2.3072,-2.4223,-2.5,-2.554,-2.5639,-2.5613,-2.562,-2.5576,-2.5525,-2.548,-2.6428,-2.7221,-2.7174,-2.789,-2.847,-2.847,-2.9244,-2.9805,-2.9766,-3.0269,-3.0598,-3.0598,-3.0598,-3.0598,-3.0598,-3.0598,-3.0598,-3.0598,-3.0598,-3.0598,-3.0598,-3.0598,-3.0598,-3.0598,-3.0598,-3.0598,-3.0598,-3.0598,-3.0598,-3.0636,-3.1429,-3.1816,-3.1952,-3.345,-3.4408,-3.4969,-3.5568,-3.5858,-3.5891,-3.5961,-3.5982,-3.5996,-3.5996,-3.5996,-3.5996,0.0,0.0,0.0,-1.016,0.0,-1.0121,-1.0106,-1.0125,0.0,0.0,0.0,0.0,0.0,0.0,-1.0198,-1.0207,-1.0209,0.0,0.0,0.0,0.0,0.0,0.0,0.0,0.0,0.0,0.0,0.0,0.0,0.0,0.0,-1.1374,-1.1505,-1.1553,-1.2121,-1.2691,0.0,0.0,0.0,-1.2022,0.0,-1.2785,-1.3409,0.0,-1.4933,-1.5402,0.0,0.0,0.0,0.0,0.0,0.0,-1.4444,-1.4347,-1.4151,-1.4444,-1.5362,0.0,-1.7333,0.0,0.0,0.0,0.0,-2.3948,-2.5375,0.0,-2.5247,-2.5561,-2.5576,-2.5529,-2.546,-2.5963,-2.6351,-2.6304,-2.7047,-2.7628,-2.7628,-2.8401,-2.8941,-2.8892,-2.9395,-2.9747,-2.9747,-2.9757,-2.9757,-2.9767,-2.9767,0.0,-2.9757,-2.9757,-2.9873,-3.0153,-3.0153,-3.0308,-3.0598,-3.0598,-3.0598,-3.0598,-3.0598,-3.0598,-3.0617,-3.1159,-3.1429,-3.1507,-3.2435,-3.3334,-3.4185,-3.4803,-3.5224,-3.5509,-3.5556,-3.5742,-3.5996,-3.5996,-3.5996,-3.5996,-1.0202,-1.0205,-1.0177,-1.0109,-1.016,-1.0183,-1.0115,-1.0163,-1.0202,-1.0202,0.0,0.0,0.0,0.0,0.0,0.0,0.0,-1.0236,-1.0305,0.0,0.0,0.0,0.0,0.0,0.0,0.0,0.0,0.0,0.0,0.0,0.0,0.0,-1.1495,-1.1555,-1.1499,-1.1502,-1.1614,0.0,-1.2823,-1.2877,0.0,-1.407,-1.4378,0.0,0.0,0.0,-1.7393,-1.6924,0.0,-1.6494,0.0,0.0,0.0,-1.4797,-1.4269,-1.5109,-1.5402,0.0,0.0,0.0,0.0,0.0,0.0,0.0,-2.5043,0.0,-2.4499,-2.5302,-2.5522,-2.5526,-2.5418,-2.5459,-2.5511,-2.5511,-2.6262,-2.687,-2.687,-2.7547,-2.8066,-2.8053,-2.8029,-2.8025,-2.8097,-2.8106,-2.8096,-2.8097,-2.8097,-2.8106,-2.8104,-2.8104,-2.8452,-2.9244,-2.9282,-2.9708,-3.0559,-3.0598,-3.0598,-3.0598,-3.0598,-3.0598,-3.0598,-3.0598,-3.0598,-3.0665,-3.1632,-3.2542,-3.3321,-3.3371,-3.3894,-3.4668,-3.4687,-3.5215,-3.5957,-3.5996,-3.5996,-3.5996,-1.0203,-1.0199,-1.0191,-1.018,-1.0197,-1.0194,-1.0183,-1.0194,-1.0202,0.0,0.0,0.0,0.0,0.0,0.0,0.0,0.0,0.0,-1.0291,-1.0292,-1.0293,-1.0305,-1.0292,-1.0291,0.0,0.0,0.0,0.0,0.0,0.0,0.0,0.0,0.0,0.0,-1.063,-1.0631,-1.0676,-1.091,0.0,-1.2883,-1.3137,-1.3585,0.0,0.0,0.0,0.0,0.0,-1.8094,-1.8251,0.0,-1.7841,-1.6749,0.0,0.0,-1.4151,-1.4386,-1.5342,-1.626,-1.587,0.0,0.0,0.0,0.0,0.0,0.0,0.0,-2.3667,-2.4464,-2.4649,-2.4835,-2.5371,-2.5487,-2.5511,-2.5511,-2.5724,-2.5886,-2.5886,-2.6663,-2.7198,-2.7089,-2.7711,-2.8139,-2.8113,-2.8096,-2.81,0.0,-2.8094,-2.8085,-2.8025,-2.8025,-2.8122,-2.8354,-2.8973,-2.9418,-2.965,-3.0288,-3.0598,-3.0598,-3.0598,-3.0598,-3.0598,-3.0598,-3.0637,-3.0684,-3.0975,-3.1285,-3.17,-3.2893,-3.3545,-3.3828,-3.4453,-3.4844,-3.5137,-3.5762,-3.5996,-3.5996,-1.0239,-1.0237,-1.0235,-1.024,-1.0211,-1.0205,-1.02,-1.0193,-1.0207,0.0,0.0,0.0,0.0,0.0,0.0,0.0,0.0,0.0,-1.0269,-1.0273,-1.0292,-1.0262,-1.0293,-1.0293,0.0,0.0,0.0,0.0,0.0,0.0,0.0,0.0,0.0,0.0,-1.0299,-1.0302,-1.0305,-1.0305,0.0,0.0,-1.3528,0.0,0.0,-1.6416,-1.7431,0.0,0.0,0.0,-1.9362,-1.9715,-1.9241,0.0,0.0,-1.582,-1.5545,-1.4843,-1.5857,0.0,0.0,0.0,0.0,0.0,0.0,0.0,-2.2749,-2.3068,-2.3244,0.0,-2.4534,-2.4895,-2.5365,-2.5451,-2.5456,-2.5456,-2.5484,-2.5511,-2.555,-2.5978,-2.6293,-2.6243,-2.674,-2.7071,-2.7058,-2.7067,-2.7052,-2.707,-2.709,-2.707,-2.7008,-2.6962,-2.7116,-2.7445,-2.7948,-2.8393,-2.8741,-2.9611,-3.0056,-3.0056,-3.0424,-3.0598,-3.0598,-3.0598,-3.064,-3.0698,-3.073,-3.0799,-3.0984,-3.1945,-3.2578,-3.2949,-3.3457,-3.3867,-3.4258,-3.5137,-3.5469,-3.5508,0.0,-1.0306,-1.0306,-1.0305,-1.0259,-1.0212,-1.0212,-1.0217,-1.0202,0.0,0.0,0.0,0.0,0.0,0.0,0.0,0.0,0.0,-1.0197,-1.0254,-1.0273,-1.0209,-1.025,-1.0292,-1.0305,0.0,0.0,0.0,0.0,0.0,0.0,0.0,0.0,0.0,-1.0298,-1.0303,-1.0305,-1.0402,-1.0891,-1.1809,-1.427,-1.5363,0.0,0.0,-1.8739,-1.835,-1.989,-2.0027,-1.9558,-2.0339,-1.9977,0.0,-1.744,-1.7401,-1.7613,-1.6108,-1.6809,0.0,-1.7049,-1.7487,0.0,0.0,-2.0,0.0,-2.2315,-2.2775,-2.2984,0.0,-2.4477,-2.5041,-2.5225,-2.526,-2.5286,-2.5382,-2.5456,-2.553,-2.5588,-2.555,-2.5524,-2.5576,-2.5531,-2.553,-2.5588,-2.5587,-2.5585,-2.5604,-2.5654,-2.5642,-2.5588,-2.553,-2.584,-2.6547,-2.6644,-2.7078,-2.7851,-2.8722,-2.9166,-2.9166,-3.0037,-3.0462,-3.0462,-3.0559,-3.0636,-3.0684,-3.0755,-3.0833,-3.0898,-3.0898,-3.1367,-3.207,-3.2168,-3.2637,-3.3379,-3.4238,-3.4551,-3.4668,-1.0293,-1.0293,-1.0292,-1.0306,-1.0284,-1.0283,-1.0283,-1.0281,-1.0279,-1.0279,0.0,0.0,0.0,0.0,0.0,0.0,0.0,0.0,-1.0198,-1.0252,-1.027,-1.0207,-1.0269,-1.0293,-1.0302,-1.0293,0.0,0.0,0.0,0.0,0.0,0.0,0.0,0.0,-1.0303,-1.0305,-1.0344,-1.1047,-1.1438,-1.1751,-1.3605,0.0,-1.6572,-1.7782,-1.8582,-1.909,-1.9422,-1.991,-2.0378,-2.0534,-2.0006,-1.9218,0.0,-1.8388,-1.7907,-1.7458,-1.8107,-1.8754,-1.7828,-1.8714,-1.983,-1.9484,0.0,0.0,-2.0982,-2.1449,-2.1981,0.0,-2.2228,-2.2748,-2.4097,-2.4356,-2.4574,-2.5286,-2.5456,-2.5511,-2.553,-2.5511,-2.5499,-2.551,-2.5507,-2.5511,-2.553,-2.5522,-2.5536,-2.5594,-2.5564,-2.5538,-2.5511,-2.5511,-2.5569,-2.5724,-2.6354,-2.6779,-2.6953,-2.7813,-2.8238,-2.8257,-2.9128,-2.9553,-2.9573,-3.0288,-3.0617,-3.0626,-3.0697,-3.0755,-3.082,-3.0879,-3.0996,-3.1211,-3.1934,-3.2305,-3.2539,-3.3359,-3.3652,-3.3672,-1.029,-1.0291,-1.0292,-1.0293,-1.0292,-1.0291,-1.0291,-1.0308,-1.0442,0.0,0.0,0.0,0.0,0.0,0.0,0.0,0.0,0.0,0.0,-1.0272,-1.0291,-1.0243,-1.0286,-1.031,-1.0303,-1.0308,-1.0308,0.0,0.0,0.0,0.0,0.0,0.0,0.0,0.0,-1.054,-1.0949,-1.0949,-1.1458,-1.2435,-1.4542,0.0,-1.6884,-1.8621,-1.9578,-1.9949,-1.9949,-2.0222,-2.0593,-2.0593,-2.0267,0.0,-1.935,-1.9503,-1.9572,0.0,-1.9083,-2.0149,-1.8813,-1.9376,-2.036,-2.04,0.0,0.0,0.0,-2.1338,-2.174,-2.2115,-2.2196,-2.2593,-2.3859,-2.4097,-2.4237,-2.469,-2.5158,-2.5511,-2.5511,-2.5511,-2.5511,-2.5511,-2.5511,-2.5511,-2.5511,-2.5511,-2.5522,-2.5595,-2.5538,-2.5505,-2.5492,-2.5511,-2.5511,-2.5511,-2.5898,-2.6102,-2.6102,-2.6923,-2.7348,-2.7368,-2.8238,-2.8876,-2.9302,-2.9747,-3.0192,-3.0607,-3.0642,-3.0691,-3.0765,-3.0819,-3.0859,-3.0898,-3.1367,-3.1543,-3.1641,-3.248,-3.2793,-3.2851,-1.0304,-1.0305,-1.0305,-1.0305,-1.029,-1.0293,-1.0293,-1.0292,-1.0583,0.0,0.0,0.0,0.0,0.0,0.0,0.0,0.0,0.0,0.0,-1.0527,-1.0469,-1.0319,-1.0304,-1.0305,-1.0304,-1.0299,-1.0295,0.0,0.0,0.0,0.0,0.0,0.0,0.0,0.0,0.0,0.0,0.0,0.0,-1.3586,0.0,-1.6706,-1.6978,-1.9422,-2.0338,-2.0355,-2.0534,-2.0593,-2.0593,-2.059,-2.0503,-2.0301,-1.962,-2.0352,0.0,0.0,0.0,-2.1172,0.0,0.0,-2.0701,0.0,0.0,-2.0956,0.0,0.0,0.0,-2.2425,-2.2543,0.0,0.0,0.0,0.0,0.0,0.0,0.0,0.0,-2.5395,0.0,-2.5511,-2.5511,-2.5511,-2.5511,-2.5511,-2.5543,-2.5586,-2.5544,-2.5511,-2.5511,-2.5511,-2.5511,-2.5511,-2.5511,-2.5511,-2.5511,-2.6141,-2.647,-2.647,-2.7348,-2.8122,-2.8818,-2.9147,-2.9689,-3.0385,-3.054,-3.0645,-3.0706,-3.0794,-3.0817,-3.0801,-3.0879,-3.0898,-3.0996,-3.1699,-3.1953,-3.2031,-1.0301,-1.0303,-1.0305,-1.0305,-1.0305,-1.0306,-1.0306,-1.0307,-1.0601,0.0,0.0,0.0,0.0,0.0,0.0,0.0,0.0,0.0,-1.1406,-1.1367,-1.1053,-1.0331,-1.0303,-1.0306,-1.0301,-1.0309,-1.031,-1.0304,0.0,0.0,0.0,0.0,-1.0344,-1.048,-1.1145,0.0,0.0,0.0,-1.3586,0.0,-1.6279,-1.6701,0.0,-1.8753,-1.9413,-1.9461,-2.0297,-2.0593,-2.0591,0.0,-2.05,-2.0445,0.0,-2.0395,-2.055,-2.0147,0.0,0.0,0.0,0.0,0.0,0.0,-2.2029,0.0,0.0,0.0,-2.1532,-2.162,0.0,0.0,0.0,0.0,0.0,0.0,0.0,0.0,-2.435,-2.5008,-2.5511,-2.5511,-2.5511,-2.5511,-2.5511,-2.555,-2.5577,-2.5515,-2.5557,-2.5569,-2.5511,-2.5511,-2.5511,-2.5511,-2.5511,-2.5511,-2.5511,-2.5588,-2.5646,-2.5646,-2.645,-2.6895,-2.705,-2.8606,-2.9379,-2.9573,-3.0346,-3.0694,-3.0711,-3.0834,-3.0852,-3.0801,-3.0879,-3.0898,-3.0918,-3.1016,-3.1055,-3.1055,-1.0299,-1.0302,-1.0303,-1.0303,-1.0303,-1.0303,-1.0303,-1.1549,-1.2447,0.0,0.0,0.0,0.0,-1.2796,-1.2806,0.0,0.0,-1.2644,-1.2285,0.0,0.0,-1.1761,-1.1299,-1.1048,-1.1046,-1.0561,-1.0308,-1.0305,-1.0305,0.0,0.0,0.0,-1.0579,-1.1067,-1.1438,0.0,-1.2376,0.0,-1.3314,0.0,0.0,-1.5956,0.0,-1.9005,-2.0043,-2.0059,-2.0455,-2.0593,-2.0593,0.0,-2.0503,0.0,0.0,0.0,0.0,-2.0512,0.0,0.0,0.0,0.0,0.0,0.0,0.0,0.0,-2.1166,0.0,-2.1081,0.0,0.0,0.0,0.0,0.0,0.0,0.0,-2.34,0.0,0.0,0.0,-2.4365,0.0,0.0,0.0,-2.5511,-2.5569,-2.5569,-2.5511,-2.56,-2.5615,-2.5519,-2.5511,-2.5511,-2.5511,-2.5511,-2.5511,-2.5511,-2.5511,-2.5511,-2.5511,-2.584,-2.6238,-2.6721,-2.7464,-2.8083,-2.8653,-2.9553,-2.994,-2.9979,-3.0578,-3.0828,-3.0808,-3.0871,-3.0898,-3.0898,-3.0898,-3.0898,-3.0898,-1.0268,0.0,-1.0299,-1.0299,-1.0299,-1.0378,-1.0612,-1.2619,-1.3866,-1.3244,-1.4475,-1.4926,-1.3659,-1.3506,-1.3605,-1.3856,-1.3868,-1.3868,-1.3865,-1.3651,-1.3418,-1.316,-1.2397,-1.1849,-1.1614,-1.0989,-1.054,-1.0305,0.0,0.0,0.0,0.0,0.0,-1.1263,-1.1731,-1.2435,-1.3235,0.0,-1.3996,-1.4738,-1.5714,-1.6409,-1.7077,-1.9348,-2.0373,-2.0593,-2.0593,-2.0593,-2.0593,-2.0573,-2.0514,0.0,-2.0802,-2.1249,-2.1576,0.0,0.0,0.0,-2.2373,0.0,0.0,0.0,0.0,0.0,0.0,0.0,0.0,0.0,0.0,0.0,0.0,0.0,0.0,0.0,0.0,-2.2879,0.0,-2.2905,0.0,0.0,0.0,0.0,0.0,-2.5588,-2.5608,-2.553,-2.5629,-2.5642,-2.5507,-2.5511,-2.5511,-2.5511,-2.5511,-2.5511,-2.5511,-2.5511,-2.5511,-2.5511,-2.5511,-2.582,-2.6373,-2.6605,-2.7078,-2.7744,-2.8653,-2.9187,-2.948,-3.0153,-3.0568,-3.0817,-3.0877,-3.0898,-3.0898,-3.0898,-3.0898,-3.0898,-1.0205,-1.0256,0.0,0.0,-1.0295,-1.0588,-1.143,-1.2991,-1.4082,-1.4056,-1.4848,-1.5377,-1.5316,-1.5312,-1.566,-1.6506,-1.6567,-1.6564,-1.6563,-1.5792,-1.4936,-1.4097,-1.3281,-1.2454,-1.1614,-1.1575,-1.1146,-1.0305,0.0,0.0,0.0,0.0,0.0,0.0,-1.2103,-1.3313,-1.4112,-1.4953,-1.6787,-1.9031,-1.8231,-1.8934,-2.0355,0.0,-1.9804,-2.0593,-2.0593,0.0,0.0,-2.0534,-2.0495,0.0,0.0,0.0,0.0,0.0,0.0,0.0,0.0,0.0,0.0,-2.303,0.0,0.0,0.0,0.0,-2.1716,0.0,0.0,0.0,0.0,0.0,0.0,0.0,0.0,0.0,0.0,0.0,0.0,0.0,0.0,0.0,0.0,-2.5666,-2.5666,0.0,-2.5668,-2.5642,-2.5507,-2.5511,-2.5511,-2.5511,-2.5511,-2.5511,-2.5511,-2.5511,-2.5511,-2.5511,-2.5511,-2.5511,-2.5569,-2.6334,-2.6796,-2.6986,-2.7799,-2.8671,-2.9492,-2.9531,-3.0045,-3.0817,-3.0877,-3.0898,-3.0898,-3.0898,-3.0898,-3.0898,0.0,0.0,0.0,0.0,0.0,-1.1776,-1.3806,-1.4605,-1.5366,-1.6532,-1.6939,-1.7114,-1.7114,-1.7114,-1.7248,-1.7538,-1.7552,-1.7546,-1.7498,-1.6711,-1.6369,-1.6596,-1.4745,-1.3828,-1.4101,-1.3025,-1.2001,0.0,0.0,0.0,0.0,0.0,0.0,0.0,0.0,-1.3352,0.0,0.0,0.0,0.0,0.0,-1.9016,-2.0496,0.0,-2.032,-2.0599,-2.0599,-2.0599,0.0,-2.056,-2.0541,-2.0654,-2.1545,-2.1792,-2.1913,-2.2799,-2.3465,-2.3942,0.0,0.0,-2.4907,-2.3964,0.0,0.0,0.0,0.0,0.0,0.0,0.0,0.0,0.0,0.0,0.0,0.0,0.0,0.0,0.0,0.0,0.0,0.0,0.0,0.0,0.0,0.0,0.0,0.0,-2.535,0.0,-2.5577,-2.5608,-2.5588,-2.5511,-2.5511,-2.5511,-2.5511,-2.5511,-2.5511,-2.5511,-2.5511,-2.5511,-2.5511,-2.584,-2.5994,-2.608,-2.6939,-2.7808,-2.8681,-2.9309,-3.0088,-3.0875,-3.0897,-3.0898,-3.0898,-3.0898,-3.0897,-3.0909,-1.1771,0.0,0.0,0.0,-1.2121,-1.3453,-1.513,-1.591,-1.669,-1.7818,-1.7805,-1.7741,-1.7947,-1.816,-1.8325,-1.8416,-1.8426,-1.8399,-1.8367,-1.7883,-1.7677,-1.7889,-1.6334,-1.5578,-1.5818,-1.449,0.0,0.0,0.0,-1.1715,0.0,0.0,0.0,0.0,0.0,-1.3528,-1.4679,-1.6417,-1.7512,0.0,0.0,-1.9564,0.0,0.0,-2.0582,-2.0565,0.0,-2.0604,-2.0604,-2.0604,-2.0565,-2.074,-2.1952,-2.2079,-2.2006,-2.3218,-2.3704,-2.3942,-2.4219,-2.4703,0.0,-2.4381,-2.3851,0.0,-2.2219,0.0,-2.2623,0.0,0.0,0.0,0.0,0.0,0.0,0.0,0.0,0.0,0.0,-2.1564,0.0,0.0,0.0,0.0,0.0,0.0,-2.5051,-2.4749,-2.5039,0.0,0.0,-2.5627,-2.5608,-2.5511,-2.5511,-2.5511,-2.5511,-2.5511,-2.5511,-2.5511,-2.553,-2.5541,-2.5531,-2.557,-2.5601,-2.5673,-2.6197,-2.6953,-2.7839,-2.8727,-2.9636,-3.0468,-3.0779,-3.0896,-3.0896,-3.0896,-3.0891,-3.0899,-1.2497,-1.2119,-1.1942,-1.2887,-1.4318,-1.5383,-1.5559,-1.6863,-1.7874,-1.8008,-1.7546,-1.7398,-1.7965,-1.8547,-1.8987,-1.9231,-1.926,-1.926,-1.9263,-1.9211,-1.8857,-1.8059,-1.7944,-1.7527,-1.6739,0.0,0.0,0.0,0.0,0.0,0.0,0.0,0.0,0.0,-1.2586,0.0,-1.5578,-1.7315,-1.9056,-2.0601,-2.0596,-2.0593,-2.0605,-2.0605,-2.057,-2.0507,-2.0586,-2.0605,-2.0605,-2.0605,-2.0605,-2.0898,-2.2519,-2.2519,-2.2227,-2.3867,-2.375,-2.3281,-2.4092,-2.4302,-2.4308,-2.4346,-2.4322,0.0,0.0,0.0,-2.4192,0.0,0.0,0.0,0.0,0.0,0.0,0.0,0.0,0.0,0.0,0.0,0.0,0.0,0.0,0.0,0.0,-2.4303,-2.4662,-2.5328,-2.4807,0.0,0.0,-2.5569,-2.5577,-2.5515,-2.5519,-2.5511,-2.5511,-2.5511,-2.5492,-2.5499,-2.5569,-2.5609,-2.5593,-2.5601,-2.5634,-2.5696,-2.563,-2.613,-2.707,-2.7823,-2.8723,-2.9687,-3.0506,-3.086,-3.0899,-3.0899,-3.0899,-3.0899,-1.3499,-1.4487,-1.5543,-1.6437,-1.5399,-1.5288,-1.785,-1.7491,-1.7625,-1.9585,-1.8977,-1.8739,-1.9724,-1.9927,-2.0012,-2.0094,-2.0136,-2.0147,-2.0103,-1.9527,-1.9376,-1.9729,-1.8562,-1.8072,-1.8457,-1.708,-1.5916,-1.4977,0.0,0.0,-1.2772,0.0,0.0,0.0,0.0,0.0,-1.6479,-1.8238,-1.9608,-2.0605,-2.0598,-2.0573,-2.0527,0.0,-2.0552,-2.0521,-2.0576,-2.0605,-2.0605,-2.0605,-2.0605,-2.0781,-2.1875,-2.207,-2.2109,-2.3184,-2.3301,-2.3281,-2.414,-2.4372,-2.4524,-2.5119,-2.482,-2.429,0.0,0.0,0.0,0.0,0.0,0.0,0.0,0.0,0.0,0.0,0.0,0.0,0.0,0.0,0.0,-2.2657,0.0,0.0,0.0,-2.3603,-2.4144,-2.3679,-2.4671,-2.5368,0.0,0.0,-2.5673,-2.5644,-2.5646,-2.5627,-2.5569,-2.5569,-2.557,-2.5581,-2.5647,-2.5669,-2.5673,-2.5671,-2.5676,-2.5707,-2.5676,-2.617,-2.7012,-2.7226,-2.8201,-2.9628,-2.9843,-3.0331,-3.0899,-3.0909,-3.0905,-3.0899,-1.4875,-1.6406,-1.7799,-1.8333,-1.7543,-1.7372,-1.8958,-1.8671,-1.879,-2.025,-1.9909,-1.9748,-2.0379,-2.0418,-2.0399,-2.0399,-2.0423,-2.0286,-1.9859,-1.9768,0.0,-1.9821,-1.9299,-1.9207,-1.9662,-1.8406,0.0,-1.6385,0.0,0.0,-1.3884,0.0,0.0,0.0,0.0,-1.5874,-1.6831,-1.8963,-2.0156,-2.0605,-2.0604,-2.0582,0.0,-2.0581,-2.059,-2.0557,-2.0588,-2.0605,-2.0605,-2.0605,-2.0605,-2.0742,-2.1621,-2.1641,-2.1504,-2.2383,-2.2598,-2.2773,-2.3633,-2.4121,-2.4608,-2.5448,-2.5292,-2.4957,-2.4888,-2.486,-2.4865,0.0,-2.5214,-2.5504,0.0,0.0,0.0,0.0,0.0,0.0,0.0,0.0,0.0,0.0,-2.3291,0.0,-2.15,-2.2814,-2.3566,-2.3035,-2.3902,-2.4631,0.0,0.0,-2.5692,-2.567,-2.5675,-2.5659,-2.5609,-2.5626,-2.5633,-2.5632,-2.5688,-2.5702,-2.5706,-2.5696,-2.5703,-2.5703,-2.5702,-2.5973,-2.6462,-2.6843,-2.7583,-2.8543,-2.9301,-3.0118,-3.086,-3.0866,-3.0866,-3.0899,-1.666,-1.809,-1.9194,0.0,0.0,-2.0326,-1.9623,-2.0027,-2.0399,-2.0399,-2.0399,-2.0399,-2.0399,-2.0399,-2.0399,-2.0399,-2.0399,-2.0075,-1.9313,-1.9984,-2.0055,-1.9294,-1.9984,-2.0399,-2.0392,-1.9541,-1.8671,-1.7808,-1.699,-1.6153,0.0,0.0,0.0,0.0,0.0,0.0,0.0,-1.9589,-2.0605,-2.0605,-2.0605,-2.0605,-2.0605,-2.0605,-2.0603,-2.0605,-2.0591,-2.0605,-2.0625,-2.0723,-2.0762,-2.0918,-2.1797,-2.1543,-2.1094,-2.1836,-2.2051,-2.2246,-2.3125,-2.3867,-2.4609,-2.5488,-2.5703,-2.5684,-2.5625,-2.5605,-2.5605,-2.5611,-2.5564,-2.5556,-2.5677,0.0,0.0,0.0,0.0,0.0,0.0,0.0,0.0,0.0,0.0,0.0,0.0,-2.2174,-2.3036,-2.2863,-2.2944,-2.3398,0.0,0.0,-2.5568,-2.5613,-2.5677,-2.5679,-2.5616,-2.5671,-2.5705,-2.5693,-2.5703,-2.5703,-2.5703,-2.5703,-2.5703,-2.5703,-2.5694,-2.5707,-2.5767,-2.6529,-2.6963,-2.7338,-2.8951,-3.0099,-3.0801,-3.0801,-3.0841,-3.088,-1.9419,-1.9898,0.0,0.0,-2.0847,-2.1355,-2.1273,-2.0779,-2.0399,-2.0399,-2.0399,-2.0399,-2.0399,-2.0399,-2.0399,-2.0399,-2.0399,0.0,-2.0185,0.0,0.0,-2.0095,-2.0238,-2.0321,-2.0327,-1.9516,-1.8677,-1.7803,-1.6987,-1.6189,0.0,0.0,0.0,0.0,0.0,0.0,-1.8916,-2.0097,0.0,-2.0605,-2.0605,-2.0605,-2.0605,-2.0605,-2.0604,-2.0597,-2.0605,-2.0605,-2.0703,-2.1426,-2.168,-2.1816,-2.2637,-2.2812,-2.2754,-2.2852,-2.2891,-2.3086,-2.3945,-2.4297,-2.4609,-2.5488,-2.5703,-2.5703,-2.5684,-2.5683,-2.5683,-2.5675,-2.5677,-2.566,-2.5615,0.0,0.0,0.0,0.0,0.0,0.0,0.0,0.0,0.0,0.0,-2.4307,0.0,-2.2531,-2.2801,-2.2075,-2.2685,0.0,0.0,0.0,-2.4955,0.0,-2.5683,-2.5683,0.0,0.0,-2.5696,-2.5696,-2.5702,-2.5703,-2.5703,-2.5703,-2.5702,-2.5693,-2.5709,-2.5693,-2.5718,-2.5867,-2.6763,-2.8168,-2.9203,-3.0099,-3.0801,-3.0801,-3.0801,-3.0821,-2.1091,0.0,0.0,0.0,-2.1436,-2.228,-2.2314,-2.2724,-2.2719,-2.1829,-2.0914,-2.0521,-2.0972,-2.0624,-2.0347,-2.036,-2.036,-2.036,-2.036,-2.036,-2.0334,-2.0288,-2.0288,-2.0308,-2.0294,-1.9915,-1.9333,-1.8531,-1.7694,-1.6855,0.0,0.0,0.0,-1.5469,0.0,-1.8339,0.0,0.0,0.0,-2.0605,-2.0605,-2.0605,-2.0605,-2.0605,-2.0605,-2.0664,-2.1113,-2.1269,-2.1343,-2.1758,-2.1894,-2.2051,-2.2891,-2.3144,-2.3144,-2.3105,-2.3418,-2.3867,-2.4297,-2.4727,-2.5176,-2.5605,-2.5703,-2.5703,-2.57,-2.5699,-2.57,-2.5703,-2.5702,-2.5699,-2.566,-2.5622,0.0,0.0,0.0,0.0,0.0,0.0,-2.5324,0.0,0.0,0.0,0.0,0.0,0.0,0.0,0.0,0.0,0.0,0.0,-2.4805,0.0,0.0,0.0,-2.5703,0.0,-2.5703,-2.5703,-2.5703,-2.5703,-2.5703,-2.5701,-2.5696,-2.5707,-2.5707,-2.5691,-2.5694,-2.5709,-2.6722,-2.8342,-2.8752,-2.9662,-3.0758,-3.0758,-3.0724,-3.0711,-2.2369,-2.328,0.0,0.0,-2.1791,-2.2894,-2.2911,-2.4368,-2.4706,-2.2627,-2.1461,-2.0978,-2.1313,-2.0727,-2.0288,-2.0294,-2.0294,-2.0294,-2.0294,-2.0294,-2.0294,-2.0306,-2.0306,-2.0306,-2.0299,-2.0306,-1.9922,-1.9161,-1.849,-1.775,0.0,-1.6269,-1.5957,-1.6035,0.0,0.0,0.0,0.0,-2.0879,-2.0859,-2.0664,-2.0703,-2.0879,-2.0878,-2.0976,-2.123,-2.1914,-2.2142,-2.216,-2.2351,-2.2415,-2.2554,-2.3456,-2.3691,-2.3633,-2.3652,-2.4139,-2.4664,-2.4667,-2.5175,-2.5683,-2.5703,-2.5703,-2.5643,-2.5479,-2.5416,-2.538,-2.5194,-2.5148,-2.5208,-2.5378,-2.5395,0.0,0.0,0.0,0.0,0.0,0.0,0.0,0.0,0.0,0.0,-2.2014,0.0,0.0,0.0,0.0,0.0,-2.3047,0.0,0.0,0.0,0.0,-2.5703,-2.5703,0.0,-2.5703,-2.5703,-2.5703,-2.5703,-2.5702,-2.5694,-2.5709,-2.5691,-2.5709,-2.5707,-2.5707,-2.5681,-2.6598,-2.8023,-2.819,-2.9145,-3.0443,-3.0614,-3.0645,-3.0614,-2.3531,0.0,0.0,0.0,0.0,-2.2901,-2.2901,-2.4284,-2.4167,-2.095,-2.1777,-2.2107,-2.0669,-2.0385,-2.0306,-2.0299,-2.0294,-2.0294,-2.0294,-2.0294,-2.0306,-2.0304,-2.0304,-2.0296,-2.0292,-2.0296,-1.9877,0.0,0.0,-1.8644,0.0,-1.7773,-1.7752,-1.7821,-1.9575,0.0,0.0,-2.1442,-2.1774,-2.1716,-2.0918,-2.1074,-2.1777,-2.1788,-2.2231,-2.2877,-2.2964,-2.2942,-2.3028,-2.3811,-2.4073,-2.4249,-2.5166,-2.5427,-2.5388,-2.5446,-2.5464,-2.5508,-2.5558,-2.5584,-2.5623,-2.5681,-2.5701,-2.5485,-2.4703,-2.4523,-2.4303,-2.3505,-2.3344,-2.3575,-2.4291,-2.4427,-2.4432,0.0,0.0,0.0,0.0,0.0,-2.5258,-2.4309,0.0,0.0,0.0,-2.1896,0.0,0.0,-2.0644,-2.1405,-2.3008,-2.3184,0.0,-2.5644,-2.5703,-2.5703,-2.5703,-2.5703,-2.5703,-2.5703,-2.5703,-2.5702,-2.5709,-2.5707,-2.5693,-2.5699,-2.5691,-2.5707,-2.5705,-2.5619,-2.6174,-2.711,-2.7832,-2.8689,-2.9603,-3.0335,-3.06,-3.06,0.0,0.0,0.0,0.0,0.0,0.0,0.0,-2.4889,-2.4812,-2.3484,-2.3028,-2.2609,-2.1975,-2.1548,-2.1043,-2.0366,-2.122,-2.1586,-2.1047,-2.1028,-2.1028,-2.1012,-2.055,-2.03,-2.0312,-2.0781,-2.0862,0.0,0.0,-1.9753,-1.9452,-1.8999,-1.9349,-2.0364,0.0,-2.1645,-2.2117,-2.247,-2.2626,-2.2589,-2.224,-2.2301,-2.2616,-2.2612,-2.2781,-2.31,-2.3622,-2.3782,-2.3851,-2.4736,-2.4665,-2.4397,-2.5298,-2.5556,-2.5543,-2.5563,-2.5556,-2.5554,-2.557,-2.5556,-2.5543,-2.5563,-2.5582,-2.5481,-2.5148,-2.4695,-2.4237,-2.3881,-2.34,-2.3134,-2.3461,-2.3527,-2.35,-2.3474,0.0,0.0,0.0,0.0,0.0,-2.4242,0.0,-2.3528,0.0,0.0,0.0,0.0,0.0,-2.1348,-2.3066,-2.3164,0.0,-2.5644,0.0,-2.5703,-2.5703,-2.5703,-2.5703,-2.5697,-2.5697,-2.5697,-2.5696,-2.5696,-2.5687,-2.5645,-2.5642,-2.5613,-2.5585,-2.5547,-2.6048,-2.687,-2.7193,-2.8126,-2.9323,-2.9633,-3.0074,-3.0492,-2.537,0.0,-2.5409,0.0,-2.5303,-2.5303,-2.5303,-2.5303,-2.5303,-2.5303,-2.4274,-2.3552,-2.3606,-2.3232,-2.2645,-2.185,-2.2408,-2.2543,-2.1927,-2.1889,-2.1773,-2.1504,-2.0966,0.0,-2.0658,-2.1216,-2.165,-2.1957,-2.1403,-2.1167,-2.1216,-2.0662,-2.1063,-2.2259,-2.2527,-2.2953,-2.3478,-2.3478,-2.348,-2.346,-2.3179,-2.3244,-2.3489,-2.3432,-2.3564,-2.3847,-2.4444,-2.46,-2.4648,-2.5263,-2.5057,-2.4643,-2.5277,-2.548,-2.548,-2.5498,-2.5486,-2.5473,-2.5479,-2.5488,-2.548,-2.5498,-2.5504,-2.5434,-2.5189,-2.4491,-2.3758,-2.326,-2.2654,-2.2287,-2.2539,-2.2572,-2.2634,-2.2852,0.0,0.0,0.0,-2.4658,0.0,-2.4176,-2.3692,-2.3018,-2.2056,-2.1806,0.0,0.0,0.0,-2.195,-2.3448,-2.3528,0.0,0.0,0.0,0.0,-2.5636,-2.5636,-2.5655,-2.5672,-2.5654,-2.5651,-2.5661,-2.5657,-2.5613,-2.5561,-2.5576,-2.5542,-2.5498,-2.548,-2.5829,-2.6411,-2.6643,-2.745,-2.8511,-2.8985,-2.9533,-3.0044,-2.5303,-2.5303,-2.5303,-2.5303,-2.5303,-2.5303,-2.5303,-2.5303,-2.5303,-2.5303,-2.5284,-2.5264,-2.5264,-2.5264,-2.5245,-2.5245,-2.3735,-2.2793,-2.2774,-2.2774,-2.2389,0.0,0.0,-2.1485,-2.1485,-2.1504,-2.1927,-2.2793,0.0,-2.2895,-2.2965,-2.3029,-2.3072,-2.3111,-2.3987,-2.4378,-2.4378,-2.4378,-2.4378,-2.4298,-2.3377,-2.3566,-2.4376,-2.423,-2.4768,-2.5552,-2.5515,-2.5441,-2.5395,-2.5395,-2.5348,-2.5303,-2.546,-2.5453,-2.541,-2.548,-2.5453,-2.543,-2.548,-2.5453,-2.541,-2.5486,-2.5504,-2.5265,-2.4411,-2.36,-2.2532,-2.0808,-2.0394,-2.0592,-2.1462,-2.156,-2.1823,-2.2747,0.0,0.0,0.0,-2.4168,0.0,-2.411,-2.2703,-2.2018,-2.2725,-2.2122,0.0,0.0,0.0,-2.3361,-2.4234,-2.43,0.0,-2.5474,-2.5571,0.0,-2.5493,-2.5493,-2.5538,-2.5602,-2.5531,-2.5543,-2.5601,-2.5538,-2.5499,-2.5504,-2.5504,-2.5504,-2.5498,-2.5425,-2.5414,-2.5503,-2.6294,-2.6601,-2.6832,-2.8497,-2.9113,-2.9236,-2.5293,-2.5303,-2.5303,-2.5303,-2.5252,-2.5228,-2.5228,-2.5228,-2.525,-2.5293,-2.5303,-2.5303,-2.5303,-2.5253,-2.5233,0.0,-2.4734,-2.4197,0.0,-2.3621,-2.3487,-2.3218,-2.2633,-2.2326,-2.2326,-2.2911,-2.3333,-2.3621,0.0,0.0,-2.3887,-2.3913,-2.4266,-2.4887,-2.516,-2.5297,-2.5297,-2.5297,-2.5297,-2.5256,-2.4911,-2.4943,-2.5203,-2.5127,-2.5234,-2.5453,-2.5432,-2.5398,-2.5331,-2.5341,-2.5332,-2.5293,-2.5303,-2.5321,-2.534,-2.5357,-2.5339,-2.534,-2.5357,-2.5359,-2.5475,-2.6109,-2.5809,-2.5462,-2.5762,-2.4284,-2.2373,-2.0629,-2.028,-2.0381,-2.0658,-2.0693,-2.0957,-2.1803,-2.2658,0.0,-2.4015,0.0,-2.4524,-2.3351,-2.3283,-2.2964,-2.2004,-2.2275,0.0,0.0,0.0,-2.3934,-2.4227,0.0,0.0,0.0,-2.5522,0.0,-2.5506,-2.5506,-2.551,-2.5532,-2.5505,-2.5512,-2.5523,-2.5505,-2.5479,-2.5432,-2.5432,-2.5414,-2.5357,-2.535,-2.5331,-2.5351,-2.5611,-2.6082,-2.6736,-2.7871,-2.8621,-2.9217,-2.5261,-2.5252,-2.5252,-2.5252,-2.5236,-2.5191,-2.5191,-2.5191,-2.5214,-2.5261,-2.5252,-2.5252,-2.5252,-2.522,0.0,-2.5198,-2.5201,-2.4982,-2.4483,-2.4445,-2.433,-2.4013,-2.3476,-2.3189,-2.3189,-2.3725,0.0,-2.4445,-2.4513,-2.459,-2.4674,-2.4696,-2.5035,-2.5586,-2.5642,-2.5671,-2.5671,-2.5654,-2.5651,-2.5645,-2.5552,-2.5537,-2.5542,-2.546,-2.5403,-2.5398,-2.5365,-2.5322,-2.5253,-2.5262,-2.5252,-2.5252,-2.5212,-2.5182,-2.5201,-2.5243,-2.5264,-2.5264,-2.5264,-2.5264,-2.5398,-2.5936,-2.5917,-2.581,-2.6022,-2.4361,-2.2459,-2.1366,-2.0664,-2.0365,-2.0691,-2.074,-2.1018,-2.1825,-2.2689,-2.3554,-2.4438,0.0,-2.4369,0.0,0.0,0.0,0.0,-2.3015,-2.3678,0.0,0.0,0.0,0.0,0.0,-2.4889,-2.5418,-2.5457,-2.5457,-2.5428,-2.5428,-2.5446,-2.5456,-2.5456,-2.5456,-2.5418,-2.5418,-2.5395,-2.5357,-2.5357,-2.535,-2.5303,-2.5303,-2.5303,-2.5303,-2.5303,-2.563,-2.6217,-2.7082,-2.7928,-2.8775,-2.5191,-2.5191,-2.5191,-2.5191,-2.5191,-2.5191,-2.5191,-2.5191,-2.5191,-2.5191,-2.5191,-2.5191,-2.5191,-2.518,-2.5168,-2.5156,0.0,0.0,-2.5201,-2.5201,-2.4875,-2.4128,-2.4089,-2.4089,-2.4089,-2.4089,-2.4454,-2.5212,-2.5255,-2.5301,-2.529,-2.5352,-2.5395,-2.5402,-2.5532,-2.56,-2.558,-2.5589,-2.5589,-2.5571,-2.5446,-2.5425,-2.5479,-2.535,-2.5331,-2.5376,-2.5322,-2.5252,-2.5192,-2.5212,-2.5182,-2.5201,-2.5171,-2.5091,-2.5006,-2.5149,-2.5171,-2.5171,-2.5171,-2.5171,-2.519,-2.5248,-2.5868,-2.6213,-2.5283,-2.3877,-2.2728,-2.268,-2.1426,-2.0593,-2.1407,-2.156,-2.1809,-2.2623,-2.3437,-2.4271,-2.5146,-2.4465,-2.3927,0.0,0.0,0.0,-2.3976,-2.413,-2.4476,0.0,0.0,0.0,0.0,0.0,-2.536,-2.5303,-2.5361,-2.5361,-2.5303,-2.5303,-2.5331,-2.5379,-2.5379,-2.5357,-2.5303,-2.5303,-2.5303,-2.5303,-2.5303,-2.5303,-2.5303,-2.5284,-2.5303,-2.5303,-2.5284,-2.5303,-2.5418,-2.6341,-2.7159,-2.7948,0.0,0.0,-2.5191,-2.5191,-2.5191,-2.5191,-2.5191,-2.5191,-2.5191,-2.5191,-2.5191,-2.5191,-2.5191,-2.4966,-2.4779,-2.4663,-2.5,-2.5195,-2.5195,-2.5195,-2.5118,-2.4916,-2.4916,-2.4916,-2.4916,-2.4916,-2.5004,-2.5198,-2.5231,-2.5254,-2.529,-2.5316,-2.5356,-2.5395,-2.5441,-2.5447,-2.5447,-2.5453,-2.5453,-2.5441,-2.5368,-2.5335,-2.5335,-2.5264,-2.5224,-2.5253,-2.5233,-2.5212,-2.5212,-2.5209,-2.5141,-2.5025,-2.4981,-2.4874,-2.4808,-2.4994,-2.4962,-2.4883,-2.4883,-2.4883,-2.5034,-2.566,-2.5963,-2.5721,-2.4241,-2.3612,-2.312,-2.2463,-2.2004,-2.179,-2.1998,-2.2017,-2.2313,-2.3171,-2.3474,-2.3922,-2.4801,-2.4718,-2.4325,0.0,-2.4017,-2.4117,-2.367,-2.4338,-2.4866,0.0,0.0,-2.5303,-2.5303,-2.5322,-2.5322,-2.5303,-2.5313,-2.5313,-2.5303,-2.5303,-2.5322,-2.5322,-2.5322,-2.5313,-2.5303,-2.5303,-2.5303,-2.5303,-2.5302,-2.5302,-2.5292,-2.5243,-2.5243,-2.5292,-2.5233,-2.5243,-2.5484,-2.696,-2.7259,-2.7204,-2.5107,-2.5095,-2.512,-2.518,-2.5191,-2.5191,-2.5191,-2.5191,-2.5187,-2.5126,-2.5156,-2.5191,-2.5191,-2.5038,-2.4746,-2.4319,-2.47,-2.4953,-2.4921,-2.4921,-2.4953,-2.4966,-2.4953,-2.4953,-2.4966,-2.4966,-2.4966,-2.4974,-2.4974,-2.4994,-2.5022,-2.508,-2.5146,-2.5187,-2.5288,-2.5348,-2.5348,-2.5337,-2.5356,-2.534,-2.5283,-2.5255,-2.5235,-2.5149,-2.5103,-2.5111,-2.5111,-2.508,-2.5068,-2.5056,-2.5013,-2.4934,-2.4851,-2.4704,-2.4575,-2.4697,-2.4746,-2.4764,-2.4764,-2.4764,-2.4953,-2.5759,-2.5668,-2.5258,-2.4716,-2.3986,-2.3422,-2.3356,-2.2717,-2.2267,-2.2675,-2.275,-2.29,-2.3366,-2.3794,-2.4204,-2.4685,-2.47,-2.4516,-2.4153,-2.4429,-2.4509,-2.4134,-2.4585,-2.4917,-2.4917,-2.5005,0.0,-2.5163,-2.5192,-2.5243,-2.5303,-2.5303,-2.5303,-2.5303,-2.5303,-2.5303,-2.5303,-2.5303,-2.5303,-2.5303,-2.5303,-2.5303,-2.5312,-2.5292,-2.5282,-2.5252,-2.5222,-2.5222,-2.5252,-2.5212,-2.5222,-2.5367,-2.6277,-2.6584,-2.6798,-2.501,-2.501,-2.505,-2.5144,-2.5168,-2.5168,-2.5168,-2.5168,-2.512,-2.5004,-2.5095,-2.5113,-2.5,-2.4987,-2.4712,-2.4037,-2.4356,-2.4594,-2.4591,-2.4604,-2.4639,-2.4673,-2.4607,-2.4607,-2.4657,-2.4673,-2.4673,-2.4673,-2.4707,-2.4707,-2.4707,-2.4832,-2.4902,-2.4915,-2.5173,-2.5274,-2.5274,-2.5274,-2.5283,-2.5284,-2.5192,-2.5157,-2.5141,-2.5013,-2.4961,-2.4953,-2.4953,-2.4921,-2.4874,-2.4874,-2.4861,-2.4799,-2.4689,-2.451,-2.4373,-2.4373,-2.4495,-2.4629,-2.4629,-2.4629,-2.4778,-2.5466,-2.5132,-2.4797,-2.5485,-2.4535,-2.3733,-2.4479,-2.3453,-2.2637,-2.3381,-2.3528,-2.3528,-2.3528,-2.4126,-2.4626,-2.462,0.0,-2.4528,-2.4685,-2.4556,-2.4524,-2.47,-2.4746,-2.476,-2.476,-2.4766,-2.4845,-2.4962,-2.5018,-2.5126,-2.5243,-2.5274,-2.5303,-2.5303,-2.5303,-2.5303,-2.5303,-2.5303,-2.5303,-2.5303,-2.5293,-2.5283,-2.5282,-2.5282,-2.5241,-2.5201,-2.5201,-2.5201,-2.5201,-2.5201,-2.5201,-2.5201,-2.5335,-2.5757,-2.6458,-2.501,-2.501,-2.501,-2.5037,-2.5037,-2.5037,-2.5037,-2.5037,-2.5004,-2.501,-2.5023,-2.4764,-2.4099,-2.4022,-2.3981,-2.3837,-2.4014,-2.4229,-2.4489,-2.4666,-2.4697,-2.454,-2.4522,-2.4522,-2.4522,-2.4591,-2.4607,-2.4607,-2.4673,-2.4707,-2.4707,-2.4832,-2.4902,-2.4915,-2.5118,-2.5225,-2.5225,-2.5206,-2.5225,-2.5195,-2.5025,-2.4955,-2.4929,-2.4794,-2.4753,-2.4753,-2.4753,-2.4753,-2.4719,-2.4719,-2.4623,-2.4474,-2.4441,-2.4338,-2.4228,-2.4228,-2.4247,-2.4284,-2.4284,-2.4284,-2.4303,-2.4413,-2.4358,-2.4303,-2.445,-2.4266,-2.4118,-2.4247,-2.4063,-2.3916,-2.4063,-2.4082,-2.4082,-2.4082,-2.4192,-2.4284,-2.4284,0.0,-2.4266,-2.4284,-2.4266,-2.4266,-2.4284,-2.4444,-2.4561,-2.4561,-2.4716,-2.4818,-2.4828,-2.4828,-2.4915,-2.5043,-2.5212,-2.5303,-2.5303,-2.5303,-2.5303,-2.5303,-2.5302,-2.5292,-2.5292,-2.5233,-2.5222,-2.5212,-2.5209,-2.5198,-2.5198,-2.5195,-2.5195,-2.5198,-2.5195,-2.5195,-2.5275,-2.5948,-2.5865,-2.5734,-2.501,-2.501,-2.501,-2.501,-2.501,-2.501,-2.501,-2.4623,-2.4355,-2.4355,-2.4355,-2.4211,-2.3837,-2.3795,-2.3795,-2.3795,-2.3873,-2.3958,-2.4118,-2.4247,-2.4301,-2.4229,-2.4192,-2.4192,-2.4229,-2.4266,-2.4284,-2.4284,-2.4321,-2.4321,-2.4338,-2.4489,-2.4632,-2.476,-2.4947,-2.5101,-2.5191,-2.5069,-2.5044,-2.5013,-2.4865,-2.4794,-2.476,-2.4607,-2.4543,-2.4543,-2.4543,-2.4543,-2.4543,-2.4543,-2.4476,-2.4391,-2.4321,-2.4247,-2.417,-2.4016,-2.4094,-2.419,-2.419,-2.419,-2.419,-2.419,-2.419,-2.419,-2.419,-2.419,-2.419,-2.419,-2.419,-2.419,-2.419,-2.419,-2.419,-2.419,-2.419,-2.419,-2.419,-2.419,-2.419,-2.419,-2.419,-2.419,-2.419,-2.4284,-2.4339,-2.4339,-2.4408,-2.4508,-2.4623,-2.4636,-2.4727,-2.4888,-2.5056,-2.5103,-2.5043,-2.5043,-2.5068,-2.5126,-2.5134,-2.5134,-2.5134,-2.519,-2.5168,-2.5099,-2.5164,-2.5206,-2.5203,-2.5191,-2.5203,-2.5203,-2.5191,-2.5203,-2.5241,-2.5612,-2.5516,-2.5444,-2.501,-2.501,-2.501,-2.501,-2.4846,-2.4719,-2.4719,-2.4211,-2.3795,-2.3795,-2.3795,-2.3795,-2.3795,-2.3795,-2.3795,-2.3795,-2.3795,-2.3795,-2.3795,-2.3855,-2.3896,-2.3937,-2.3896,-2.3896,-2.3937,-2.3976,-2.3976,-2.3976,-2.3996,-2.3996,-2.3996,-2.4211,-2.4389,-2.4543,-2.4727,-2.4921,-2.5044,-2.4921,-2.4847,-2.4832,-2.4704,-2.4626,-2.461,-2.4425,-2.4355,-2.4355,-2.4355,-2.4355,-2.4355,-2.4355,-2.4355,-2.432,-2.4171,-2.4094,-2.4054,-2.3774,-2.3816,-2.3958,-2.3996,-2.4016,-2.4016,-2.4016,-2.4016,-2.4016,-2.4016,-2.4016,-2.4016,-2.4016,-2.4016,-2.4016,-2.4016,-2.4016,-2.4016,-2.4016,0.0,-2.4094,-2.4016,-2.4113,-2.417,-2.4113,-2.417,-2.419,-2.419,-2.419,-2.419,-2.419,-2.4209,-2.4284,-2.4409,-2.4425,-2.4491,-2.4654,-2.4861,-2.4902,-2.4804,-2.4804,-2.4861,-2.4955,-2.4942,-2.4942,-2.4923,-2.5043,-2.5038,-2.494,-2.5044,-2.5094,-2.5125,-2.5125,-2.5168,-2.5191,-2.5191,-2.5191,-2.5191,-2.5191,-2.5191,-2.5325,-2.501,-2.501,-2.501,-2.501,-2.4389,-2.3881,-2.3881,-2.3837,-2.3795,-2.3795,-2.3795,-2.3795,-2.3795,-2.3795,-2.3795,-2.3795,-2.3795,-2.3795,-2.3795,-2.3795,-2.3816,-2.3816,-2.3816,-2.3816,-2.3816,-2.3876,-2.3917,-2.3917,-2.3976,-2.3996,-2.3996,-2.421,-2.4303,-2.4339,-2.4526,-2.4639,-2.4654,-2.4689,-2.4704,-2.4707,-2.451,-2.4424,-2.4408,-2.4266,-2.4209,-2.4209,-2.4209,-2.4209,-2.4209,-2.4209,-2.4209,-2.4152,-2.3917,-2.3816,-2.3756,-2.3437,-2.3323,-2.33,-2.3414,-2.3459,-2.3459,-2.3459,-2.3459,-2.3459,-2.3459,-2.3459,-2.3459,-2.3459,-2.3459,-2.3459,-2.3459,-2.3459,-2.3459,-2.3459,0.0,0.0,-2.3482,-2.3896,-2.4113,-2.3876,-2.4054,-2.419,-2.419,-2.419,-2.419,-2.419,-2.419,-2.4209,-2.4228,-2.4228,-2.4228,-2.4247,-2.4607,-2.4818,-2.4804,-2.4804,-2.4804,-2.4818,-2.4741,-2.4727,-2.4727,-2.4734,-2.4719,-2.4723,-2.4738,-2.4808,-2.4915,-2.4915,-2.5044,-2.5191,-2.5191,-2.5191,-2.5191,-2.5191,-2.5191,-2.5325,-2.4355,-2.4265,-2.4265,-2.4265,-2.4001,-2.3795,-2.3795,-2.3795,-2.3795,-2.3795,-2.3795,-2.4252,-2.5471,-2.631,-2.6303,-2.5147,-2.5273,-2.5205,-2.4743,-2.4726,-2.4444,-2.3831,-2.3795,-2.3795,-2.3795,-2.3816,-2.3837,-2.3837,-2.3858,-2.3876,-2.3876,-2.3998,-2.4115,-2.4229,-2.4356,-2.4459,-2.454,-2.4478,-2.4461,-2.4441,-2.4284,-2.4247,-2.4266,-2.4228,-2.419,-2.419,-2.419,-2.4094,-2.3937,-2.3937,-2.3837,-2.3671,-2.3544,-2.35,-2.3414,-2.3129,-2.2925,-2.2764,-2.2816,-2.3056,-2.3277,-2.3277,-2.3277,-2.33,-2.3346,-2.3346,-2.3346,-2.3392,-2.3392,-2.3392,-2.3392,-2.3392,-2.3392,-2.3392,0.0,-2.3522,-2.3414,-2.3566,-2.3671,-2.3566,-2.3649,-2.3774,-2.3937,-2.3937,-2.4016,-2.419,-2.419,-2.419,-2.419,-2.419,-2.419,-2.419,-2.4339,-2.4445,-2.4445,-2.4445,-2.4478,-2.4556,-2.4524,-2.4524,-2.4524,-2.4642,-2.4626,-2.4526,-2.4642,-2.4738,-2.4779,-2.4779,-2.4865,-2.5013,-2.5013,-2.5101,-2.5191,-2.5191,-2.5191,-2.5249,-2.4265,-2.3921,-2.3707,-2.3707,-2.3753,-2.3795,-2.3795,-2.3795,-2.397,-2.4484,-2.4557,-2.4896,-2.5812,-2.6923,-2.7063,-2.5777,-2.5887,-2.5807,-2.5292,-2.5285,-2.4874,-2.3988,-2.3705,-2.3584,-2.3584,-2.3584,-2.3584,-2.3584,-2.3584,-2.3584,-2.3584,-2.3624,-2.3774,-2.3979,-2.3941,-2.4003,-2.4174,-2.4117,-2.4022,-2.3966,-2.3979,-2.3996,-2.4036,-2.4036,-2.4094,-2.4151,-2.4054,-2.3896,-2.3714,-2.3649,-2.35,-2.3323,-2.3206,-2.3105,-2.2982,-2.2816,-2.2615,-2.2432,-2.246,-2.2703,-2.2933,-2.3007,-2.3007,-2.3007,-2.3056,-2.3056,-2.3056,-2.3105,-2.3105,-2.3105,-2.3105,-2.3129,-2.3153,-2.3153,-2.3242,-2.3289,-2.3177,-2.3318,-2.3387,-2.3294,-2.3364,-2.3459,-2.3671,-2.3735,-2.3876,-2.4074,-2.4151,-2.419,-2.419,-2.419,-2.419,-2.419,-2.419,-2.419,-2.419,-2.419,-2.4247,-2.4338,-2.4338,-2.4338,-2.4356,-2.4478,-2.4479,-2.4338,-2.4478,-2.458,-2.461,-2.461,-2.4716,-2.4902,-2.4902,-2.5013,-2.5191,-2.5191,-2.5191,-2.5191,-2.4889,-2.4174,-2.3494,-2.3494,-2.3682,-2.3795,-2.3795,-2.3813,-2.4382,-2.598,-2.622,-2.5675,-2.4377,-2.4929,-2.5419,-2.5419,-2.5288,-2.5199,-2.5199,-2.5275,-2.4979,-2.4226,-2.3506,-2.3126,-2.3126,-2.3126,-2.3126,-2.3126,-2.3126,-2.3109,-2.3109,-2.3109,-2.3253,-2.3504,-2.3224,-2.3253,-2.35,-2.3566,-2.3455,-2.323,-2.3584,-2.371,-2.371,-2.371,-2.3894,-2.4072,-2.3732,-2.3606,-2.3562,-2.33,-2.3206,-2.3177,-2.2968,-2.2668,-2.2405,-2.2487,-2.2405,-2.231,-2.2394,-2.2366,-2.2366,-2.2569,-2.2569,-2.2515,-2.2579,-2.2542,-2.2515,-2.2515,-2.2515,-2.2515,-2.2515,-2.2552,-2.2605,-2.2605,-2.2893,-2.2995,-2.2738,-2.3098,-2.3318,-2.3126,-2.3265,-2.3392,-2.3392,-2.3649,-2.3795,-2.3795,-2.4054,-2.4208,-2.4208,-2.419,-2.419,-2.419,-2.419,-2.419,-2.419,-2.419,-2.419,-2.419,-2.419,-2.419,-2.419,-2.419,-2.419,-2.419,-2.419,-2.4266,-2.4389,-2.4389,-2.4604,-2.4902,-2.4902,-2.5013,-2.521,-2.5191,-2.5191,-2.5191,-2.3919,-2.3725,-2.3494,-2.3494,-2.3544,-2.3307,-2.2529,-2.4147,-2.5644,-2.6123,-2.622,-2.6073,-2.5781,-2.6215,-2.643,-2.6168,-2.6294,-2.6319,-2.6131,-2.5605,-2.5246,-2.5135,-2.483,-2.4655,-2.4655,-2.4655,-2.4655,-2.4655,-2.4655,-2.4392,-2.3866,-2.3866,-2.3643,-2.323,-2.314,-2.3146,-2.3253,-2.3777,-2.4,-2.4028,-2.4658,-2.4921,-2.4946,-2.4946,-2.4995,-2.5062,-2.4971,-2.4819,-2.4638,-2.4558,-2.4396,-2.4132,-2.3504,-2.2869,-2.2338,-2.2349,-2.2338,-2.231,-2.2338,-2.231,-2.231,-2.2377,-2.2377,-2.2394,-2.2432,-2.2432,-2.2432,-2.2487,-2.2515,-2.2515,-2.2515,-2.2515,-2.2542,-2.2542,-2.2605,-2.2659,-2.2569,-2.2694,-2.2756,-2.2764,-2.2782,-2.2935,-2.3182,-2.3253,-2.3353,-2.3522,-2.3774,-2.3917,-2.3917,-2.4094,-2.419,-2.419,-2.419,-2.419,-2.419,-2.419,-2.419,-2.419,-2.419,-2.419,-2.419,-2.419,-2.419,-2.419,-2.419,-2.4228,-2.4266,-2.4266,-2.4374,-2.4572,-2.47,-2.4851,-2.5,-2.5156,-2.5191,-2.5191,-2.3925,-2.4005,-2.4138,-2.4507,-2.4081,-2.3652,-2.3564,-2.4564,-2.5557,-2.6137,-2.622,-2.6239,-2.6293,-2.6538,-2.6607,-2.638,-2.6418,-2.6385,-2.6225,-2.5617,-2.5283,-2.5388,-2.5345,-2.5217,-2.4994,-2.4663,-2.4603,-2.4739,-2.4739,-2.4516,-2.407,-2.4229,-2.4143,-2.3798,-2.3692,-2.3719,-2.3833,-2.4303,-2.4441,-2.4438,-2.5028,-2.5257,-2.5312,-2.5312,-2.5366,-2.5447,-2.5312,-2.5174,-2.5005,-2.489,-2.4543,-2.4156,-2.3956,-2.3151,-2.2361,-2.2649,-2.253,-2.231,-2.231,-2.231,-2.231,-2.231,-2.231,-2.231,-2.2377,-2.2394,-2.2366,-2.2405,-2.2405,-2.2405,-2.2405,-2.2432,-2.246,-2.246,-2.2487,-2.2515,-2.2515,-2.2515,-2.2515,-2.2569,-2.2569,-2.2632,-2.2825,-2.2952,-2.3116,-2.3346,-2.3631,-2.3795,-2.3795,-2.4036,-2.419,-2.419,-2.419,-2.419,-2.419,-2.419,-2.419,-2.419,-2.419,-2.419,-2.419,-2.419,-2.419,-2.419,-2.419,-2.419,-2.419,-2.419,-2.4284,-2.4407,-2.4526,-2.467,-2.4837,-2.4953,-2.4993,-2.5012,-2.4483,-2.4824,-2.5162,-2.5955,-2.4974,-2.4545,-2.5881,-2.4906,-2.4527,-2.5878,-2.6059,-2.6096,-2.6132,-2.6132,-2.6132,-2.622,-2.5864,-2.5684,-2.5705,-2.5389,-2.5182,-2.5182,-2.5275,-2.5085,-2.457,-2.385,-2.3679,-2.405,-2.405,-2.4017,-2.3951,-2.434,-2.4649,-2.4802,-2.4581,-2.4658,-2.4878,-2.4947,-2.4834,-2.4638,-2.4991,-2.5155,-2.5155,-2.5155,-2.5281,-2.5495,-2.5184,-2.5067,-2.5008,-2.4785,-2.4205,-2.3714,-2.4374,-2.363,-2.2632,-2.3291,-2.2987,-2.2412,-2.2412,-2.2361,-2.231,-2.231,-2.231,-2.231,-2.2394,-2.2338,-2.231,-2.231,-2.231,-2.231,-2.231,-2.2366,-2.2377,-2.2377,-2.2432,-2.2487,-2.2487,-2.2487,-2.2487,-2.2487,-2.2487,-2.2487,-2.2515,-2.2721,-2.2968,-2.3206,-2.3522,-2.3732,-2.3732,-2.3996,-2.4151,-2.4151,-2.417,-2.419,-2.419,-2.419,-2.419,-2.419,-2.419,-2.419,-2.419,-2.419,-2.419,-2.419,-2.419,-2.419,-2.419,-2.419,-2.4266,-2.4372,-2.4389,-2.451,-2.4676,-2.4692,-2.4707,-2.4723,-2.396,-2.5039,-2.5754,-2.5259,-2.4936,-2.4786,-2.5144,-2.4743,-2.4508,-2.4808,-2.5036,-2.5269,-2.5481,-2.5497,-2.5701,-2.6168,-2.5701,-2.5313,-2.5098,-2.502,-2.5005,-2.5028,-2.4784,-2.4744,-2.5033,-2.5033,-2.5086,-2.5143,-2.5143,-2.4866,-2.4294,-2.4693,-2.4613,-2.4128,-2.4382,-2.4537,-2.4632,-2.5195,-2.5418,-2.5406,-2.6078,-2.6332,-2.6332,-2.6332,-2.6364,-2.6429,-2.6332,-2.6299,-2.6299,-2.625,-2.5727,-2.5152,-2.5321,-2.4746,-2.4036,-2.4218,-2.3731,-2.3156,-2.3156,-2.275,-2.231,-2.231,-2.231,-2.231,-2.231,-2.231,-2.231,-2.231,-2.231,-2.231,-2.231,-2.231,-2.231,-2.231,-2.2338,-2.2338,-2.2338,-2.2338,-2.2349,-2.2422,-2.2405,-2.2432,-2.2487,-2.2552,-2.2615,-2.2668,-2.2943,-2.3116,-2.3116,-2.3495,-2.3735,-2.3816,-2.4016,-2.4151,-2.419,-2.419,-2.419,-2.419,-2.419,-2.419,-2.419,-2.419,-2.419,-2.419,-2.419,-2.419,-2.419,-2.419,-2.4228,-2.4247,-2.4355,-2.4424,-2.4493,-2.4642,-2.4707,-2.4707,-2.3244,-2.427,-2.5035,-2.4934,-2.4902,-2.4902,-2.4902,-2.4799,-2.4679,-2.4679,-2.4823,-2.4942,-2.5082,-2.5497,-2.5497,-2.4981,-2.4942,-2.4823,-2.4639,-2.4379,-2.4297,-2.4323,-2.4173,-2.4271,-2.4527,-2.4744,-2.4981,-2.5176,-2.5176,-2.4984,-2.467,-2.5025,-2.5045,-2.4669,-2.5063,-2.5246,-2.528,-2.5665,-2.5832,-2.5866,-2.6251,-2.6385,-2.6436,-2.6624,-2.6691,-2.6691,-2.6691,-2.6691,-2.6691,-2.6691,-2.6201,-2.5659,-2.6015,-2.5372,-2.4574,-2.4915,-2.4239,-2.3393,-2.3393,-2.2868,-2.231,-2.231,-2.231,-2.231,-2.231,-2.231,-2.231,-2.231,-2.231,-2.231,-2.231,-2.231,-2.231,-2.231,-2.231,-2.231,-2.231,-2.231,-2.231,-2.2366,-2.2366,-2.2366,-2.2405,-2.2432,-2.246,-2.246,-2.2747,-2.2892,-2.2892,-2.3224,-2.3482,-2.3649,-2.3795,-2.3937,-2.4094,-2.4151,-2.4151,-2.4151,-2.417,-2.419,-2.419,-2.419,-2.419,-2.419,-2.419,-2.419,-2.419,-2.419,-2.419,-2.4209,-2.4266,-2.4302,-2.4321,-2.4428,-2.4495,-2.4561,-2.267,-2.3443,-2.4185,-2.4689,-2.4799,-2.4784,-2.4704,-2.4664,-2.4664,-2.4664,-2.4664,-2.4664,-2.4664,-2.5307,-2.5192,-2.3724,-2.4063,-2.4287,-2.4177,-2.3824,-2.3595,-2.3595,-2.3696,-2.3782,-2.3782,-2.3982,-2.4317,-2.4695,-2.4695,-2.4719,-2.4799,-2.5198,-2.5389,-2.5427,-2.5835,-2.598,-2.598,-2.598,-2.598,-2.598,-2.598,-2.598,-2.6016,-2.6367,-2.6539,-2.6624,-2.6624,-2.6657,-2.6691,-2.6691,-2.6285,-2.5896,-2.6505,-2.5845,-2.4983,-2.5609,-2.4831,-2.3748,-2.3613,-2.3054,-2.2462,-2.2344,-2.231,-2.231,-2.231,-2.231,-2.231,-2.231,-2.231,-2.231,-2.231,-2.231,-2.231,-2.231,-2.231,-2.231,-2.231,-2.231,-2.231,-2.231,-2.231,-2.231,-2.231,-2.2366,-2.2377,-2.2377,-2.2642,-2.2807,-2.2807,-2.3032,-2.3277,-2.3522,-2.3588,-2.3756,-2.3996,-2.4054,-2.4074,-2.4094,-2.4151,-2.419,-2.419,-2.419,-2.419,-2.419,-2.419,-2.419,-2.419,-2.419,-2.419,-2.419,-2.419,-2.419,-2.419,-2.419,-2.4266,-2.4373,-2.2765,-2.386,-2.4673,-2.4436,-2.4385,-2.4245,-2.3852,-2.3767,-2.3767,-2.3767,-2.3767,-2.3767,-2.3767,-2.3879,-2.3837,-2.3638,-2.3681,-2.3724,-2.3696,-2.3653,-2.3595,-2.3595,-2.3595,-2.3638,-2.3638,-2.3653,-2.3882,-2.4291,-2.4359,-2.4385,-2.4385,-2.4784,-2.4981,-2.502,-2.5389,-2.5577,-2.5577,-2.5577,-2.5577,-2.5577,-2.5577,-2.5577,-2.5577,-2.5652,-2.5872,-2.6175,-2.6175,-2.6385,-2.6691,-2.6691,-2.6623,-2.6573,-2.6657,-2.6556,-2.642,-2.6522,-2.5964,-2.5169,-2.4509,-2.3799,-2.3105,-2.2462,-2.231,-2.231,-2.231,-2.231,-2.231,-2.231,-2.231,-2.231,-2.231,-2.231,-2.231,-2.231,-2.231,-2.231,-2.231,-2.231,-2.231,-2.231,-2.231,-2.231,-2.231,-2.231,-2.231,-2.231,-2.2366,-2.2377,-2.2377,-2.2859,-2.3146,-2.3165,-2.3628,-2.3896,-2.3996,-2.4016,-2.4016,-2.4016,-2.4074,-2.4151,-2.419,-2.419,-2.419,-2.419,-2.419,-2.419,-2.419,-2.419,-2.419,-2.419,-2.419,-2.419,-2.419,-2.419,-2.4209,-2.4228,-2.2269,-2.3115,-2.3822,-2.3894,-2.3681,-2.3465,-2.3246,-2.3421,-2.3508,-2.3246,-2.3421,-2.3595,-2.3595,-2.3595,-2.3595,-2.3595,-2.3595,-2.3595,-2.3595,-2.3595,-2.3595,-2.3595,-2.3334,-2.3334,-2.3595,-2.3436,-2.3523,-2.3982,-2.4009,-2.4051,-2.4151,-2.4385,-2.4508,-2.4549,-2.4981,-2.516,-2.516,-2.516,-2.516,-2.516,-2.516,-2.516,-2.5198,-2.5427,-2.5615,-2.5799,-2.6016,-2.621,-2.6401,-2.6607,-2.6691,-2.6691,-2.6691,-2.6691,-2.6691,-2.6691,-2.6184,-2.5541,-2.5203,-2.4577,-2.3934,-2.3596,-2.3224,-2.2919,-2.2919,-2.2598,-2.231,-2.231,-2.231,-2.231,-2.231,-2.231,-2.231,-2.231,-2.231,-2.231,-2.231,-2.231,-2.231,-2.231,-2.231,-2.231,-2.231,-2.231,-2.231,-2.231,-2.231,-2.2366,-2.2515,-2.2747,-2.2993,-2.3312,-2.3535,-2.375,-2.3896,-2.3917,-2.3937,-2.3955,-2.4054,-2.4132,-2.4151,-2.417,-2.419,-2.419,-2.419,-2.419,-2.419,-2.419,-2.419,-2.419,-2.419,-2.419,-2.419,-2.419,-2.419,-2.419]}]]